     2              OBSERVATION DATA    GPS                 RINEX VERSION / TYPE
teqc 1998Mar9 19980311 23:28:04UTC                          PGM / RUN BY / DATE
                                                            COMMENT
Original Marker Name: unknown                               COMMENT
Campaign Name: Cholame 1989                                 COMMENT
4-Character Station Name: C616                              COMMENT
6-Character Antenna Code: TI4100                            COMMENT
Vertical Measurement Point: PAE                             COMMENT
Vertical Offset to Rinex Ref. Point: 0.0000                 COMMENT
Radial Measurement Point: PAE                               COMMENT
Radial Offset to Rinex Ref. Point: 0.0842                   COMMENT
Antenna Height from Field Measurement: 1.0420 m             COMMENT
Original XYZ: 0.0000 0.0000 0.0000                          COMMENT
New XYZ position is based on association with SCEC monument COMMENT
E1F1C7P5+0011. Position of that monument is believed to be  COMMENT
valid to within 1 m horizontally; vertical accuracy         COMMENT
should be no worse than 3-times this value.                 COMMENT
                                                            COMMENT
Revised Rinex header created by UCSD GPS archive for        COMMENT
GSAC on 17-Apr-1999 (1999:107) 02:38:52 GMT                 COMMENT
For assistance contact dagnew@ucsd.edu or hjohnson@ucsd.edu COMMENT
                                                            COMMENT
C616                                                        MARKER NAME
unknown UCLA                                                OBSERVER / AGENCY
UN04 TI 4100 2.1                                            REC # / TYPE / VERS
UN04 TI 4100                                                ANT # / TYPE
 -2596978.0000 -4497992.0000  3690078.0000                  APPROX POSITION XYZ
        1.0386        0.0000        0.0000                  ANTENNA: DELTA H/E/N
     1     1     0                                          WAVELENGTH FACT L1/2
     4    P1    P2    L1    L2                              # / TYPES OF OBSERV
     0                                                      INTERVAL
  1989    11    22     9    31   59.000000                  TIME OF FIRST OBS
  1989    11    22    16    20   59.000000                  TIME OF LAST OBS
     0                                                      # OF SATELLITES
                                                            END OF HEADER
 89 11 22  9 31 59.4200000  0  3G 2G 6G11
  17364185.984    17364186.424      479937.416 8    -83178.756 9
  16448274.810    16448276.156     1328118.527 9  -2305692.700 7
  18293253.799    18293256.057      747458.576 8  -2857476.368 9
 89 11 22  9 32 29.4200000  0  3G 2G 6G11
  17378881.109    17378882.683      557164.673 9    -23001.695 9
  16437741.945    16437742.176     1272764.247 9  -2348825.890 9
  18272406.766    18272410.775      637913.707 9  -2942835.964 9
 89 11 22  9 32 59.4200000  0  3G 2G 6G11
  17393592.546    17393594.084      634475.358 9     37240.383 9
  16427227.605    16427227.965     1217511.094 9  -2391880.284 8
  18251591.441    18251594.236      528525.596 8  -3028073.430 9
 89 11 22  9 33 59.0800000  0  3G 2G 6G11
  17422895.657    17422896.104      788463.912 8    157231.436 9
  16406376.405    16406376.708     1107936.176 9  -2477263.343 8
  18210287.771    18210290.081      311466.474 9  -3197210.343 8
 89 11 22  9 34 29.0800000  0  3G 2G 6G11
  17437654.162    17437655.202      866017.537 9    217662.807 9
  16395920.774    16395921.148     1052992.683 9  -2520076.444 9
  18189564.115    18189566.828      202565.061 9  -3282068.578 8
 89 11 22  9 34 59.0800000  0  3G 2G 6G11
  17452426.898    17452428.157      943650.390 9    278155.910 9
  16385484.921    16385485.824      998155.339 9  -2562806.836 9
  18168873.125    18168874.949       93832.323 9  -3366795.368 8
 89 11 22  9 35 29.0800000  0  3G 2G 6G11
  17467215.003    17467216.044     1021361.636 9    338710.104 9
  16375070.887    16375071.161      943425.409 9  -2605453.526 8
  18148214.313    18148215.955      -14728.861 9  -3451388.499 9
 89 11 22  9 35 59.0800000  0  3G 2G 6G11
  17482017.351    17482018.364     1099150.107 8    399324.470 9
  16364676.560    16364676.934      888804.396 9  -2648015.348 8
  18127588.836    18127592.084     -123115.161 9  -3535845.344 8
 89 11 22  9 36 29.0800000  0  4G 2G 6G11G 9
  17496834.061    17496836.151     1177014.566 9    459998.044 9
  16354303.803    16354305.329      834293.305 9  -2690491.542 8
  18106998.203    18107000.982     -231323.774 9  -3620163.718 8
                                  -1599527.204 6   2049416.000 1
 89 11 22  9 36 59.0800000  0  4G 2G 6G11G 9
  17511665.344    17511666.438     1254954.019 8    520730.069 8
  16343951.538    16343952.470      779893.677 9  -2732880.863 9
  18086440.969    18086442.682     -339351.240 9  -3704340.950 8
  19160358.489    19160359.405    -1684737.906 7   2085464.978 8
 89 11 22  9 37 29.0800000  0  4G 2G 6G11G 9
  17526511.361    17526512.816     1332967.555 9    581519.835 8
  16333622.100    16333621.873      725606.607 9  -2775182.489 8
  18065919.288    18065921.764     -447195.239 9  -3788375.234 8
  19144135.721    19144137.367    -1769992.156 7   2019033.097 8
 89 11 22  9 37 59.0800000  0  4G 2G 6G11G 9
  17541369.226    17541372.840     1411054.126 8    642366.483 9
  16323312.164    16323313.476      671433.501 9  -2817395.323 8
  18045431.288    18045435.052     -554852.756 9  -3872264.200 9
  19127903.652    19127905.999    -1855289.807 7   1952567.392 9
 89 11 22  9 38 29.0800000  0  4G 2G 6G11G 9
  17556243.424    17556244.522     1489212.146 9    703268.806 7
  16313025.793    16313027.047      617375.380 9  -2859518.522 8
  18024981.598    18024984.213     -662321.124 9  -3956005.776 8
  19111664.572    19111666.275    -1940630.535 7   1886068.119 9
 89 11 22  9 38 59.0800000  0  4G 2G 6G11G 9
  17571131.201    17571131.889     1567440.801 8    764226.182 8
  16302760.711    16302761.929      563433.596 9  -2901551.068 8
  18004567.723    18004569.973     -769597.236 9  -4039597.550 8
  19095416.260    19095417.591    -2026013.498 8   1819535.953 8
 89 11 22  9 39 29.0800000  0  4G 2G 6G11G 9
  17586028.522    17586031.741     1645739.134 8    825237.856 8
  16292519.001    16292519.447      509609.838 9  -2943491.653 8
  17984190.679    17984193.749     -876677.680 9  -4123036.838 8
  19079161.114    19079163.389    -2111437.998 7   1752971.405 8
 89 11 22  9 39 59.0800000  0  4G 2G 6G11G 9
  17600942.990    17600943.673     1724106.313 8    886303.180 9
  16282298.966    16282299.977      455905.046 9  -2985339.563 8
  17963852.222    17963854.479     -983559.657 9  -4206321.477 8
  19062897.467    19062898.311    -2196903.765 8   1686374.697 8
 89 11 22  9 40 29.0800000  0  4G 2G 6G11G 9
  17615869.450    17615869.285     1802541.535 9    947421.502 9
  16272102.092    16272103.161      402321.026 9  -3027093.338 8
  17943550.249    17943553.469    -1090240.300 9  -4289449.241 9
  19046626.232    19046627.020    -2282409.974 8   1619746.461 8
 89 11 22  9 40 59.0800000  0  4G 2G 6G11G 9
  17630807.091    17630808.175     1881044.069 8   1008592.282 9
  16261929.059    16261928.753      348859.231 9  -3068751.872 8
  17923289.974    17923293.041    -1196716.334 8  -4372417.561 9
  19030346.946    19030349.465    -2367955.734 8   1553087.430 8
 89 11 22  9 41 29.0800000  0  4G 2G 6G11G 9
  17645757.902    17645759.327     1959612.356 7   1069814.305 9
  16251778.301    16251778.640      295521.041 9  -3110314.083 8
  17903067.154    17903069.850    -1302984.848 9  -4455224.172 8
  19014060.767    19014062.240    -2453540.533 9   1486397.967 8
 89 11 22  9 41 59.0800000  0  4G 2G 6G11G 9
  17660720.482    17660722.825     2038245.436 9   1131086.813 8
  16241652.159    16241653.213      242307.799 9  -3151778.944 8
  17882884.982    17882887.164    -1409043.186 9  -4537867.026 9
  18997767.481    18997769.456    -2539164.039 9   1419678.345 7
 89 11 22  9 42 29.0800000  0  4G 2G 6G11G 9
  17675696.793    17675697.938     2116942.559 9   1192409.208 8
  16231549.952    16231550.626      189220.387 9  -3193145.748 9
  17862743.299    17862746.819    -1514888.866 9  -4620344.163 8
  18981466.258    18981467.575    -2624825.830 8   1352928.899 8
 89 11 22  9 42 59.0800000  0  4G 2G 6G11G 9
  17690684.351    17690685.767     2195702.748 8   1253780.772 9
  16221471.930    16221472.590      136260.600 9  -3234413.094 9
  17842642.262    17842644.931    -1620518.555 9  -4702653.009 8
  18965158.037    18965159.283    -2710525.283 9   1286150.093 6
 89 11 22  9 43 29.0800000  0  4G 2G 6G11G 9
  17705684.488    17705685.318     2274524.467 9   1315200.277 9
  16211419.059    16211419.319       83429.465 9  -3275580.216 7
  17822583.373    17822586.314    -1725929.406 9  -4784791.320 8
  18948843.070    18948844.013    -2796261.723 9   1219342.470 7
 89 11 22  9 43 59.0800000  0  4G 2G 6G11G 9
  17720694.477    17720696.545     2353407.199 9   1376667.320 9
  16201389.273    16201391.085       30728.844 9  -3316645.645 8
  17802567.265    17802568.681    -1831118.253 9  -4866756.642 9
  18932521.107    18932522.410    -2882034.023 9   1152506.894 7
 89 11 22  9 44 29.0800000  0  4G 2G 6G11G 9
  17735717.249    17735718.448     2432350.163 9   1438181.274 8
  16191386.296    16191387.807      -21839.831 9  -3357608.252 7
  17782592.346    17782594.307    -1936082.157 9  -4948546.690 9
  18916192.874    18916193.661    -2967841.959 9   1085643.578 7
 89 11 22  9 44 59.0800000  0  4G 2G 6G11G 9
  17750750.517    17750752.649     2511352.365 9   1499741.420 9
  16181409.463    16181409.408      -74275.352 9  -3398467.089 9
  17762662.087    17762663.768    -2040818.393 9  -5030159.326 9
  18899856.981    18899857.811    -3053684.828 9   1018753.023 7
 89 11 22  9 45 29.0800000  0  4G 2G 6G11G 9
  17765795.918    17765796.411     2590412.398 9   1561346.631 9
  16171456.473    16171458.250     -126576.005 9  -3439220.840 9
  17742774.389    17742778.281    -2145323.938 9  -5111592.193 8
  18883515.363    18883515.349    -3139562.057 9    951835.681 7
 89 11 22  9 45 59.0800000  0  4G 2G 6G11G 9
  17780851.603    17780851.245     2669529.619 9   1622996.392 9
  16161529.580    16161530.699     -178740.485 9  -3479868.482 8
  17722931.540    17722935.644    -2249596.124 9  -5192843.223 9
  18867166.539    18867168.027    -3225472.953 8    884892.092 7
 89 11 22  9 46 29.0800000  0  4G 2G 6G11G 9
  17795918.712    17795918.959     2748703.365 9   1684690.185 9
  16151628.642    16151629.618     -230767.089 9  -3520408.700 7
  17703135.057    17703137.680    -2353631.979 9  -5273910.108 9
  18850813.049    18850812.805    -3311416.298 8    817923.218 8
 89 11 22  9 46 59.0800000  0  4G 2G 6G11G 9
  17810994.727    17810996.408     2827933.298 8   1746427.767 8
  16141755.287    16141756.062     -282654.446 9  -3560840.390 8
  17683383.255    17683386.628    -2457428.375 9  -5354790.395 9
  18834450.089    18834455.125    -3397391.779 7    750929.304 7
 89 11 22  9 47 29.0800000  0  4G 2G 6G11G 9
  17826081.720    17826082.723     2907217.270 9   1808207.454 8
  16131908.620    16131908.580     -334401.176 9  -3601162.517 7
  17663678.237    17663680.866    -2560982.673 9  -5435482.034 9
  18818084.558    18818084.902    -3483398.757 6    683910.857 6
 89 11 22  9 47 59.0800000  0  4G 2G 6G11G 9
  17841179.910    17841179.971     2986555.628 9   1870029.539 9
  16122088.044    16122089.907     -386005.675 9  -3641373.813 8
  17644019.453    17644022.623    -2664291.795 9  -5515982.647 8
  18801712.724    18801714.485    -3569436.361 7    616868.568 6
 89 11 22  9 48 29.0800000  0  4G 2G 6G11G 9
  17856286.985    17856288.319     3065947.127 9   1931893.015 8
  16112295.895    16112296.506     -437466.108 9  -3681472.842 9
  17624406.484    17624408.591    -2767352.762 9  -5596289.875 8
  18785335.669    18785336.456    -3655503.552 8    549803.204 6
 89 11 22  9 48 59.0800000  0  4G 2G 6G11G 9
  17871404.586    17871406.168     3145390.523 9   1993796.936 9
  16102529.796    16102530.771     -488781.278 9  -3721458.688 8
  17604842.674    17604846.434    -2870162.816 9  -5676401.599 9
  18768952.463    18768951.732    -3741599.979 8    482715.009 8
 89 11 22  9 49 29.0800000  0  4G 2G 6G11G 9
  17886532.287    17886533.097     3224885.129 9   2055740.760 8
  16092794.119    16092794.729     -539949.643 9  -3761330.135 9
  17585327.256    17585328.913    -2972719.175 9  -5756315.633 9
  18752563.382    18752563.196    -3827724.811 9    415604.639 7
 89 11 22  9 49 59.0800000  0  4G 2G 6G11G 9
  17901669.136    17901669.708     3304429.864 8   2117723.649 8
  16083084.674    16083086.235     -590969.647 9  -3801085.968 8
  17565860.246    17565863.069    -3075018.954 9  -5836029.728 8
  18736169.037    18736168.565    -3913877.270 9    348472.761 8
 89 11 22  9 50 29.0800000  0  4G 2G 6G11G 9
  17916814.867    17916817.013     3384024.129 9   2179745.115 9
  16073404.632    16073404.849     -641839.713 9  -3840724.989 8
  17546442.161    17546444.951    -3177059.273 9  -5915541.652 8
  18719769.232    18719769.733    -4000056.546 9    281319.970 8
 89 11 22  9 50 59.0800000  0  4G 2G 6G11G 9
  17931970.632    17931972.307     3463667.018 8   2241804.475 8
  16063753.545    16063754.748     -692558.299 9  -3880245.947 8
  17527073.919    17527078.265    -3278837.109 9  -5994849.033 8
  18703364.851    18703365.608    -4086262.073 9    214146.755 8
 89 11 22  9 51 29.0800000  0  4G 2G 6G11G 9
  17947134.693    17947136.694     3543357.657 8   2303901.056 9
  16054130.685    16054132.541     -743123.923 9  -3919647.758 9
  17507757.235    17507759.281    -3380349.975 9  -6073949.949 9
  18686956.052    18686957.469    -4172492.638 9    146954.026 9
 89 11 22  9 51 59.0800000  0  4G 2G 6G11G 9
  17962308.911    17962310.235     3623095.350 8   2366034.286 8
  16044537.028    16044538.883     -793534.822 9  -3958929.001 8
  17488490.772    17488494.986    -3481595.007 9  -6152842.166 8
  18670542.500    18670543.501    -4258747.496 9     79742.399 9
 89 11 22  9 52 29.0800000  0  4G 2G 6G11G 9
  17977491.713    17977492.536     3702879.256 8   2428203.542 9
  16034974.856    16034976.824     -843789.622 8  -3998088.608 8
  17469276.276    17469279.714    -3582569.258 9  -6231523.368 8
  18654124.348    18654125.779    -4345026.157 9     12512.254 9
 89 11 22  9 52 59.0800000  0  4G 2G 6G11G 9
  17992682.398    17992683.545     3782708.615 8   2490408.207 9
  16025441.799    16025442.588     -893886.619 9  -4037125.237 8
  17450113.213    17450116.343    -3683269.866 9  -6309991.344 8
  18637701.762    18637703.250    -4431327.550 9    -54735.610 8
 89 11 22  9 53 29.0800000  0  4G 2G 6G11G 9
  18007881.605    18007882.783     3862582.361 8   2552647.452 9
  16015938.120    16015939.966     -943824.072 9  -4076037.544 8
  17431003.453    17431006.880    -3783693.823 9  -6388243.752 9
  18621274.311    18621275.313    -4517650.648 9   -122000.370 9
 89 11 22  9 53 59.0800000  0  4G 2G 6G11G 9
  18023089.883    18023091.131     3942499.849 8   2614920.792 8
  16006467.252    16006466.668     -993600.335 9  -4114824.236 9
  17411946.755    17411949.731    -3883838.315 9  -6466278.393 9
  18604843.017    18604845.435    -4603994.868 9   -189281.561 8
 89 11 22  9 54 29.0800000  0  4G 2G 6G11G 9
  18038305.697    18038306.815     4022460.212 8   2677227.536 8
  15997025.481    15997026.063    -1043213.770 9  -4153484.057 7
  17392943.614    17392946.504    -3983700.711 9  -6544093.232 9
  18588409.525    18588410.970    -4690359.031 8   -256578.320 8
 89 11 22  9 54 59.0800000  0  4G 2G 6G11G 9
  18053530.312    18053530.603     4102463.186 9   2739567.476 8
  15987615.619    15987617.316    -1092662.851 9  -4192015.811 8
  17373995.024    17373997.653    -4083278.131 9  -6621686.017 9
  18571970.788    18571971.818    -4776742.267 9   -323889.931 8
 89 11 22  9 55 29.0800000  0  4G 2G 6G11G 9
  18068762.056    18068762.518     4182507.453 9   2801939.613 8
  15978238.165    15978238.168    -1141945.694 9  -4230418.037 8
  17355100.023    17355103.768    -4182567.547 9  -6699054.386 8
  18555528.515    18555531.205    -4863143.872 8   -391215.872 7
 89 11 22  9 55 59.0800000  0  4G 2G 6G11G 9
  18084000.550    18084002.235     4262592.659 9   2864343.649 9
  15968891.928    15968892.997    -1191060.832 9  -4268689.576 9
  17336261.656    17336263.866    -4281566.116 9  -6776196.117 8
  18539085.026    18539086.328    -4949562.954 9   -458555.444 8
 89 11 22  9 56 29.0800000  0  4G 2G 6G11G 9
  18099249.306    18099250.226     4342717.825 9   2926778.811 8
  15959576.598    15959579.033    -1240006.514 9  -4306829.059 8
  17317478.669    17317481.092    -4380271.260 9  -6853109.199 9
  18522636.103    18522637.677    -5035998.418 8   -525907.791 8
 89 11 22  9 56 59.0800000  0  4G 2G 6G11G 9
  18114503.266    18114504.185     4422882.253 9   2989244.581 9
  15950295.173    15950295.859    -1288780.974 9  -4344835.132 8
  17298751.894    17298754.522    -4478680.116 9  -6929791.400 9
  18506185.055    18506185.700    -5122449.237 7   -593272.121 7
 89 11 22  9 57 29.0800000  0  4G 2G 6G11G 9
  18129766.184    18129766.624     4503085.038 9   3051740.230 9
  15941046.517    15941047.396    -1337383.112 9  -4382706.927 8
  17280081.590    17280085.296    -4576790.293 9  -7006240.867 9
  18489730.372    18489733.505    -5208914.980 7   -660648.043 8
 89 11 22  9 57 59.0800000  0  4G 2G 6G11G 9
  18145035.286    18145035.461     4583325.502 9   3114265.230 9
  15931831.809    15931833.010    -1385810.723 9  -4420442.752 8
  17261468.914    17261471.630    -4674598.999 8  -7082455.420 9
  18473275.350    18473275.579    -5295394.381 7   -728034.588 8
 89 11 22  9 58 29.0800000  0  4G 2G 6G11G 9
  18160310.709    18160313.388     4663602.824 9   3176818.940 9
  15922649.759    15922650.537    -1434062.375 9  -4458041.443 8
  17242914.401    17242917.709    -4772103.570 9  -7158432.969 9
  18456816.137    18456816.165    -5381886.667 8   -795431.184 8
 89 11 22  9 58 59.0800000  0  4G 2G 6G11G 9
  18175594.585    18175596.620     4743916.758 9   3239401.198 9
  15913500.825    15913502.683    -1482136.299 9  -4495501.638 9
  17224418.052    17224422.595    -4869300.787 9  -7234171.031 9
  18440355.066    18440355.552    -5468390.868 8   -862837.106 8
 89 11 22  9 59 29.0800000  0  4G 2G 6G11G 9
  18190883.507    18190884.977     4824265.947 9   3302010.934 9
  15904386.901    15904389.035    -1530030.577 9  -4532821.845 7
  17205981.431    17205985.244    -4966187.938 9  -7309667.498 9
  18423891.718    18423893.564    -5554905.597 9   -930251.182 8
 89 11 22  9 59 59.0800000  0  4G 2G 6G11G 9
  18206181.288    18206182.588     4904650.200 9   3364647.994 9
  15895308.127    15895309.335    -1577743.347 9  -4570000.623 8
  17187605.061    17187607.405    -5062762.216 9  -7384920.159 8
  18407426.940    18407428.343    -5641429.829 9   -997672.667 7
 89 11 22 10  0 29.0800000  0  4G 2G 6G11G 9
  18221484.168    18221485.201     4985069.048 9   3427312.014 9
  15886263.596    15886263.712    -1625273.095 9  -4607036.786 8
  17169287.117    17169289.291    -5159020.934 9  -7459926.931 8
  18390960.366    18390960.380    -5727962.489 9  -1065100.700 7
 89 11 22 10  0 59.0800000  0  4G 2G 6G11G 9
  18236794.425    18236794.930     5065520.941 9   3490001.758 9
  15877254.325    15877255.437    -1672618.082 9  -4643928.993 8
  17151030.731    17151033.335    -5254961.432 9  -7534685.753 8
  18374491.533    18374492.350    -5814503.172 9  -1132535.017 8
 89 11 22 10  1 29.0800000  0  4G 2G 6G11G 9
  18252110.250    18252110.511     5146005.729 9   3552717.143 8
  15868280.292    15868280.840    -1719776.534 9  -4680675.812 9
  17132835.711    17132837.360    -5350580.831 9  -7609194.364 9
  18358022.568    18358024.071    -5901050.372 9  -1199974.407 8
 89 11 22 10  1 59.0800000  0  4G 2G 6G11G 9
  18267431.395    18267432.887     5226522.867 9   3615457.736 9
  15859340.873    15859342.989    -1766746.862 9  -4717276.068 9
  17114699.923    17114702.472    -5445876.898 9  -7683451.015 9
  18341552.002    18341553.991    -5987603.478 9  -1267418.417 8
 89 11 22 10  2 29.0800000  0  4G 2G 6G11G 9
  18282759.242    18282761.778     5307071.614 8   3678222.952 8
  15850439.869    15850441.718    -1813527.182 9  -4753728.268 9
  17096628.227    17096630.817    -5540847.017 9  -7757453.690 9
  18325080.056    18325081.416    -6074161.282 8  -1334866.086 8
 89 11 22 10  2 59.0800000  0  4G 2G 6G11G 9
  18298093.559    18298094.321     5387651.204 9   3741012.237 8
  15841574.949    15841575.030    -1860115.660 9  -4790030.958 9
  17078618.409    17078620.655    -5635488.151 9  -7831200.008 9
  18308608.044    18308610.534    -6160722.216 9  -1402316.113 9
 89 11 22 10  3 29.0800000  0  4G 2G 6G11G 9
  18313433.172    18313434.435     5468261.300 9   3803825.271 9
  15832745.605    15832746.606    -1906510.342 9  -4826182.651 9
  17060671.505    17060673.641    -5729797.661 9  -7904687.907 9
  18292135.616    18292137.391    -6247285.506 9  -1469767.986 8
 89 11 22 10  3 59.0800000  0  4G 2G 6G11G 9
  18328777.901    18328779.480     5548900.664 9   3866661.114 7
  15823954.079    15823955.470    -1952709.718 9  -4862182.143 9
  17042789.085    17042792.075    -5823772.908 9  -7977915.348 8
  18275663.016    18275664.877    -6333850.290 9  -1537221.093 8
 89 11 22 10  4 29.0800000  0  4G 2G 6G11G 9
  18344129.090    18344130.045     5629569.201 9   3929519.708 8
  15815200.070    15815200.984    -1998711.991 9  -4898028.045 9
  17024969.683    17024973.128    -5917411.305 9  -8050880.313 8
  18259190.476    18259191.335    -6420415.113 8  -1604674.200 9
 89 11 22 10  4 59.0800000  0  4G 2G 6G11G 9
  18359484.972    18359486.099     5710265.613 9   3992400.009 8
  15806484.459    15806485.882    -2044515.311 9  -4933718.950 7
  17007216.103    17007217.935    -6010710.242 9  -8123580.789 9
  18242717.605    18242719.022    -6506978.953 8  -1672126.517 9
 89 11 22 10  5 29.0800000  0  4G 2G 6G11G 9
  18374846.578    18374847.176     5790989.811 9   4055301.977 8
  15797807.614    15797808.039    -2090117.887 9  -4969253.430 8
  16989526.700    16989528.614    -6103667.097 9  -8196014.683 9
  18226245.352    18226247.198    -6593540.886 8  -1739577.336 8
 89 11 22 10  5 59.0800000  0  4G 2G 6G11G 9
  18390211.939    18390214.976     5871741.220 8   4118225.136 8
  15789167.223    15789167.776    -2135517.822 9  -5004630.008 8
  16971902.478    16971904.950    -6196278.991 9  -8268179.777 8
  18209773.411    18209775.429    -6680099.532 7  -1807025.594 9
 89 11 22 10  6 29.0800000  0  4G 2G 6G11G 9
  18405583.402    18405584.543     5952519.276 9   4181169.057 9
  15780565.699    15780567.644    -2180713.236 9  -5039847.208 9
  16954345.509    16954348.259    -6288543.282 9  -8340074.016 9
  18193303.636    18193304.609    -6766653.811 7  -1874470.442 8
 89 11 22 10  6 59.0800000  0  4G 2G 6G11G 9
  18420960.194    18420962.344     6033323.008 8   4244132.984 9
  15772005.497    15772006.717    -2225702.569 9  -5074903.815 9
  16936855.549    16936857.194    -6380457.464 9  -8411695.432 8
  18176833.684    18176834.557    -6853202.536 8  -1941910.956 8
 89 11 22 10  7 29.0800000  0  4G 2G 6G11G 9
  18436342.214    18436343.878     6114152.194 8   4307116.725 7
  15763484.977    15763483.351    -2270483.607 9  -5109798.129 7
  16919431.380    16919433.504    -6472018.957 9  -8483042.044 8
  18160364.755    18160366.372    -6939744.591 9  -2009346.297 8
 89 11 22 10  7 59.0800000  0  4G 2G 6G11G 9
  18451728.176    18451728.393     6195006.152 8   4370119.785 8
  15755001.604    15755002.886    -2315054.726 9  -5144528.857 9
  16902075.588    16902078.428    -6563225.386 9  -8554111.970 8
  18143899.443    18143899.615    -7026278.901 8  -2076775.620 7
 89 11 22 10  8 29.0800000  0  4G 2G 6G11G 9
  18467118.149    18467120.220     6275884.008 8   4433141.457 8
  15746560.376    15746561.401    -2359413.947 9  -5179094.485 8
  16884787.399    16884790.673    -6654074.136 9  -8624903.197 8
  18127434.304    18127434.118    -7112804.009 8  -2144197.773 8
 89 11 22 10  8 59.0800000  0  4G 2G 6G11G 9
  18482514.711    18482515.079     6356785.409 8   4496181.482 8
  15738160.419    15738160.310    -2403559.664 9  -5213493.715 8
  16867568.292    16867571.512    -6744562.435 9  -8695413.536 9
  18110970.811    18110970.539    -7199318.921 9  -2211611.999 7
 89 11 22 10  9 29.0800000  0  4G 2G 6G11G 9
  18497912.917    18497914.066     6437709.576 8   4559239.232 8
  15729800.327    15729801.768    -2447489.867 9  -5247725.041 8
  16850417.642    16850420.511    -6834687.981 9  -8765641.212 8
  18094509.622    18094509.651    -7285822.253 9  -2279017.170 8
 89 11 22 10  9 59.0800000  0  4G 2G 6G11G 9
  18513316.945    18513317.787     6518656.413 7   4622314.657 8
  15721483.032    15721481.983    -2491202.700 9  -5281786.990 8
  16833337.484    16833339.138    -6924447.899 9  -8835583.998 8
  18078050.666    18078051.339    -7372312.908 9  -2346412.462 8
 89 11 22 10 10 29.0800000  0  4G 2G 6G11G 9
  18528725.037    18528726.922     6599625.005 9   4685407.058 9
  15713206.189    15713206.431    -2534696.195 9  -5315678.036 8
  16816326.735    16816328.757    -7013839.724 9  -8905239.934 8
  18061594.217    18061595.547    -7458789.626 8  -2413796.902 8
 89 11 22 10 10 59.0800000  0  4G 2G 6G11G 9
  18544136.506    18544137.689     6680614.643 9   4748515.830 9
  15704971.170    15704972.220    -2577968.543 9  -5349396.748 9
  16799385.912    16799389.218    -7102861.151 8  -8974607.258 9
  18045140.884    18045141.900    -7545251.084 8  -2481169.423 9
 89 11 22 10 11 29.0800000  0  4G 2G 6G11G 9
  18559551.533    18559553.469     6761625.562 9   4811641.203 9
  15696779.635    15696780.515    -2621017.776 8  -5382941.593 9
  16782517.523    16782519.949    -7191509.344 9  -9043683.750 8
  18028690.344    18028692.004    -7631695.695 9  -2548528.817 7
 89 11 22 10 11 59.0800000  0  4G 2G 6G11G 9
  18574972.173    18574973.322     6842656.680 8   4874782.287 9
  15688629.884    15688630.044    -2663841.968 9  -5416311.097 7
  16765719.700    16765722.747    -7279781.758 9  -9112467.439 8
  18012245.699    18012244.826    -7718122.679 9  -2615874.501 8
 89 11 22 10 12 29.0800000  0  4G 2G 6G11G 9
  18590395.683    18590397.153     6923707.875 9   4937939.025 9
  15680523.931    15680524.015    -2706439.156 9  -5449503.697 8
  16748994.322    16748995.864    -7367676.129 9  -9180956.549 8
  17995800.897    17995802.257    -7804530.235 9  -2683205.072 8
 89 11 22 10 12 59.0800000  0  4G 2G 6G11G 9
  18605821.653    18605824.318     7004778.094 9   5001110.590 8
  15672461.326    15672462.411    -2748807.626 9  -5482518.080 8
  16732341.179    16732342.639    -7455190.129 9  -9249149.254 8
  17979362.809    17979363.783    -7890917.672 9  -2750519.967 7
 89 11 22 10 13 29.0800000  0  4G 2G 6G11G 9
  18621252.500    18621255.125     7085866.419 9   5064296.278 9
  15664443.569    15664444.134    -2790945.478 9  -5515352.777 8
  16715759.591    16715762.491    -7542321.114 9  -9317043.520 9
  17962927.288    17962929.221    -7977283.236 8  -2817817.806 8
 89 11 22 10 13 59.0800000  0  4G 2G 6G11G 9
  18636686.934    18636689.564     7166973.568 9   5127496.646 8
  15656469.306    15656468.484    -2832850.673 9  -5548006.174 8
  16699253.491    16699255.747    -7629066.643 9  -9384637.420 9
  17946497.233    17946499.312    -8063625.763 8  -2885097.672 8
 89 11 22 10 14 29.0800000  0  4G 2G 6G11G 9
  18652126.318    18652126.515     7248098.495 3   5190710.863 1
  15648539.195    15648539.284    -2874521.170 9  -5580476.677 7
  16682819.610    16682821.189    -7715424.451 9  -9451929.211 8
  17930070.765    17930074.155    -8149943.785 8  -2952358.428 9
 89 11 22 10 14 59.0800000  0  4G 2G 6G11G 9
  18667566.756    18667568.060     7329240.645 9   5253938.498 9
  15640654.151    15640655.971    -2915955.137 9  -5612762.880 8
  16666460.312    16666463.597    -7801391.838 9  -9518916.764 9
  17913650.766    17913652.907    -8236236.060 9  -3019599.116 8
 89 11 22 10 15 29.0800000  0  4G 2G 6G11G 9
  18683010.345    18683012.037     7410399.566 9   5317179.191 9
  15632816.128    15632815.317    -2957150.835 9  -5644863.433 9
  16650175.899    16650178.421    -7886966.407 9  -9585598.237 8
  17897235.234    17897236.934    -8322501.106 9  -3086818.626 9
 89 11 22 10 15 59.0800000  0  4G 2G 6G11G 9
  18698456.842    18698458.675     7491574.864 9   5380432.648 9
  15625022.291    15625023.163    -2998106.404 9  -5676776.870 8
  16633966.563    16633969.951    -7972146.177 9  -9651972.052 8
  17880825.510    17880826.167    -8408737.982 9  -3154016.209 8
 89 11 22 10 16 29.0800000  0  4G 2G 6G11G 9
  18713907.179    18713909.031     7572765.762 9   5443698.241 8
  15617274.433    15617274.147    -3038819.656 9  -5708501.478 9
  16617832.963    16617835.500    -8056928.525 9  -9718036.205 9
  17864420.502    17864420.292    -8494944.818 9  -3221190.376 8
 89 11 22 10 16 59.0800000  0  4G 2G 6G11G 9
  18729360.943    18729361.877     7653972.499 8   5506976.182 8
  15609573.211    15609574.507    -3079288.387 9  -5740035.525 8
  16601775.548    16601777.089    -8141310.925 9  -9783788.712 9
  17848022.920    17848022.186    -8581120.031 9  -3288339.882 6
 89 11 22 10 17 29.0800000  0  4G 2G 6G11G 9
  18744816.642    18744819.364     7735194.007 9   5570265.605 8
  15601919.402    15601919.809    -3119511.035 9  -5771377.858 8
  16585795.569    16585796.628    -8225291.304 9  -9849227.958 8
  17831629.755    17831630.256    -8667262.554 9  -3355463.946 8
 89 11 22 10 17 59.0800000  0  4G 2G 6G11G 9
  18760274.571    18760277.050     7816429.423 9   5633565.897 8
  15594311.948    15594313.477    -3159485.447 9  -5802526.765 8
  16569890.754    16569892.519    -8308867.216 9  -9914352.036 9
  17815243.880    17815243.316    -8753370.964 9  -3422561.405 7
 89 11 22 10 18 29.0800000  0  4G 2G 6G11G 9
  18775736.403    18775737.970     7897679.323 8   5696877.481 8
  15586753.433    15586754.496    -3199209.858 9  -5833480.849 8
  16554064.541    16554066.922    -8392036.134 9  -9979158.978 8
  17798863.856    17798865.243    -8839443.831 9  -3489631.130 7
 89 11 22 10 18 59.0800000  0  4G 2G 6G11G 9
  18791200.637    18791201.511     7978942.285 8   5760199.258 7
  15579241.899    15579242.212    -3238682.197 9  -5864238.510 9
  16538315.453    16538317.159    -8474795.872 9 -10043647.068 7
  17782492.377    17782492.567    -8925479.834 9  -3556672.158 6
 89 11 22 10 19 29.0800000  0  4G 2G 6G11G 9
  18806666.462    18806668.267     8060218.282 8   5823531.191 7
  15571778.430    15571780.066    -3277900.506 9  -5894798.225 8
  16522645.105    16522648.309    -8557144.352 9 -10107814.682 9
  17766127.368    17766127.057    -9011477.291 9  -3623683.171 7
 89 11 22 10 19 59.0800000  0  4G 2G 6G11G 9
  18822136.063    18822136.512     8141506.980 7   5886872.994 7
  15564365.380    15564365.299    -3316862.714 9  -5925158.390 8
  16507053.621    16507056.447    -8639079.029 9 -10171659.877 8
  17749770.839    17749770.618    -9097434.806 9  -3690663.047 7
 89 11 22 10 20 29.0800000  0  4G 2G 6G11G 9
  18837605.247    18837607.279     8222808.056 7   5950224.429 8
  15556999.821    15557000.620    -3355566.884 9  -5955317.481 8
  16491541.311    16491543.127    -8720597.545 9 -10235180.769 9
  17733420.308    17733422.615    -9183350.848 9  -3757610.623 8
 89 11 22 10 20 59.0800000  0  4G 2G 6G11G 9
  18853078.214    18853081.131     8304121.107 6   6013585.183 8
  15549682.902    15549685.259    -3394010.796 9  -5985273.742 8
  16476109.138    16476110.572    -8801697.488 9 -10298375.512 8
  17717078.249    17717080.913    -9269223.754 9  -3824524.590 7
 89 11 22 10 21 29.0800000  0  4G 2G 6G11G 9
  18868555.101    18868557.322     8385445.633 8   6076954.888 7
  15542418.199    15542418.699    -3432192.667 9  -6015025.847 8
  16460755.090    16460758.382    -8882376.727 9 -10361242.438 8
  17700746.885    17700748.992    -9355051.980 8  -3891403.687 7
 89 11 22 10 21 59.0800000  0  4G 2G 6G11G 9
  18884033.518    18884034.836     8466781.285 9   6140333.277 8
  15535202.773    15535202.934    -3470110.512 9  -6044572.209 8
  16445483.122    16445485.617    -8962633.174 9 -10423779.917 8
  17684423.513    17684424.425    -9440834.108 8  -3958246.909 8
 89 11 22 10 22 29.0800000  0  4G 2G 6G11G 9
  18899512.308    18899514.357     8548127.583 9   6203719.976 8
  15528036.733    15528038.496    -3507762.318 9  -6073911.277 8
  16430291.467    16430293.956    -9042464.493 9 -10485986.132 8
  17668109.247    17668110.800    -9526568.748 9  -4025053.113 9
 89 11 22 10 22 59.0800000  0  4G 2G 6G11G 9
  18914993.913    18914996.015     8629483.747 9   6267114.382 8
  15520923.488    15520925.104    -3545146.172 9  -6103041.538 9
  16415181.466    16415184.936    -9121868.659 9 -10547859.494 9
  17651803.565    17651804.614    -9612254.205 9  -4091820.980 9
 89 11 22 10 23 29.0800000  0  4G 2G 6G11G 9
  18930478.708    18930478.857     8710850.019 9   6330516.660 8
  15513861.328    15513861.973    -3582260.077 9  -6131961.465 8
  16400152.289    16400155.125    -9200843.606 9 -10609398.388 8
  17635507.531    17635508.036    -9697889.205 9  -4158549.533 9
 89 11 22 10 23 59.0800000  0  4G 2G 6G11G 9
  18945963.207    18945964.212     8792225.578 8   6393926.176 8
  15506849.652    15506851.389    -3619102.161 9  -6160669.581 8
  16385206.818    16385209.503    -9279387.215 9 -10670601.180 8
  17619222.030    17619223.634    -9783472.079 9  -4225237.459 9
 89 11 22 10 24 29.0800000  0  4G 2G 6G11G 9
  18961450.419    18961451.371     8873610.398 9   6457342.909 8
  15499890.957    15499892.844    -3655670.112 9  -6189164.074 7
  16370342.809    16370345.500    -9357496.650 9 -10731465.658 8
  17602945.714    17602947.650    -9869001.121 9  -4291883.462 8
 89 11 22 10 24 59.0800000  0  4G 2G 6G11G 9
  18976939.073    18976940.504     8955003.646 9   6520766.201 8
  15492985.945    15492986.964    -3691962.059 9  -6217443.508 8
  16355562.779    16355565.011    -9435170.115 9 -10791990.411 8
  17586681.011    17586681.530    -9954474.923 9  -4358486.396 9
 89 11 22 10 25 29.0800000  0  4G 2G 6G11G 9
  18992428.686    18992430.350     9036405.464 9   6584196.155 9
  15486132.665    15486131.962    -3727975.778 9  -6245506.126 7
  16340865.466    16340866.999    -9512405.645 9 -10852173.926 8
  17570425.478    17570427.532   -10039891.413 9  -4425044.658 8
 89 11 22 10 25 59.0800000  0  4G 2G 6G11G 9
  19007920.808    19007922.084     9117815.334 9   6647632.380 8
  15479332.176    15479332.431    -3763709.354 9  -6273350.453 8
  16326251.022    16326253.278    -9589201.386 9 -10912014.754 8
  17554183.104    17554184.525   -10125249.317 9  -4491557.272 9
 89 11 22 10 26 29.0800000  0  4G 2G 6G11G 9
  19023413.804    19023415.654     9199232.636 8   6711074.401 9
  15472585.791    15472587.070    -3799161.045 9  -6300975.140 8
  16311721.439    16311724.212    -9665554.667 9 -10971510.791 8
  17537951.358    17537952.211   -10210547.058 9  -4558023.050 8
 89 11 22 10 26 59.0800000  0  4G 2G 6G11G 9
  19038908.422    19038909.853     9280657.414 9   6774522.258 9
  15465894.490    15465895.240    -3834328.465 9  -6328378.332 7
  16297275.799    16297279.371    -9741463.542 9 -11030660.541 8
  17521732.194    17521732.740   -10295782.831 9  -4624440.531 8
 89 11 22 10 27 29.0800000  0  4G 2G 6G11G 9
  19054404.735    19054406.397     9362089.427 9   6837975.754 8
  15459256.674    15459258.149    -3869209.453 9  -6355558.320 8
  16282916.506    16282918.743    -9816925.795 9 -11089462.274 7
  17505524.180    17505525.679   -10380954.641 9  -4690808.168 8
 89 11 22 10 27 59.0800000  0  4G 2G 6G11G 9
  19069902.765    19069903.741     9443528.136 9   6901434.449 9
  15452673.582    15452673.808    -3903802.091 9  -6382513.642 7
  16268641.919    16268644.566    -9891939.737 9 -11147914.674 8
  17489328.365    17489330.533   -10466061.139 8  -4757124.915 8
 89 11 22 10 28 29.0800000  0  4G 2G 6G11G 9
  19085400.892    19085402.227     9524973.653 9   6964898.461 9
  15446145.146    15446146.404    -3938104.589 9  -6409242.841 8
  16254452.451    16254456.300    -9966503.322 9 -11206016.143 8
  17473146.364    17473147.028   -10551101.007 8  -4823389.731 8
 89 11 22 10 28 59.0800000  0  4G 2G 6G11G 9
  19100899.831    19100901.379     9606425.021 9   7028367.026 8
  15439673.412    15439674.689    -3972114.690 9  -6435744.202 9
  16240350.459    16240352.262   -10040614.217 9 -11263764.871 8
  17456977.759    17456977.117   -10636072.162 8  -4889601.009 7
 89 11 22 10 29 29.0800000  0  4G 2G 6G11G 9
  19116401.493    19116403.469     9687881.674 9   7091839.715 9
  15433257.897    15433258.942    -4005830.553 9  -6462016.299 8
  16226333.689    16226336.155   -10114270.682 9 -11321159.501 8
  17440820.983    17440821.164   -10720973.033 8  -4955757.555 8
 89 11 22 10 29 59.0800000  0  4G 2G 6G11G 9
  19131902.847    19131904.910     9769343.769 9   7155316.628 9
  15426897.707    15426900.042    -4039250.058 9  -6488057.475 8
  16212403.717    16212406.600   -10187470.721 9 -11378198.475 8
  17424678.910    17424679.358   -10805801.815 9  -5021857.938 6
 89 11 22 10 30 29.0800000  0  4G 2G 6G11G 9
  19147406.501    19147407.404     9850811.055 9   7218797.575 9
  15420595.290    15420596.477    -4072371.293 9  -6513866.208 7
  16198561.710    16198564.164   -10260212.244 9 -11434880.152 8
  17408549.493    17408551.797   -10890556.800 9  -5087900.826 8
 89 11 22 10 30 59.0800000  0  4G 2G 6G11G 9
  19162909.544    19162911.049     9932283.017 8   7282282.194 9
  15414350.492    15414351.648    -4105192.295 9  -6539441.013 8
  16184807.320    16184809.351   -10332493.549 9 -11491203.216 9
  17392435.240    17392437.343   -10975236.616 8  -5153885.102 7
 89 11 22 10 31 29.0800000  0  4G 2G 6G11G 9
  19178412.588    19178415.284    10013759.138 7   7345770.038 9
  15408162.452    15408162.249    -4137710.879 9  -6564780.159 8
  16171139.289    16171142.721   -10404312.954 9 -11547166.360 8
  17376337.254    17376338.693   -11059839.165 9  -5219809.163 7
 89 11 22 10 31 59.0800000  0  4G 2G 6G11G 9
  19193919.376    19193921.327    10095239.489 7   7409261.161 9
  15402032.272    15402031.470    -4169925.207 9  -6589882.212 8
  16157562.094    16157563.854   -10475668.238 9 -11602767.861 8
  17360252.588    17360254.186   -11144363.071 9  -5285671.953 7
 89 11 22 10 32 29.0800000  0  4G 2G 6G11G 9
  19209423.416    19209426.196    10176723.627 6   7472755.238 9
  15395960.365    15395961.687    -4201833.083 9  -6614745.480 8
  16144072.317    16144074.428   -10546557.635 9 -11658006.336 8
  17344183.453    17344184.154   -11228806.253 9  -5351471.840 8
 89 11 22 10 32 59.0800000  0  4G 2G 6G11G 9
  19224931.031    19224932.983    10258211.721 6   7536252.386 9
  15389947.167    15389948.381    -4233432.171 9  -6639368.145 8
  16130671.199    16130672.847   -10616979.065 9 -11712880.163 8
  17328130.487    17328130.926   -11313166.644 9  -5417207.216 9
 89 11 22 10 33 29.0800000  0  4G 2G 6G11G 9
  19240438.052    19240439.687    10339702.944 6   7599751.993 9
  15383992.817    15383994.047    -4264720.683 9  -6663748.788 7
  16117360.467    16117361.629   -10686930.675 9 -11767387.895 8
  17312093.454    17312093.856   -11397442.687 9  -5482876.847 8
 89 11 22 10 33 59.0800000  0  4G 2G 6G11G 9
  19255946.443    19255948.678    10421197.280 8   7663254.035 9
  15378098.205    15378098.904    -4295696.723 9  -6687885.942 8
  16104138.444    16104139.427   -10756410.775 9 -11821528.221 7
  17296071.192    17296073.098   -11481632.810 9  -5548479.514 9
 89 11 22 10 34 29.0800000  0  4G 2G 6G11G 9
  19271454.403    19271457.067    10502694.324 9   7726758.180 9
  15372263.420    15372265.119    -4326357.961 9  -6711777.824 8
  16091006.356    16091008.609   -10825417.411 9 -11875299.604 9
  17280068.345    17280068.910   -11565734.908 9  -5614013.591 8
 89 11 22 10 34 59.0800000  0  4G 2G 6G11G 9
  19286963.727    19286965.687    10584193.822 8   7790264.265 8
  15366488.647    15366489.274    -4356702.469 9  -6735422.871 8
  16077966.147    16077968.812   -10893948.791 9 -11928700.652 8
  17264081.559    17264082.764   -11649747.098 9  -5679477.610 8
 89 11 22 10 35 29.0800000  0  4G 2G 6G11G 9
  19302472.184    19302474.823    10665695.309 8   7853771.892 7
  15360774.255    15360776.156    -4386728.420 9  -6758819.729 8
  16065014.386    16065018.045   -10962003.380 9 -11981730.174 8
  17248111.224    17248113.404   -11733667.979 9  -5744870.484 8
 89 11 22 10 35 59.0800000  0  4G 2G 6G11G 9
  19317982.588    19317984.381    10747198.762 9   7917281.071 8
  15355123.441    15355123.753    -4416433.439 9  -6781966.490 8
  16052156.140    16052158.218   -11029578.895 9 -12034386.403 8
  17232159.231    17232160.274   -11817495.327 8  -5810190.472 8
 89 11 22 10 36 29.0800000  0  4G 2G 6G11G 9
  19333492.256    19333495.034    10828704.131 8   7980791.752 8
  15349530.942    15349532.685    -4445815.604 9  -6804861.689 8
  16039388.904    16039390.541   -11096673.806 9 -12086668.127 8
  17216225.573    17216227.615   -11901227.269 9  -5875436.110 9
 89 11 22 10 36 59.0800000  0  4G 2G 6G11G 9
  19349003.230    19349004.221    10910211.109 9   8044303.671 8
  15344001.917    15344002.303    -4474872.866 9  -6827503.725 8
  16026712.246    16026713.818   -11163286.580 9 -12138574.177 8
  17200309.979    17200310.689   -11984862.040 9  -5940606.041 8
 89 11 22 10 37 29.0800000  0  4G 2G 6G11G 9
  19364513.994    19364515.327    10991719.966 9   8107817.053 7
  15338534.439    15338535.774    -4503603.060 9  -6849890.883 7
  16014128.629    16014130.255   -11229415.045 9 -12190102.851 8
  17184414.738    17184414.071   -12068397.587 9  -6005698.659 8
 89 11 22 10 37 59.0800000  0  4G 2G 6G11G 9
  19380024.418    19380025.808    11073229.982 9   8171331.337 8
  15333130.643    15333130.613    -4532004.058 8  -6872021.524 9
  16001637.186    16001639.199   -11295057.689 9 -12241252.943 8
  17168537.586    17168538.217   -12151831.843 9  -6070712.338 7
 89 11 22 10 38 29.0800000  0  4G 2G 6G11G 9
  19395535.572    19395536.120    11154740.828 9   8234846.254 7
  15327788.470    15327789.385    -4560074.198 9  -6893894.366 7
  15989238.154    15989239.603   -11360213.338 9 -12292023.551 7
  17152680.395    17152680.877   -12235163.546 9  -6135646.131 7
 89 11 22 10 38 59.0800000  0  4G 2G 6G11G 9
  19411047.776    19411048.538    11236251.714 9   8298361.202 7
  15322510.031    15322512.043    -4587811.282 9  -6915507.667 8
  15976931.755    15976934.733   -11424879.933 9 -12342413.084 9
  17136842.100    17136842.053   -12318390.316 9  -6200498.168 7
 89 11 22 10 39 29.0800000  0  4G 2G 6G11G 9
  19426557.615    19426559.021    11317763.468 9   8361876.853 7
  15317296.366    15317297.336    -4615213.091 9  -6936859.710 7
  15964720.887    15964722.146   -11489055.488 9 -12392419.989 8
  17121024.434    17121025.784   -12401510.299 9  -6265266.998 7
 89 11 22 10 39 59.0800000  0  4G 2G 6G11G 9
  19442070.223    19442070.155    11399275.510 9   8425392.706 8
  15312146.377    15312146.383    -4642277.832 9  -6957949.123 8
  15952602.101    15952604.079   -11552739.125 9 -12442043.586 8
  17105228.129    17105228.980   -12484521.612 8  -6329951.130 8
 89 11 22 10 40 29.0800000  0  4G 2G 6G11G 9
  19457580.765    19457581.884    11480787.295 9   8488908.369 8
  15307060.035    15307060.102    -4669003.490 9  -6978774.297 9
  15940576.611    15940579.025   -11615929.315 9 -12491282.686 8
  17089453.163    17089453.878   -12567422.243 9  -6394549.023 8
 89 11 22 10 40 59.0800000  0  4G 2G 6G11G 9
  19473092.650    19473093.854    11562299.186 9   8552424.113 8
  15302039.311    15302040.016    -4695387.723 9  -6999333.419 9
  15928647.726    15928649.357   -11678623.970 9 -12540135.652 8
  17073699.466    17073699.629   -12650210.276 9  -6459059.171 8
 89 11 22 10 41 29.0800000  0  4G 2G 6G11G 9
  19488602.242    19488604.678    11643810.527 8   8615939.415 8
  15297082.993    15297084.853    -4721428.776 8  -7019625.163 8
  15916810.643    15916812.974   -11740821.525 9 -12588601.263 8
  17057967.574    17057968.198   -12732883.696 9  -6523480.010 9
 89 11 22 10 41 59.0800000  0  4G 2G 6G11G 9
  19504112.990    19504116.039    11725321.637 8   8679454.514 8
  15292194.545    15292194.697    -4747124.478 8  -7039647.770 8
  15905069.225    15905072.235   -11802520.400 9 -12636678.293 8
  17042257.127    17042258.394   -12815440.351 9  -6587809.841 7
 89 11 22 10 42 29.0800000  0  4G 2G 6G11G 9
  19519624.528    19519627.095    11806832.204 7   8742969.205 9
  15287370.065    15287371.167    -4772472.932 9  -7059399.828 7
  15893424.174    15893425.840   -11863719.574 9 -12684365.924 7
  17026569.957    17026569.983   -12897878.590 8  -6652047.428 8
 89 11 22 10 42 59.0800000  0  4G 2G 6G11G 9
  19535135.035    19535137.197    11888341.931 7   8806483.241 8
  15282612.615    15282613.682    -4797472.050 9  -7078879.641 8
  15881873.769    15881875.995   -11924417.206 9 -12731662.772 8
  17010905.162    17010905.747   -12980196.208 9  -6716191.024 7
 89 11 22 10 43 29.0800000  0  4G 2G 6G11G 9
  19550646.414    19550647.474    11969850.536 6   8869996.396 9
  15277923.058    15277925.075    -4822119.838 8  -7098085.700 7
  15870418.872    15870422.367   -11984611.666 9 -12778567.530 8
  16995264.163    16995265.020   -13062391.131 9  -6780239.025 7
 89 11 22 10 43 59.0800000  0  4G 2G 6G11G 9
  19566154.897    19566158.434    12051357.772 6   8933508.481 8
  15273299.177    15273301.956    -4846414.232 8  -7117016.404 8
  15859060.870    15859061.508   -12044301.800 9 -12825079.315 8
  16979646.763    16979646.883   -13144461.484 9  -6844189.949 7
 89 11 22 10 44 29.0800000  0  4G 2G 6G11G 9
  19581667.466    19581668.195    12132863.399 6   8997019.301 8
  15268744.656    15268745.296    -4870353.400 8  -7135670.276 7
  15847797.699    15847798.920   -12103486.238 9 -12871197.030 7
  16964052.828    16964054.162   -13226405.372 9  -6908042.335 7
 89 11 22 10 44 59.0800000  0  4G 2G 6G11G 9
  19597175.606    19597178.359    12214367.486 6   9060528.941 9
  15264257.789    15264258.234    -4893935.032 9  -7154045.573 8
  15836631.221    15836634.101   -12162163.511 9 -12916919.552 8
  16948483.686    16948485.253   -13308220.381 9  -6971794.278 9
 89 11 22 10 45 29.0800000  0  4G 2G 6G11G 9
  19612686.230    19612686.171    12295869.623 7   9124037.067 8
  15259836.719    15259839.954    -4917157.442 8  -7172140.960 8
  15825563.211    15825564.156   -12220332.401 9 -12962245.960 7
  16932939.916    16932941.519   -13389904.632 9  -7035444.336 8
 89 11 22 10 45 59.0800000  0  4G 2G 6G11G 9
  19628193.815    19628196.566    12377370.095 7   9187543.881 8
  15255487.598    15255488.302    -4940018.327 8  -7189954.623 8
  15814589.882    15814593.122   -12277991.226 9 -13007174.887 7
  16917421.522    16917422.551   -13471455.927 9  -7098990.786 9
 89 11 22 10 46 29.0800000  0  4G 2G 6G11G 9
  19643702.528    19643705.008    12458868.212 8   9251048.878 8
  15251206.700    15251207.629    -4962516.001 8  -7207485.293 8
  15803716.703    15803718.228   -12335138.821 9 -13051705.448 8
  16901928.136    16901929.089   -13552872.499 9  -7162432.269 8
 89 11 22 10 46 59.0800000  0  4G 2G 6G11G 9
  19659211.460    19659213.023    12540364.255 8   9314552.277 9
  15246994.567    15246996.987    -4984648.226 9  -7224731.179 8
  15792938.621    15792940.696   -12391773.649 9 -13095836.479 8
  16886461.855    16886461.684   -13634151.984 9  -7225766.942 9
 89 11 22 10 47 29.0800000  0  4G 2G 6G11G 9
  19674718.575    19674720.811    12621857.764 9   9378053.701 8
  15242852.707    15242854.252    -5006413.023 9  -7241690.757 8
  15782258.937    15782262.133   -12447894.367 9 -13139566.902 8
  16871020.923    16871022.314   -13715292.358 9  -7288993.185 7
 89 11 22 10 47 59.0800000  0  4G 2G 6G11G 9
  19690226.726    19690228.418    12703349.320 9   9441553.611 8
  15238781.369    15238783.489    -5027808.323 9  -7258362.406 8
  15771677.891    15771677.342   -12503499.900 1 -13182895.869 1
  16855607.140    16855607.516   -13796291.282 9  -7352109.221 7
 89 11 22 10 48 29.0800000  0  4G 2G 6G11G 9
  19705733.351    19705735.676    12784838.131 9   9505051.360 8
  15234780.611    15234781.085    -5048832.198 8  -7274744.639 8
  15761194.570    15761197.576   -12558588.873 9 -13225822.319 8
  16840221.308    16840221.744   -13877146.923 8  -7415113.625 8
 89 11 22 10 48 59.0800000  0  4G 2G 6G11G 9
  19721239.054    19721240.655    12866324.157 9   9568546.961 8
  15230851.487    15230851.444    -5069482.882 9  -7290836.074 8
  15750809.480    15750812.557   -12613160.129 9 -13268345.341 8
  16824862.824    16824862.772   -13957857.277 9  -7478004.822 8
 89 11 22 10 49 29.0800000  0  4G 2G 6G11G 9
  19736744.206    19736748.292    12947807.097 9   9632040.151 8
  15226993.276    15226993.579    -5089758.167 9  -7306634.996 8
  15740523.460    15740527.234   -12667212.391 1 -13310463.949 1
  16809530.804    16809532.654   -14038419.734 9  -7540780.768 8
 89 11 22 10 49 59.0800000  0  4G 2G 6G11G 9
  19752249.271    19752251.839    13029287.069 9   9695531.007 8
  15223206.787    15223207.869    -5109656.202 9  -7322139.972 8
  15730336.991    15730336.885   -12720744.402 1 -13352177.187 1
  16794229.828    16794230.792   -14118832.542 9  -7603440.088 8
 89 11 22 10 50 29.0800000  0  4G 2G 6G11G 9
  19767754.086    19767758.652    13110764.299 9   9759019.747 7
  15219492.009    15219493.098    -5129174.876 9  -7337349.332 8
  15720250.138    15720251.907   -12773754.657 9 -13393483.870 9
  16778956.193    16778957.400   -14199093.196 9  -7665980.870 8
 89 11 22 10 50 59.0800000  0  4G 2G 6G11G 9
  19783258.271    19783260.519    13192238.516 9   9822506.133 7
  15215851.240    15215850.939    -5148312.171 8  -7352261.503 8
  15710262.318    15710264.113   -12826242.687 9 -13434383.623 8
  16763712.688    16763713.484   -14279199.567 8  -7728401.429 9
 89 11 22 10 51 29.0800000  0  4G 2G 6G11G 9
  19798762.163    19798765.031    13273709.652 9   9885990.131 6
  15212280.563    15212282.973    -5167066.393 9  -7366875.185 8
  15700372.767    15700376.725   -12878207.170 9 -13474875.421 7
  16748498.662    16748500.056   -14359149.695 8  -7790700.229 7
 89 11 22 10 51 59.0800000  0  4G 2G 6G11G 9
  19814265.753    19814266.482    13355176.922 9   9949471.114 6
  15208786.841    15208786.891    -5185435.442 9  -7381188.735 8
  15690585.140    15690586.464   -12929646.723 9 -13514958.176 8
  16733314.747    16733316.551   -14438941.326 9  -7852875.509 9
 89 11 22 10 52 29.0800000  0  4G 2G 6G11G 9
  19829767.022    19829769.469    13436641.050 9  10012949.643 6
  15205364.684    15205365.265    -5203417.276 9  -7395200.563 7
  15680895.487    15680898.374   -12980560.231 9 -13554631.018 7
  16718162.044    16718161.553   -14518571.931 8  -7914925.316 8
 89 11 22 10 52 59.0800000  0  4G 2G 6G11G 9
  19845268.472    19845271.164    13518101.835 9  10076425.562 6
  15202016.172    15202017.234    -5221010.098 9  -7408909.251 8
  15671306.760    15671310.390   -13030946.951 9 -13593893.379 9
  16703039.479    16703040.491   -14598039.581 9  -7976848.137 8
 89 11 22 10 53 29.0800000  0  4G 2G 6G11G 9
  19860769.205    19860770.589    13599559.149 9  10139898.802 7
  15198743.566    15198743.877    -5238211.994 9  -7422313.312 7
  15661820.233    15661822.115   -13080805.471 9 -13632744.155 9
  16687949.616    16687949.861   -14677342.150 9  -8038642.348 9
 89 11 22 10 53 59.0800000  0  4G 2G 6G11G 9
  19876269.562    19876271.191    13681012.683 9  10203369.051 6
  15195545.165    15195545.427    -5255020.771 9  -7435411.076 8
  15652432.525    15652435.093   -13130134.921 9 -13671182.666 9
  16672890.052    16672891.416   -14756477.092 9  -8100305.920 9
 89 11 22 10 54 29.0800000  0  4G 2G 6G11G 9
  19891768.447    19891770.874    13762461.906 8  10266835.975 6
  15192421.354    15192422.231    -5271434.793 8  -7448201.224 7
  15643147.056    15643148.794   -13178934.488 9 -13709208.294 9
  16657862.956    16657864.423   -14835442.313 8  -8161837.239 9
 89 11 22 10 54 59.0800000  0  4G 2G 6G11G 9
  19907267.329    19907268.595    13843907.455 7  10330300.037 7
  15189373.899    15189373.532    -5287452.305 9  -7460682.401 7
  15633960.823    15633964.275   -13227203.004 9 -13746820.112 8
  16642868.964    16642870.218   -14914235.852 9  -8223234.792 9
 89 11 22 10 55 29.0800000  0  4G 2G 6G11G 9
  19922765.709    19922767.056    13925348.852 7  10393760.816 6
  15186401.085    15186402.663    -5303071.244 9  -7472853.012 8
  15624876.811    15624880.284   -13274939.502 8 -13784017.376 7
  16627908.451    16627909.089   -14992855.202 9  -8284496.592 9
 89 11 22 10 55 59.0800000  0  4G 2G 6G11G 9
  19938261.787    19938263.804    14006786.401 6  10457218.595 8
  15183504.785    15183505.239    -5318289.655 9  -7484711.510 9
  15615895.660    15615897.622   -13322143.168 9 -13820799.434 8
  16612981.295    16612982.047   -15071298.265 9  -8345621.044 9
 89 11 22 10 56 29.0800000  0  4G 2G 6G11G 9
  19953758.226    19953761.497    14088219.605 3  10520672.959 8
  15180685.933    15180685.966    -5333105.634 9  -7496256.438 8
  15607014.254    15607016.229   -13368813.057 8 -13857165.554 7
  16598088.239    16598088.948   -15149562.427 9  -8406606.101 8
 89 11 22 10 56 59.0800000  0  4G 2G 6G11G 9
  19969254.661    19969256.571    14169649.260 3  10584124.486 8
  15177943.448    15177944.824    -5347517.123 9  -7507486.151 7
  15598234.525    15598236.217   -13414948.311 9 -13893115.082 8
  16583229.435    16583229.790   -15227645.643 9  -8467450.148 8
 89 11 22 10 57 29.0800000  0  4G 2G 6G11G 9
  19984745.020    19984750.701    14251074.758 5  10647572.944 8
  15175277.368    15175279.252    -5361522.433 9  -7518399.394 8
  15589557.738    15589559.517   -13460548.087 9 -13928647.361 8
  16568405.949    16568406.924   -15305545.429 9  -8528151.273 8
 89 11 22 10 57 59.0800000  0  4G 2G 6G11G 9
  20000242.678    20000245.140    14332496.004 6  10711018.017 8
  15172690.063    15172691.779    -5375119.496 9  -7528994.496 8
  15580982.326    15580984.382   -13505611.692 9 -13963761.848 8
  16553617.499    16553618.631   -15383259.583 9  -8588707.756 8
 89 11 22 10 58 29.0800000  0  4G 2G 6G11G 9
  20015736.977    20015737.727    14413912.979 7  10774459.800 8
  15170181.569    15170181.943    -5388306.627 9  -7539270.189 8
  15572509.555    15572510.195   -13550138.023 9 -13998457.674 9
  16538863.881    16538864.726   -15460785.706 9  -8649117.708 8
 89 11 22 10 58 59.0800000  0  4G 2G 6G11G 9
  20031227.285    20031230.006    14495325.338 7  10837897.916 8
  15167749.466    15167751.366    -5401081.948 8  -7549224.977 8
  15564138.209    15564140.543   -13594126.281 8 -14032734.219 8
  16524147.213    16524148.593   -15538121.631 9  -8709379.458 8
 89 11 22 10 59 29.0800000  0  4G 2G 6G11G 9
  20046720.296    20046721.800    14576733.667 9  10901332.951 8
  15165397.757    15165398.793    -5413443.723 9  -7558857.528 8
  15555870.004    15555873.695   -13637575.772 9 -14066590.952 8
  16509468.198    16509468.729   -15615264.977 9  -8769491.148 8
 89 11 22 10 59 59.0800000  0  4G 2G 6G11G 9
  20062210.422    20062213.367    14658137.937 9  10964764.814 8
  15163123.434    15163125.407    -5425389.873 8  -7568166.213 9
  15547703.847    15547707.439   -13680485.409 9 -14100027.011 8
  16494825.451    16494826.193   -15692213.124 9  -8829450.730 8
 89 11 22 11  0 29.0800000  0  4G 2G 6G11G 9
  20077700.120    20077703.254    14739537.784 9  11028193.235 9
  15160931.163    15160932.321    -5436918.729 8  -7577149.729 8
  15539641.900    15539644.349   -13722854.759 9 -14133042.082 7
  16480221.179    16480221.060   -15768964.124 9  -8889256.696 8
 89 11 22 11  0 59.0800000  0  4G 2G 6G11G 9
  20093189.996    20093191.960    14820933.176 9  11091618.175 9
  15158816.786    15158817.744    -5448028.453 8  -7585806.652 8
  15531682.402    15531684.901   -13764683.329 9 -14165635.749 8
  16465652.466    16465653.010   -15845515.442 9  -8948907.076 7
 89 11 22 11  1 59.0800000  0  4G 2G 6G11G 9
  20124165.555    20124166.976    14983711.691 9  11218458.523 7
  15154828.390    15154829.957    -5468983.086 8  -7602134.939 8
  15516072.224    15516075.004   -13846714.498 9 -14229556.124 8
  16436633.684    16436633.851   -15998009.432 9  -9067733.566 8
 89 11 22 11  2 29.0800000  0  4G 2G 6G11G 9
  20139652.075    20139654.269    15065094.614 9  11281873.772 8
  15152956.514    15152956.624    -5478824.351 9  -7609803.463 8
  15508422.638    15508425.538   -13886915.666 9 -14260881.698 8
  16422183.332    16422183.958   -16073947.273 9  -9126905.901 8
 89 11 22 11  2 59.0800000  0  4G 2G 6G11G 9
  20155137.341    20155139.781    15146473.401 8  11345285.816 8
  15151164.183    15151166.079    -5488239.136 8  -7617139.665 8
  15500875.652    15500877.976   -13926573.204 9 -14291783.655 8
  16407772.790    16407773.019   -16149675.879 9  -9185915.174 8
 89 11 22 11  3 29.0800000  0  4G 2G 6G11G 9
  20170623.433    20170624.486    15227848.227 8  11408694.729 8
  15149454.648    15149454.739    -5497226.002 8  -7624142.423 8
  15493432.522    15493433.932   -13965686.811 9 -14322261.789 8
  16393403.032    16393402.774   -16225192.867 9  -9244759.579 8
 89 11 22 11  3 59.0800000  0  4G 2G 6G11G 9
  20186106.946    20186109.385    15309219.368 9  11472100.768 8
  15147826.644    15147826.830    -5505783.027 8  -7630810.234 8
  15486093.320    15486095.332   -14004255.589 9 -14352315.361 8
  16379072.866    16379072.944   -16300495.998 9  -9303437.333 7
 89 11 22 11  4 29.0800000  0  4G 2G 6G11G 9
  20201591.097    20201592.605    15390585.794 9  11535503.192 8
  15146280.209    15146281.203    -5513908.468 9  -7637141.762 8
  15478857.742    15478859.273   -14042279.320 9 -14381944.229 7
  16364783.973    16364784.383   -16375582.838 7  -9361946.550 9
 89 11 22 11  4 59.0800000  0  4G 2G 6G11G 9
  20217075.620    20217077.604    15471948.856 2  11598902.947 1
  15144816.876    15144818.285    -5521600.642 8  -7643135.655 8
  15471725.821    15471727.505   -14079757.518 9 -14411148.024 7
  16350536.476    16350537.404   -16450451.045 9  -9420285.406 9
 89 11 22 11  5 29.0800000  0  4G 2G 6G11G 9
                                 -33617816.008 1  11761062.340 1
  15143435.060    15143435.637    -5528857.588 8  -7648790.406 7
  15464697.014    15464699.305   -14116689.130 9 -14439925.884 8
  16336332.557    16336333.100   -16525097.866 8  -9478451.760 8
 89 11 22 11  5 59.0800000  0  4G 2G 6G11G 9
                                 -33828378.163 1  11989062.340 1
  15142136.853    15142138.256    -5535677.668 8  -7654104.746 8
  15457773.554    15457776.241   -14153074.275 9 -14468277.935 8
  16322169.374    16322170.086   -16599521.000 9  -9536443.814 9
 89 11 22 11  6 29.0800000  0  4G13G 6G11G 9
                                 -34003820.433 9  12217062.340 1
  15140923.084    15140924.278    -5542059.329 8  -7659077.476 8
  15450954.134    15450955.755   -14188912.183 9 -14496203.564 8
  16308051.114    16308051.212   -16673718.082 9  -9594259.727 9
 89 11 22 11  6 59.0800000  0  4G13G 6G11G 9
  18104492.651    18104495.001   -34113255.152 9  43085907.990 7
  15139792.759    15139793.657    -5548000.532 9  -7663706.996 8
  15444238.030    15444241.379   -14224202.375 9 -14523702.401 7
  16293975.181    16293975.614   -16747686.268 9  -9651897.281 9
 89 11 22 11  7 29.0800000  0  4G13G 6G11G 9
  18083711.871    18083714.114   -34222455.680 9  43000816.676 8
  15138746.124    15138747.741    -5553500.053 9  -7667992.341 7
  15437627.649    15437629.521   -14258944.864 8 -14550774.456 8
  16279943.304    16279943.443   -16821423.855 9  -9709355.164 7
 89 11 22 11  7 59.0800000  0  4G13G 6G11G 9
  18062978.071    18062980.437   -34331416.793 8  42915911.905 7
  15137783.743    15137784.702    -5558555.937 9  -7671932.003 8
  15431120.244    15431121.805   -14293138.972 9 -14577419.196 8
  16265956.030    16265956.222   -16894928.045 9  -9766631.163 8
 89 11 22 11  8 29.0800000  0  4G13G 6G11G 9
  18042289.056    18042291.239   -34440136.121 9  42831195.559 7
  15136906.309    15136907.486    -5563166.741 9  -7675524.834 7
  15424717.596    15424719.978   -14326784.699 9 -14603636.637 8
  16252013.379    16252013.780   -16968196.324 9  -9823723.315 8
 89 11 22 11  8 59.0800000  0  4G13G 6G11G 9
  18021647.678    18021648.151   -34548611.467 9  42746669.309 8
  15136113.862    15136114.373    -5567330.667 9  -7678769.452 8
  15418420.402    15418421.422   -14359881.259 8 -14629426.155 8
  16238115.901    16238117.357   -17041226.292 9  -9880629.789 8
 89 11 22 11  9 29.0800000  0  4G13G 6G11G 9
  18001051.770    18001054.430   -34656840.369 9  42662335.106 8
  15135407.084    15135407.956    -5571045.769 9  -7681664.353 8
  15412225.943    15412228.415   -14392428.399 9 -14654787.562 7
  16224265.002    16224266.939   -17114015.203 8  -9937348.414 7
 89 11 22 11  9 59.0800000  0  4G13G 6G11G 9
  17980504.776    17980506.372   -34764819.664 9  42578195.383 7
  15134785.792    15134787.234    -5574310.621 8  -7684208.408 8
  15406137.742    15406139.562   -14424425.709 9 -14679720.518 8
  16210460.162    16210461.500   -17186560.663 9  -9993877.348 9
 89 11 22 11 10 29.0800000  0  4G13G 6G11G 9
  17960004.023    17960006.404   -34872547.133 9  42494251.897 8
  15134251.090    15134251.679    -5577123.546 9  -7686400.305 7
  15400153.872    15400154.960   -14455873.121 9 -14704224.991 8
  16196701.831    16196702.774   -17258860.171 9 -10050214.628 9
 89 11 22 11 10 59.0800000  0  4G13G 6G11G 9
  17939552.243    17939554.102   -34980020.881 9  42410506.098 8
  15133800.365    15133800.735    -5579483.003 8  -7688238.845 6
  15394273.404    15394275.965   -14486770.582 8 -14728300.912 7
  16182991.863    16182991.272   -17330911.201 9 -10106358.296 9
 89 11 22 11 11 29.0800000  0  4G13G 6G11G 9
  17919149.543    17919151.804   -35087238.568 9  42326959.856 8
  15133438.848    15133439.544    -5581387.174 8  -7689722.622 8
  15388499.032    15388501.765   -14517117.310 8 -14751947.695 8
  16169327.818    16169329.316   -17402711.332 9 -10162306.442 8
 89 11 22 11 11 59.0800000  0  4G13G 6G11G 9
  17898796.326    17898798.380   -35194197.766 9  42243615.022 8
  15133162.876    15133164.188    -5582835.058 9  -7690850.871 7
  15382829.157    15382831.394   -14546913.622 9 -14775165.611 8
  16155713.386    16155713.569   -17474258.100 9 -10218057.158 9
 89 11 22 11 12 29.0800000  0  4G13G 6G11G 9
  17878491.564    17878494.265   -35300896.302 8  42160473.304 8
  15132975.404    15132975.932    -5583824.703 9  -7691622.017 7
  15377262.490    15377264.711   -14576159.541 9 -14797954.624 7
  16142147.278    16142147.380   -17545549.013 9 -10273608.512 8
 89 11 22 11 12 59.0800000  0  4G13G 6G11G 9
  17858237.690    17858240.667   -35407331.904 8  42077536.479 8
  15132875.142    15132874.451    -5584354.487 8  -7692034.839 8
  15371802.546    15371804.994   -14604854.574 8 -14820314.385 7
  16128629.709    16128631.399   -17616581.487 9 -10328958.480 8
 89 11 22 11 13 29.0800000  0  4G13G 6G11G 9
  17838034.436    17838036.745   -35513501.055 9  41994807.302 8
  15132862.080    15132861.139    -5584422.426 8  -7692087.797 8
  15366446.974    15366450.165   -14632998.139 8 -14842244.423 7
  16115162.442    16115162.891   -17687352.565 9 -10384104.786 8
 89 11 22 11 13 59.0800000  0  4G13G 6G11G 9
  17817882.532    17817885.582   -35619402.236 9  41912286.911 8
  15132936.442    15132936.546    -5584027.873 9  -7691780.363 7
  15361197.334    15361198.909   -14660590.664 9 -14863745.077 8
  16101745.349    16101746.096   -17757860.292 9 -10439045.873 9
 89 11 22 11 14 29.0800000  0  4G13G 6G11G 9
  17797781.808    17797783.620   -35725033.744 9  41829976.673 8
  15133100.735    15133100.402    -5583169.105 9  -7691111.210 6
  15356050.117    15356053.400   -14687632.195 9 -14884816.392 8
  16088378.932    16088379.715   -17828102.133 9 -10493779.762 8
 89 11 22 11 14 59.0800000  0  4G13G 6G11G 9
  17777732.436    17777734.384   -35830392.262 9  41747879.144 8
  15133352.360    15133352.422    -5581844.159 9  -7690078.782 8
  15351009.357    15351011.747   -14714122.431 8 -14905458.121 7
  16075063.224    16075064.496   -17898074.933 9 -10548304.016 8
 89 11 22 11 15 29.0800000  0  4G13G 6G11G 9
  17757735.469    17757737.466   -35935475.654 9  41665996.000 8
  15133694.008    15133693.355    -5580051.704 8  -7688682.061 7
  15346073.490    15346076.582   -14740061.325 9 -14925670.243 6
  16061799.684    16061800.876   -17967776.668 9 -10602617.019 8
 89 11 22 11 15 59.0800000  0  4G13G 6G11G 9
  17737791.647    17737793.761   -36040281.921 9  41584328.777 8
  15134123.664    15134124.207    -5577790.518 9  -7686920.111 8
  15341242.563    15341245.153   -14765448.899 9 -14945452.754 8
  16048588.312    16048589.447   -18037204.613 9 -10656716.715 8
 89 11 22 11 16 29.0800000  0  4G13G 6G11G 9
  17717900.532    17717902.171   -36144808.831 9  41502879.233 8
  15134642.772    15134645.011    -5575059.055 9  -7684791.716 8
  15336516.514    15336519.703   -14790285.513 9 -14964805.953 8
  16035429.345    16035429.303   -18106356.444 9 -10710601.276 8
 89 11 22 11 16 59.0800000  0  4G13G 6G11G 9
  17698063.706    17698065.300   -36249053.282 9  41421649.789 7
  15135253.082    15135253.320    -5571855.620 9  -7682295.541 7
  15331894.841    15331897.169   -14814570.982 8 -14983729.683 8
  16022322.979    16022322.929   -18175229.211 9 -10764268.365 8
 89 11 22 11 17 29.0800000  0  4G13G 6G11G 9
  17678280.610    17678281.838   -36353013.580 9  41340641.758 8
  15135952.567    15135953.325    -5568179.160 9  -7679430.769 8
  15327377.402    15327379.230   -14838305.146 8 -15002223.834 7
  16009270.648    16009270.893   -18243820.828 9 -10817716.373 8
 89 11 22 11 17 59.0800000  0  4G13G 6G11G 9
  17658551.880    17658554.041   -36456687.907 9  41259856.552 7
  15136743.117    15136742.861    -5564027.951 8  -7676196.082 8
  15322966.792    15322970.498   -14861488.324 9 -15020288.629 8
  15996273.304    15996272.512   -18312128.330 9 -10870942.991 8
 89 11 22 11 18 29.0800000  0  4G13G 6G11G 9
  17638878.741    17638881.575   -36560073.669 9  41179296.215 8
  15137623.380    15137625.331    -5559400.738 9  -7672590.476 8
  15318660.173    15318662.642   -14884120.425 9 -15037924.024 7
  15983327.493    15983329.193   -18380149.243 9 -10923946.288 9
 89 11 22 11 18 59.0800000  0  4G13G 6G11G 9
  17619259.706    17619261.509   -36663168.548 9  41098962.547 7
  15138594.827    15138594.663    -5554296.039 9  -7668612.784 7
  15314458.554    15314460.457   -14906201.874 9 -15055130.340 8
  15970438.959    15970439.601   -18447881.168 9 -10976724.401 8
 89 11 22 11 19 29.0800000  0  4G13G 6G11G 9
  17599696.714    17599699.999   -36765970.358 9  41018857.252 7
  15139656.367    15139658.296    -5548712.403 8  -7664261.919 8
  15310361.376    15310363.873   -14927732.805 9 -15071907.675 8
  15957605.277    15957606.448   -18515321.130 9 -11029275.014 8
 89 11 22 11 19 59.0800000  0  4G13G 6G11G 9
  17580191.117    17580193.765   -36868476.547 8  40938982.319 7
  15140811.314    15140812.062    -5542648.433 9  -7659536.754 7
  15306367.721    15306371.162   -14948713.061 9 -15088255.920 8
  15944828.090    15944828.534   -18582466.480 9 -11081596.072 8
 89 11 22 11 20 29.0800000  0  4G13G 6G11G 9
  17560742.083    17560743.911   -36970685.542 9  40859338.968 9
  15142056.897    15142056.876    -5536103.140 8  -7654436.535 8
  15302480.652    15302481.856   -14969143.431 9 -15104175.657 8
  15932106.913    15932109.086   -18649315.264 9 -11133686.009 9
 89 11 22 11 20 59.0800000  0  4G13G 6G11G 9
  17541348.976    17541350.816   -37072594.735 8  40779929.228 7
  15143393.764    15143395.050    -5529075.057 9  -7648960.116 7
  15298696.874    15298700.614   -14989024.011 9 -15119667.016 7
  15919443.373    15919444.634   -18715864.611 9 -11185542.622 8
 89 11 22 11 21 29.0800000  0  4G13G 6G11G 9
  17522013.795    17522015.817   -37174201.879 9  40700754.845 9
  15144824.394    15144824.689    -5521562.797 9  -7643106.414 7
  15295019.241    15295020.451   -15008355.068 9 -15134730.170 7
  15906836.921    15906837.443   -18782111.841 9 -11237163.850 8
 89 11 22 11 21 59.0800000  0  4G13G 6G11G 9
  17502736.673    17502739.478   -37275504.415 9  40621817.820 8
  15146345.404    15146345.692    -5513564.912 9  -7636874.291 7
  15291444.594    15291446.257   -15027136.452 8 -15149364.998 8
  15894287.358    15894289.673   -18848054.261 9 -11288547.556 8
 89 11 22 11 22 29.0800000  0  4G13G 6G11G 9
  17483517.487    17483519.158   -37376500.404 9  40543119.656 8
  15147960.391    15147961.368    -5505080.209 9  -7630262.852 7
  15287975.458    15287977.495   -15045368.657 9 -15163571.899 7
  15881797.590    15881798.642   -18913689.285 9 -11339691.701 8
 89 11 22 11 22 59.0800000  0  4G13G 6G11G 9
  17464357.192    17464359.940   -37477188.393 9  40464661.487 9
  15149668.337    15149668.214    -5496107.631 8  -7623271.232 7
  15284610.660    15284611.938   -15063052.140 9 -15177351.229 8
  15869367.385    15869368.280   -18979014.609 9 -11390594.557 8
 89 11 22 11 23 29.0800000  0  4G13G 6G11G 9
  17445256.151    17445259.179   -37577565.507 9  40386445.544 8
  15151468.350    15151470.244    -5486645.686 9  -7615898.280 7
  15281349.293    15281351.207   -15080187.122 8 -15190703.151 8
  15856995.843    15856996.680   -19044027.278 9 -11441253.771 9
 89 11 22 11 23 59.0800000  0  4G13G 6G11G 9
  17426214.215    17426216.207   -37677629.731 9  40308473.437 8
  15153362.846    15153361.537    -5476693.171 9  -7608143.066 8
  15278192.985    15278195.238   -15096774.037 9 -15203628.006 7
  15844684.561    15844686.185   -19108724.852 9 -11491667.450 9
 89 11 22 11 24 29.0800000  0  4G13G 6G11G 9
  17407232.343    17407234.266   -37777378.985 9  40230746.758 7
  15155349.234    15155350.440    -5466248.794 9  -7600004.621 9
  15275141.723    15275143.156   -15112813.284 9 -15216126.104 8
  15832433.818    15832434.618   -19173104.397 9 -11541833.308 8
 89 11 22 11 24 59.0800000  0  4G13G 6G11G 9
  17388311.592    17388313.722   -37876811.029 8  40153267.250 8
  15157430.778    15157432.468    -5455311.290 9  -7591481.914 8
  15272193.645    15272194.563   -15128305.100 9 -15228197.638 8
  15820243.101    15820244.272   -19237163.429 9 -11591749.433 8
 89 11 22 11 25 29.0800000  0  4G13G 6G11G 9
  17369449.961    17369451.828   -37975924.202 8  40076036.213 8
  15159607.104    15159605.716    -5443879.636 9  -7582574.136 8
  15269349.413    15269350.599   -15143249.887 9 -15239842.921 7
  15808115.260    15808115.449   -19300899.552 9 -11641413.925 9
 89 11 22 11 25 59.0800000  0  4G13G 6G11G 9
  17350651.690    17350653.844   -38074715.735 8  39999055.804 8
  15161875.504    15161876.214    -5431952.565 9  -7573280.328 8
  15266609.190    15266611.778   -15157648.108 8 -15251062.307 8
  15796048.566    15796048.969   -19364310.016 9 -11690824.656 8
 89 11 22 11 26 29.0800000  0  4G13G 6G11G 9
  17331913.595    17331915.761   -38173183.426 9  39922327.729 8
  15164240.026    15164241.479    -5419528.910 9  -7563599.570 7
  15263973.494    15263974.098   -15171500.375 9 -15261856.265 7
  15784043.976    15784045.175   -19427391.999 9 -11739979.466 9
 89 11 22 11 26 59.0800000  0  4G13G 6G11G 9
  17313238.241    17313238.875   -38271325.302 9  39845853.545 8
  15166699.325    15166699.796    -5406607.551 9  -7553530.994 8
  15261440.069    15261443.331   -15184807.136 8 -15272225.160 7
  15772102.912    15772103.404   -19490142.973 9 -11788876.313 9
 89 11 22 11 27 29.0800000  0  4G13G 6G11G 9
  17294625.342    17294625.648   -38369139.484 9  39769634.699 9
  15169252.682    15169253.712    -5393187.298 9  -7543073.664 8
  15259012.736    15259014.902   -15197568.738 8 -15282169.265 8
  15760225.748    15760225.337   -19552560.348 9 -11837513.219 8
 89 11 22 11 27 59.0800000  0  4G13G 6G11G 9
  17276074.213    17276075.638   -38466624.078 9  39693672.676 8
  15171902.420    15171903.147    -5379267.260 8  -7532226.894 7
  15256687.356    15256690.334   -15209785.871 8 -15291689.087 7
  15748412.027    15748411.986   -19614641.777 9 -11885888.353 8
 89 11 22 11 28 29.0800000  0  4G13G 6G11G 9
  17257586.128    17257587.257   -38563776.819 9  39617969.243 8
  15174646.592    15174645.931    -5364846.310 9  -7520989.785 8
  15254466.282    15254468.790   -15221459.163 8 -15300785.159 7
  15736661.494    15736662.873   -19676384.442 9 -11933999.501 9
 89 11 22 11 28 59.0800000  0  4G13G 6G11G 9
  17239162.081    17239163.519   -38660595.913 9  39542525.795 8
  15177485.941    15177486.124    -5349923.213 9  -7509361.407 8
  15252349.004    15252350.897   -15232589.198 8 -15309457.900 8
  15724978.038    15724977.711   -19737785.579 9 -11981844.534 9
 89 11 22 11 29 29.0800000  0  4G13G 6G11G 9
  17220802.728    17220804.656   -38757078.691 9  39467344.410 8
  15180421.487    15180422.461    -5334497.089 9  -7497341.056 8
  15250333.468    15250336.979   -15243176.707 8 -15317707.899 8
  15713359.492    15713359.881   -19798842.796 9 -12029421.586 8
 89 11 22 11 29 59.0800000  0  4G13G 6G11G 9
  17202506.185    17202508.130   -38853223.500 9  39392426.396 8
  15183452.322    15183453.074    -5318566.897 9  -7484927.928 8
  15248421.440    15248424.372   -15253222.385 9 -15325535.682 8
  15701806.209    15701807.094   -19859553.182 8 -12076728.369 8
 89 11 22 11 30 29.0800000  0  4G13G 6G11G 9
  17184274.947    17184276.267   -38949028.017 9  39317773.546 7
  15186580.360    15186580.062    -5302131.667 8  -7472121.279 8
  15246614.005    15246616.415   -15262726.814 8 -15332941.723 8
  15690320.194    15690320.579   -19919914.333 9 -12123763.006 8
 89 11 22 11 30 59.0800000  0  4G13G 6G11G 9
  17166109.781    17166111.506   -39044491.370 9  39243386.506 7
  15189804.404    15189804.060    -5285190.254 9  -7458920.177 9
  15244908.152    15244909.086   -15271690.779 8 -15339926.632 7
  15678900.590    15678901.518   -19979923.742 9 -12170523.575 7
 89 11 22 11 31 29.0800000  0  4G13G 6G11G 9
  17148009.136    17148010.140   -39139610.533 9  39169267.675 8
  15193124.676    15193125.312    -5267741.691 9  -7445323.905 8
  15243304.396    15243306.803   -15280114.777 7 -15346490.773 7
  15667547.600    15667549.705   -20039578.220 9 -12217007.577 8
 89 11 22 11 31 59.0800000  0  4G13G 6G11G 9
  17129975.109    17129976.217   -39234383.300 9  39095418.765 8
  15196541.993    15196541.397    -5249784.889 9  -7431331.589 8
  15241803.819    15241807.160   -15287999.276 8 -15352634.530 7
  15656264.089    15656265.870   -20098875.540 9 -12263213.264 8
 89 11 22 11 32 29.0800000  0  4G13G 6G11G 9
  17112005.479    17112008.162   -39328808.659 8  39021840.550 8
  15200055.880    15200056.025    -5231319.314 9  -7416942.849 7
  15240405.094    15240408.303   -15295345.535 9 -15358358.878 8
  15645049.592    15645049.975   -20157813.116 9 -12309138.646 8
 89 11 22 11 32 59.0800000  0  4G13G 6G11G 9
  17094104.110    17094105.798   -39422883.696 9  38948535.316 8
  15203665.783    15203667.740    -5212343.464 9  -7402156.484 8
  15239109.836    15239112.761   -15302153.804 9 -15363664.029 7
  15633902.500    15633903.385   -20216388.095 9 -12354781.484 9
 89 11 22 11 33 29.0800000  0  4G13G 6G11G 9
  17076268.862    17076269.404   -39516606.876 9  38875504.275 8
  15207374.061    15207375.806    -5192856.717 9  -7386972.009 8
  15237917.080    15237919.415   -15308425.118 8 -15368550.750 7
  15622826.167    15622825.949   -20274597.970 9 -12400139.817 8
 89 11 22 11 33 59.0800000  0  4G13G 6G11G 9
  17058501.732    17058503.859   -39609976.512 9  38802748.720 8
  15211180.203    15211180.843    -5172858.445 9  -7371388.949 7
  15236824.709    15236827.971   -15314160.388 8 -15373019.778 7
  15611819.116    15611819.341   -20332440.249 9 -12445211.745 8
 89 11 22 11 34 29.0800000  0  4G13G 6G11G 9
  17040801.149    17040803.782   -39702990.458 9  38730270.325 8
  15215081.967    15215084.843    -5152347.613 9  -7355406.496 8
  15235836.518    15235838.582   -15319360.440 8 -15377071.769 8
  15600881.275    15600883.664   -20389912.355 9 -12489995.187 8
 89 11 22 11 34 59.0800000  0  4G13G 6G11G 9
  17023169.465    17023170.583   -39795646.989 9  38658070.430 9
  15219083.943    15219084.919    -5131323.454 9  -7339024.043 8
  15234949.234    15234951.197   -15324026.095 9 -15380707.325 7
  15590017.355    15590016.827   -20447011.464 9 -12534487.996 9
 89 11 22 11 35 29.0800000  0  4G13G 6G11G 9
  17005605.734    17005607.392   -39887944.507 9  38586150.298 9
  15223182.229    15223182.798    -5109784.962 9  -7322240.820 9
  15234162.310    15234164.224   -15328158.100 8 -15383927.058 7
  15579222.533    15579223.164   -20503735.038 9 -12578688.173 8
 89 11 22 11 35 59.0800000  0  4G13G 6G11G 9
  16988110.702    16988112.809   -39979880.772 9  38514511.641 7
  15227379.480    15227379.721    -5087731.470 8  -7305056.298 7
  15233477.295    15233479.151   -15331757.354 8 -15386731.662 7
  15568500.493    15568501.442   -20560080.537 9 -12622593.756 8
 89 11 22 11 36 29.0800000  0  4G13G 6G11G 9
  16970685.513    16970686.525   -40071453.805 9  38443156.016 8
  15231673.961    15231674.836    -5065162.076 8  -7287469.771 9
  15232893.633    15232894.851   -15334824.690 9 -15389121.786 8
  15557850.705    15557851.423   -20616045.166 9 -12666202.535 8
 89 11 22 11 36 59.0800000  0  4G13G 6G11G 9
  16953328.339    16953329.928   -40162661.398 9  38372085.154 8
  15236067.769    15236068.258    -5042075.787 8  -7269480.470 7
  15232410.141    15232412.526   -15337361.071 8 -15391098.175 7
  15547274.197    15547274.462   -20671626.063 9 -12709512.324 8
 89 11 22 11 37 29.0800000  0  4G13G 6G11G 9
  16936042.448    16936044.237   -40253501.923 9  38301300.306 8
  15240558.662    15240559.973    -5018472.372 9  -7251088.225 8
  15232029.715    15232030.418   -15339367.849 9 -15392661.894 7
  15536769.414    15536770.637   -20726821.300 9 -12752521.585 8
 89 11 22 11 37 59.0800000  0  4G13G 6G11G 9
  16918826.471    16918828.304   -40343973.346 9  38230803.094 7
  15245148.670    15245148.847    -4994350.665 9  -7232292.106 7
  15231748.573    15231749.477   -15340845.641 8 -15393813.385 7
  15526340.897    15526341.866   -20781627.698 9 -12795227.857 7
 89 11 22 11 38 29.0800000  0  4G13G 6G11G 9
  16901680.567    16901682.149   -40434074.561 9  38160594.373 8
  15249838.296    15249838.248    -4969709.960 9  -7213091.572 8
  15231566.771    15231568.932   -15341795.290 9 -15394553.356 7
  15515985.406    15515986.438   -20836042.711 8 -12837629.147 8
 89 11 22 11 38 59.0800000  0  4G13G 6G11G 9
  16884605.727    16884609.035   -40523803.153 9  38090675.993 7
  15254625.795    15254626.787    -4944549.694 9  -7193486.192 8
  15231486.342    15231488.954   -15342218.030 8 -15394882.766 7
  15505706.980    15505707.058   -20890063.678 9 -12879723.399 8
 89 11 22 11 39 29.0800000  0  4G13G 6G11G 9
  16867602.365    16867604.059   -40613158.026 9  38021048.823 9
  15259512.007    15259512.625    -4918869.504 9  -7173475.658 7
  15231505.769    15231507.038   -15342115.396 8 -15394802.782 7
  15495501.994    15495502.229   -20943688.667 9 -12921509.112 8
 89 11 22 11 39 59.0800000  0  4G13G 6G11G 9
  16850669.792    16850672.140   -40702136.738 9  37951714.770 8
  15264497.864    15264499.933    -4892668.294 9  -7153059.138 7
  15231625.910    15231627.102   -15341487.462 8 -15394313.470 7
  15485373.238    15485374.103   -20996914.340 9 -12962983.660 9
 89 11 22 11 40 29.0800000  0  4G13G 6G11G 9
  16833809.396    16833810.890   -40790737.816 9  37882674.967 8
  15269583.596    15269583.215    -4865945.337 8  -7132236.072 8
  15231844.887    15231846.601   -15340335.511 8 -15393415.843 7
  15475321.449    15475322.033   -21049738.205 9 -13004145.102 8
 89 11 22 11 40 59.0800000  0  4G13G 6G11G 9
  16817021.388    16817023.746   -40878959.576 9  37813930.734 8
  15274768.759    15274768.372    -4838700.388 9  -7111006.254 8
  15232163.677    15232164.640   -15338660.762 7 -15392110.835 7
  15465346.056    15465346.902   -21102157.912 9 -13044991.610 8
 89 11 22 11 41 29.0800000  0  4G13G 6G11G 9
  16800306.725    16800307.003   -40966800.237 9  37745483.462 8
  15280052.095    15280052.582    -4810932.622 9  -7089369.040 8
  15232581.589    15232584.787   -15336464.205 8 -15390399.229 7
  15455448.547    15455449.752   -21154170.669 9 -13085521.033 8
 89 11 22 11 41 59.0800000  0  4G13G 6G11G 9
  16783663.084    16783666.535   -41054258.033 9  37677334.518 8
  15285435.814    15285437.898    -4782641.762 9  -7067324.220 8
  15233098.490    15233100.391   -15333747.495 8 -15388282.309 6
  15445628.480    15445630.940   -21205774.052 9 -13125731.449 8
 89 11 22 11 42 29.0800000  0  4G13G 6G11G 9
  16767094.043    16767095.590   -41141331.377 9  37609485.152 7
  15290919.774    15290920.144    -4753827.119 9  -7044871.260 9
  15233714.365    15233717.109   -15330511.581 7 -15385760.805 8
  15435888.153    15435889.360   -21256965.593 9 -13165620.937 8
 89 11 22 11 42 59.0800000  0  4G13G 6G11G 9
  16750597.716    16750600.045   -41228018.536 9  37541936.721 8
  15296502.271    15296503.149    -4724488.107 9  -7022009.725 8
  15234428.556    15234430.826   -15326757.496 8 -15382835.526 8
  15426224.714    15426226.271   -21307742.546 8 -13205187.393 8
 89 11 22 11 43 29.0800000  0  4G13G 6G11G 9
  16734175.848    16734177.691   -41314318.056 9  37474690.346 8
  15302185.353    15302186.243    -4694624.018 9  -6998739.007 8
  15235241.495    15235242.412   -15322486.328 8 -15379507.353 8
  15416642.715    15416642.830   -21358102.246 9 -13244428.707 8
 89 11 22 11 43 59.0800000  0  4G13G 6G11G 9
  16717827.572    16717830.045   -41400227.887 9  37407747.611 8
  15307968.271    15307968.501    -4664234.738 9  -6975059.064 8
  15236152.568    15236153.361   -15317699.342 8 -15375777.236 8
  15407139.624    15407139.492   -21408042.337 9 -13283343.058 7
 89 11 22 11 44 29.0800000  0  4G13G 6G11G 9
  16701554.555    16701555.912   -41485746.193 9  37341109.978 8
  15313851.225    15313850.938    -4633319.657 9  -6950969.403 7
  15237161.434    15237164.426   -15312397.935 8 -15371646.241 7
  15397714.520    15397715.310   -21457560.213 9 -13321928.420 7
 89 11 22 11 44 59.0800000  0  4G13G 6G11G 9
  16685355.498    16685357.670   -41570871.400 9  37274778.647 8
  15319834.218    15319835.315    -4601878.420 9  -6926469.745 7
  15238268.935    15238270.785   -15306583.118 9 -15367115.217 8
  15388373.141    15388373.315   -21506653.440 9 -13360182.875 8
 89 11 22 11 45 29.0800000  0  4G13G 6G11G 9
  16669231.154    16669233.345   -41655601.963 9  37208754.849 9
  15325917.725    15325917.798    -4569910.526 9  -6901559.699 8
  15239471.173    15239474.202   -15300256.317 9 -15362185.230 7
  15379111.564    15379112.463   -21555319.175 9 -13398104.222 8
 89 11 22 11 45 59.0800000  0  4G13G 6G11G 9
  16653182.617    16653186.163   -41739936.491 9  37143039.649 8
  15332100.414    15332102.671    -4537415.419 9  -6876238.857 7
  15240773.188    15240774.656   -15293418.693 8 -15356857.211 7
  15369933.467    15369933.605   -21603555.003 8 -13435690.582 8
 89 11 22 11 46 29.0800000  0  4G13G 6G11G 9
  16637209.719    16637212.550   -41823873.532 9  37077634.177 8
  15338384.859    15338386.063    -4504392.777 9  -6850506.948 7
  15242171.999    15242172.971   -15286071.708 8 -15351132.267 7
  15360837.256    15360836.048   -21651358.374 9 -13472939.956 7
 89 11 22 11 46 59.0800000  0  4G13G 6G11G 9
  16621314.724    16621314.235   -41907411.508 9  37012539.658 7
  15344769.844    15344770.430    -4470842.523 9  -6824363.899 7
  15243667.041    15243667.734   -15278216.656 8 -15345011.445 8
  15351824.195    15351824.010   -21698726.958 9 -13509850.531 9
 89 11 22 11 47 29.0800000  0  4G13G 6G11G 9
  16605493.321    16605495.351   -41990548.760 9  36947757.395 7
  15351254.478    15351255.786    -4436764.000 9  -6797809.209 9
  15245255.622    15245258.719   -15269854.520 8 -15338495.482 7
  15342891.533    15342892.077   -21745658.136 8 -13546420.276 8
 89 11 22 11 47 59.0800000  0  4G13G 6G11G 9
  16589748.845    16589750.328   -42073283.568 9  36883288.696 8
  15357839.337    15357840.558    -4402157.099 9  -6770842.807 8
  15246943.203    15246945.823   -15260987.305 9 -15331585.958 8
  15334044.894    15334045.182   -21792149.238 9 -13582647.096 8
 89 11 22 11 48 29.0800000  0  4G13G 6G11G 9
  16574082.265    16574084.836   -42155615.172 9  36819134.204 8
  15364526.100    15364525.487    -4367021.412 9  -6743464.359 8
  15248727.991    15248729.135   -15251616.113 9 -15324283.732 7
  15325281.625    15325283.840   -21838197.988 9 -13618529.239 8
 89 11 22 11 48 59.0800000  0  4G13G 6G11G 9
  16558492.802    16558493.486   -42237540.878 9  36755295.970 7
  15371313.553    15371313.588    -4331356.533 9  -6715673.552 8
  15250607.411    15250608.704   -15241741.986 8 -15316589.589 7
  15316604.563    15316604.340   -21883801.712 9 -13654064.589 8
 89 11 22 11 49 29.0800000  0  4G13G 6G11G 9
  16542980.244    16542982.315   -42319059.545 9  36691774.912 8
  15378201.367    15378201.384    -4295162.397 9  -6687470.338 9
  15252580.512    15252583.728   -15231366.629 8 -15308504.895 7
  15308012.398    15308012.378   -21928957.896 9 -13689251.224 8
 89 11 22 11 49 59.0800000  0  4G13G 6G11G 9
  16527544.823    16527546.726   -42400169.794 9  36628572.138 8
  15385188.907    15385190.248    -4258438.727 9  -6658854.483 7
  15254650.574    15254652.841   -15220491.368 8 -15300030.653 7
  15299505.058    15299504.872   -21973664.301 8 -13724087.353 8
 89 11 22 11 50 29.0800000  0  4G13G 6G11G 9
  16512187.878    16512190.445   -42480870.190 8  36565688.725 8
  15392278.801    15392279.914    -4221185.303 9  -6629825.860 8
  15256815.075    15256815.499   -15209117.558 8 -15291167.943 7
  15291083.045    15291083.681   -22017918.226 9 -13758570.943 8
 89 11 22 11 50 59.0800000  0  4G13G 6G11G 9
  16496909.264    16496911.695   -42561159.756 9  36503125.451 8
  15399467.890    15399468.159    -4183402.008 9  -6600384.337 7
  15259074.319    15259076.822   -15197246.756 8 -15281917.949 7
  15282747.716    15282748.666   -22061717.292 9 -13792700.083 7
 89 11 22 11 51 29.0800000  0  4G13G 6G11G 9
  16481709.411    16481711.797   -42641036.465 9  36440883.866 8
  15406758.880    15406758.965    -4145088.659 9  -6570529.794 8
  15261425.606    15261429.385   -15184880.415 8 -15272281.836 7
  15274499.379    15274502.542   -22105058.944 9 -13826472.783 7
 89 11 22 11 51 59.0800000  0  4G13G 6G11G 9
  16466588.494    16466590.434   -42720499.033 9  36378964.981 7
  15414150.451    15414152.325    -4106244.890 9  -6540261.941 8
  15263874.347    15263875.558   -15172019.981 8 -15262260.719 8
  15266339.613    15266340.005   -22147940.860 9 -13859887.252 8
 89 11 22 11 52 29.0800000  0  4G13G 6G11G 9
  16451546.765    16451547.917   -42799545.801 9  36317370.084 7
  15421642.949    15421644.137    -4066870.711 9  -6509580.768 8
  15266415.326    15266417.064   -15158666.844 8 -15251855.652 7
  15258267.551    15258268.488   -22190360.549 9 -13892941.553 8
 89 11 22 11 52 59.0800000  0  4G13G 6G11G 9
  16436583.817    16436584.767   -42878175.729 9  36256100.009 8
  15429236.385    15429236.870    -4026966.203 9  -6478486.361 7
  15269049.344    15269052.660   -15144822.777 8 -15241068.058 7
  15250284.378    15250284.513   -22232315.773 9 -13925633.913 8
 89 11 22 11 53 29.0800000  0  4G13G 6G11G 9
  16421700.480    16421702.447   -42956387.695 9  36195155.604 8
  15436930.073    15436932.046    -3986531.180 9  -6446978.564 8
  15271777.213    15271779.154   -15130489.612 9 -15229899.370 7
  15242390.030    15242389.834   -22273803.829 8 -13957962.269 8
 89 11 22 11 53 59.0800000  0  4G13G 6G11G 9
  16406896.660    16406898.839   -43034180.255 9  36134538.033 8
  15444725.870    15444726.742    -3945565.546 9  -6415057.297 8
  15274597.676    15274599.348   -15115668.562 9 -15218350.475 8
  15234583.271    15234584.454   -22314822.411 9 -13989924.790 8
 89 11 22 11 54 29.0800000  0  4G13G 6G11G 9
  16392173.285    16392175.588   -43111551.971 9  36074248.398 8
  15452622.896    15452623.097    -3904069.117 9  -6382722.428 8
  15277510.223    15277511.233   -15100360.893 8 -15206422.411 8
  15226867.102    15226868.685   -22355369.077 8 -14021519.587 7
 89 11 22 11 54 59.0800000  0  4G13G 6G11G 9
  16377529.862    16377533.140   -43188501.503 9  36014287.734 8
  15460622.373    15460621.336    -3862042.227 8  -6349974.212 8
  15280515.601    15280517.642   -15084568.214 8 -15194116.432 7
  15219241.981    15219243.238   -22395441.682 8 -14052744.998 8
 89 11 22 11 55 29.0800000  0  4G13G 6G11G 9
  16362968.530    16362969.815   -43265027.466 9  35954657.132 8
  15468719.892    15468719.806    -3819484.616 9  -6316812.452 8
  15283612.400    15283614.127   -15068292.418 7 -15181433.980 7
  15211708.757    15211708.688   -22435037.510 8 -14083598.879 7
 89 11 22 11 55 59.0800000  0  4G13G 6G11G 9
  16348486.578    16348487.903   -43341128.479 9  35895357.663 7
  15476918.806    15476919.419    -3776396.457 9  -6283237.285 9
  15286803.077    15286803.783   -15051535.180 8 -15168376.401 7
  15204264.221    15204264.335   -22474154.359 8 -14114079.526 7
 89 11 22 11 56 29.0800000  0  4G13G 6G11G 9
  16334087.072    16334087.542   -43416803.328 9  35836390.240 7
  15485218.544    15485220.248    -3732777.583 9  -6249248.573 8
  15290081.584    15290083.344   -15034297.898 7 -15154944.729 7
  15196912.643    15196912.328   -22512789.749 9 -14144185.013 8
 89 11 22 11 56 59.0800000  0  4G13G 6G11G 9
  16319766.735    16319767.662   -43492050.746 9  35777755.891 8
  15493619.943    15493620.226    -3688628.267 9  -6214846.526 8
  15293451.469    15293455.393   -15016582.195 8 -15141140.276 7
  15189652.371    15189652.698   -22550941.475 9 -14173913.632 8
 89 11 22 11 57 29.0800000  0  4G13G 6G11G 9
  16305528.497    16305529.744   -43566869.792 9  35719455.348 7
  15502122.811    15502123.111    -3643948.762 9  -6180031.337 8
  15296915.055    15296916.168   -14998390.073 8 -15126964.584 7
  15182483.745    15182485.617   -22588607.315 9 -14203263.629 7
 89 11 22 11 57 59.0800000  0  4G13G 6G11G 9
  16291372.643    16291375.630   -43641259.694 9  35661489.191 7
  15510725.366    15510726.596    -3598739.217 9  -6144803.128 8
  15300466.995    15300469.613   -14979723.259 8 -15112419.010 8
  15175409.502    15175410.071   -22625785.006 9 -14232233.258 8
 89 11 22 11 58 29.0800000  0  4G13G 6G11G 9
  16277299.190    16277300.756   -43715218.632 9  35603858.866 8
  15519429.252    15519430.868    -3552999.716 9  -6109161.971 8
  15304109.986    15304111.418   -14960583.145 8 -15097504.626 7
  15168428.198    15168428.330   -22662472.187 9 -14260820.663 8
 89 11 22 11 58 59.0800000  0  4G13G 6G11G 9
  16263307.413    16263309.569   -43788744.894 9  35546565.688 7
  15528233.967    15528234.892    -3506729.739 9  -6073107.456 8
  15307841.269    15307842.421   -14940971.073 9 -15082222.483 7
  15161541.313    15161541.311   -22698665.785 8 -14289023.446 8
 89 11 22 11 59 29.0800000  0  4G13G 6G11G 9
  16249398.300    16249400.556   -43861838.081 9  35489609.967 8
  15537140.180    15537141.097    -3459930.166 9  -6036640.286 9
  15311661.621    15311664.828   -14920889.252 8 -15066574.297 7
  15154747.584    15154747.165   -22734364.238 9 -14316840.430 7
 89 11 22 11 59 59.0800000  0  4G13G 6G11G 9
  16235572.957    16235575.106   -43934496.667 9  35432992.887 9
  15546146.368    15546148.169    -3412601.152 9  -5999760.551 8
  15315573.134    15315574.679   -14900339.678 7 -15050561.642 6
  15148048.666    15148049.029   -22769565.392 9 -14344269.892 7
 89 11 22 12  0 29.0800000  0  4G13G 6G11G 9
  16221828.591    16221829.145   -44006719.912 9  35376715.038 8
  15555253.430    15555254.443    -3364742.788 9  -5962468.336 9
  15319571.067    15319575.109   -14879323.593 8 -15034185.466 8
  15141444.915    15141446.651   -22804266.668 8 -14371309.840 7
 89 11 22 12  0 59.0800000  0  4G13G 6G11G 9
  16208168.224    16208170.498   -44078506.798 9  35320777.192 8
  15564461.603    15564462.503    -3316355.538 9  -5924764.008 8
  15323660.672    15323661.606   -14857843.011 8 -15017447.353 8
  15134937.643    15134939.061   -22838466.036 8 -14397958.710 8
 89 11 22 12  1 29.0800000  0  4G13G 6G11G 9
  16194590.548    16194592.758   -44149855.870 9  35265180.506 8
  15573770.224    15573770.669    -3267439.379 9  -5886647.527 9
  15327835.989    15327836.436   -14835899.646 9 -15000348.621 7
  15128525.995    15128526.334   -22872160.929 9 -14424214.482 8
 89 11 22 12  1 59.0800000  0  4G13G 6G11G 9
  16181096.942    16181099.000   -44220765.922 9  35209925.918 8
  15583178.977    15583179.268    -3217994.758 9  -5848119.265 9
  15332098.211    15332101.860   -14813495.277 9 -14982890.659 7
  15122210.006    15122211.401   -22905349.393 8 -14450075.620 8
 89 11 22 12  2 29.0800000  0  4G13G 6G11G 9
  16167687.484    16167690.479   -44291236.022 9  35155014.149 8
  15592688.992    15592689.479    -3168021.945 9  -5809179.421 8
  15336449.745    15336451.475   -14790631.616 8 -14965074.836 7
  15115991.520    15115990.551   -22938029.211 9 -14475540.420 7
 89 11 22 12  2 59.0800000  0  4G13G 6G11G 9
  16154361.114    16154363.898   -44361264.921 9  35100446.164 7
  15602298.020    15602299.392    -3117521.292 9  -5769828.280 8
  15340888.423    15340888.467   -14767310.361 8 -14946902.415 7
  15109868.914    15109870.337   -22970198.001 8 -14500607.002 8
 89 11 22 12  3 29.0800000  0  4G13G 6G11G 9
  16141119.254    16141121.744   -44430851.778 9  35046222.642 7
  15612008.132    15612009.608    -3066493.086 9  -5730066.045 9
  15345411.999    15345414.193   -14743533.472 8 -14928374.968 7
  15103845.617    15103846.682   -23001853.630 8 -14525273.719 7
 89 11 22 12  3 59.0800000  0  4G13G 6G11G 9
  16127962.001    16127963.289   -44499995.339 9  34992344.542 8
  15621819.292    15621820.836    -3014937.766 9  -5689893.090 9
  15350021.940    15350023.910   -14719302.749 8 -14909493.880 7
  15097919.161    15097922.340   -23032993.939 8 -14549538.893 7
 89 11 22 12  4 29.0800000  0  4G13G 6G11G 9
  16114887.573    16114890.639   -44568695.192 9  34938812.186 9
  15631730.617    15631731.603    -2962855.928 9  -5649309.853 9
  15354719.403    15354722.029   -14694620.088 8 -14890260.637 7
  15092093.248    15092093.608   -23063616.965 7 -14573400.979 8
 89 11 22 12  4 59.0800000  0  4G13G 6G11G 9
  16101899.521    16101902.076   -44636950.050 9  34885626.588 8
  15641741.445    15641742.260    -2910247.533 9  -5608316.325 9
  15359503.873    15359505.295   -14669486.970 9 -14870676.375 8
  15086364.579    15086365.809   -23093720.216 9 -14596858.047 8
 89 11 22 12  5 29.0800000  0  4G13G 6G11G 9
  16088995.873    16088999.229   -44704758.656 9  34832788.722 8
  15651852.420    15651853.735    -2857113.197 9  -5566912.937 8
  15364371.403    15364371.974   -14643905.630 9 -14850742.846 8
  15080735.817    15080735.735   -23123301.418 9 -14619908.323 7
 89 11 22 12  5 59.0800000  0  4G13G 6G11G 9
  16076177.914    16076179.326   -44772120.308 9  34780299.122 7
  15662063.799    15662064.885    -2803453.575 9  -5525100.261 9
  15369323.342    15369325.051   -14617877.892 9 -14830461.485 8
  15075206.564    15075206.549   -23152358.830 7 -14642550.459 8
 89 11 22 12  6 29.0800000  0  4G13G 6G11G 9
  16063444.146    16063447.046   -44839034.304 9  34728158.344 8
  15672374.892    15672375.668    -2749269.077 9  -5482878.592 9
  15374362.561    15374362.631   -14591405.528 9 -14809833.657 7
  15069775.322    15069777.273   -23180890.338 8 -14664782.804 7
 89 11 22 12  6 59.0800000  0  4G13G 6G11G 9
  16050796.570    16050798.567   -44905499.489 9  34676367.292 7
  15682785.466    15682787.195    -2694560.026 9  -5440248.175 9
  15379482.181    15379484.141   -14564490.516 9 -14788860.915 7
  15064447.516    15064447.249   -23208893.612 9 -14686603.546 7
 89 11 22 12  7 29.0800000  0  4G13G 6G11G 9
  16038234.972    16038236.422   -44971515.202 9  34624926.469 8
  15693295.227    15693297.287    -2639327.193 9  -5397209.610 9
  15384688.080    15384690.234   -14537134.817 9 -14767544.767 8
  15059220.046    15059220.425   -23236366.871 8 -14708011.275 7
 89 11 22 12  7 59.0800000  0  4G13G 6G11G 9
  16025757.672    16025759.977   -45037080.566 9  34573836.597 8
  15703905.874    15703907.201    -2583570.918 9  -5353763.174 8
  15389977.716    15389978.874   -14509340.459 9 -14745886.825 7
  15054092.725    15054093.639   -23263307.666 9 -14729004.111 7
 89 11 22 12  8 29.0800000  0  4G13G 6G11G 9
  16013366.333    16013368.623   -45102194.346 9  34523098.588 8
  15714615.930    15714617.334    -2527291.959 9  -5309909.452 9
  15395349.845    15395351.662   -14481109.138 9 -14723888.395 7
  15049067.507    15049069.565   -23289714.219 8 -14749580.635 6
 89 11 22 12  8 59.0800000  0  4G13G 6G11G 9
  16001061.784    16001064.122   -45166856.167 9  34472712.772 8
  15725424.096    15725426.438    -2470490.950 9  -5265648.939 8
  15400804.176    15400807.168   -14452442.841 8 -14701551.023 8
  15044144.198    15044144.886   -23315584.745 8 -14769739.489 7
 89 11 22 12  9 29.0800000  0  4G13G 6G11G 9
  15988843.574    15988845.861   -45231064.991 9  34422679.932 8
  15736333.370    15736333.712    -2413168.702 9  -5220982.259 9
  15406343.065    15406343.978   -14423343.656 8 -14678876.326 8
  15039324.309    15039324.583   -23340916.996 8 -14789478.912 7
 89 11 22 12  9 59.0800000  0  4G13G 6G11G 9
  15976712.068    15976713.417   -45294820.038 9  34373000.673 7
  15747339.491    15747340.350    -2355325.573 9  -5175909.711 7
  15411961.913    15411962.979   -14393813.615 8 -14655865.905 7
  15034607.743    15034606.863   -23365708.852 8 -14808797.245 7
 89 11 22 12 10 29.0800000  0  4G13G 6G11G 9
  15964665.661    15964668.217   -45358120.520 9  34323675.626 6
  15758445.600    15758445.971    -2296962.406 9  -5130431.927 8
  15417662.912    15417663.332   -14363854.814 9 -14632521.382 8
  15029992.208    15029992.982   -23389958.706 9 -14827693.226 7
 89 11 22 12 10 59.0800000  0  4G13G 6G11G 9
  15952706.835    15952709.297   -45420965.763 9  34274705.310 8
  15769650.128    15769651.644    -2238079.710 9  -5084549.331 8
  15423445.561    15423446.063   -14333468.863 9 -14608844.010 7
  15025481.035    15025481.692   -23413664.371 8 -14846165.171 7
 89 11 22 12 11 29.0800000  0  4G13G 6G11G 9
  15940834.500    15940835.521   -45483355.000 9  34226090.327 8
  15780953.623    15780955.134    -2178678.347 9  -5038262.562 8
  15429307.636    15429309.774   -14302657.860 8 -14584835.437 8
  15021073.070    15021073.814   -23436824.057 9 -14864211.670 7
 89 11 22 12 11 59.0800000  0  4G13G 6G11G 9
  15929049.029    15929051.431   -45545287.307 9  34177831.406 8
  15792356.498    15792357.602    -2118758.915 9  -4991572.113 8
  15435251.342    15435253.461   -14271423.842 9 -14560497.255 7
  15016771.018    15016772.017   -23459435.797 7 -14881831.212 7
 89 11 22 12 12 29.0800000  0  4G13G 6G11G 9
  15917350.681    15917353.261   -45606762.702 9  34129928.508 7
  15803857.025    15803858.759    -2058322.318 9  -4944478.672 8
  15441275.106    15441277.143   -14239768.934 9 -14535831.079 7
  15012573.089    15012572.517   -23481497.553 9 -14899022.189 7
 89 11 22 12 12 59.0800000  0  4G13G 6G11G 9
  15905739.725    15905741.107   -45667779.640 9  34082382.853 7
  15815456.401    15815457.866    -1997369.205 9  -4896982.749 8
  15447378.670    15447380.911   -14207694.984 8 -14510838.379 7
  15008479.504    15008480.196   -23503007.358 8 -14915783.084 7
 89 11 22 12 13 29.0800000  0  4G13G 6G11G 9
  15894215.818    15894217.282   -45728337.816 9  34035194.672 8
  15827153.282    15827154.436    -1935900.313 9  -4849084.922 8
  15453561.780    15453564.280   -14175204.093 8 -14485520.806 7
  15004491.444    15004491.470   -23523963.519 7 -14932112.575 7
 89 11 22 12 13 59.0800000  0  4G13G 6G11G 9
  15882779.528    15882780.979   -45788436.463 9  33988364.566 8
  15838948.032    15838950.762    -1873916.794 9  -4800786.091 9
  15459823.114    15459825.125   -14142298.264 9 -14459879.898 7
  15000609.427    15000610.073   -23544364.272 8 -14948009.265 8
 89 11 22 12 14 29.0800000  0  4G13G 6G11G 9
  15871429.653    15871431.322   -45848075.130 9  33941892.884 8
  15850841.344    15850843.260    -1811419.154 9  -4752086.659 8
  15466163.876    15466164.975   -14108979.324 8 -14433917.074 7
  14996834.057    14996832.906   -23564207.594 8 -14963471.588 7
 89 11 22 12 14 59.0800000  0  4G13G 6G11G 9
  15860169.316    15860170.316   -45907253.223 9  33895780.098 7
  15862831.566    15862832.420    -1748408.446 9  -4702987.421 8
  15472583.053    15472584.418   -14075249.578 8 -14407634.161 8
  14993164.535    14993164.782   -23583491.780 8 -14978498.235 7
 89 11 22 12 15 29.0800000  0  4G13G 6G11G 9
  15848995.483    15848997.578   -45965970.464 9  33850026.425 7
  15874920.282    15874920.850    -1684885.555 9  -4653489.078 8
  15479078.973    15479079.647   -14041111.296 9 -14381032.911 7
  14989600.596    14989602.631   -23602215.250 8 -14993087.944 6
 89 11 22 12 15 59.0800000  0  4G13G 6G11G 9
  15837908.794    15837911.375   -46024225.644 9  33804632.777 8
  15887105.353    15887106.264    -1620851.473 9  -4603592.393 8
  15485652.707    15485652.296   -14006566.327 9 -14354114.734 8
  14986144.439    14986145.348   -23620375.947 9 -15007239.140 7
 89 11 22 12 16 29.0800000  0  4G13G 6G11G 9
  15826912.283    15826913.366   -46082018.271 9  33759599.574 8
  15899387.275    15899389.747    -1556306.925 9  -4553297.955 8
  15492303.057    15492303.751   -13971616.922 8 -14326881.427 7
  14982796.278    14982797.312   -23637972.303 8 -15020950.603 7
 89 11 22 12 16 59.0800000  0  4G13G 6G11G 9
  15816002.847    15816004.978   -46139348.041 9  33714927.044 7
  15911767.668    15911768.876    -1491252.921 9  -4502606.526 8
  15499030.068    15499032.017   -13936265.115 9 -14299334.560 7
  14979554.768    14979556.857   -23655002.471 8 -15034220.848 8
 89 11 22 12 17 29.0800000  0  4G13G 6G11G 9
  15805180.914    15805184.935   -46196214.410 9  33670615.593 8
  15924243.130    15924243.936    -1425690.540 9  -4451518.968 8
  15505833.262    15505833.378   -13900513.227 8 -14271475.955 8
  14976423.914    14976423.220   -23671464.954 9 -15047048.770 7
 89 11 22 12 17 59.0800000  0  4G13G 6G11G 9
  15794448.528    15794451.013   -46252617.347 9  33626665.263 8
  15936815.788    15936816.261    -1359620.836 9  -4400036.099 8
  15512712.636    15512713.033   -13864363.189 8 -14243307.093 7
  14973398.872    14973398.268   -23687357.826 8 -15059432.815 6
 89 11 22 12 18 29.0800000  0  4G13G 6G11G 9
  15783803.891    15783806.100   -46308555.904 9  33583076.804 8
  15949484.964    15949485.619    -1293044.371 9  -4348158.359 8
  15519667.034    15519669.300   -13827816.758 9 -14214829.354 7
  14970483.636    14970483.420   -23702679.201 8 -15071371.542 8
 89 11 22 12 18 59.0800000  0  4G13G 6G11G 9
  15773246.722    15773248.907   -46364029.508 9  33539850.625 8
  15962250.019    15962251.448    -1225962.374 9  -4295886.691 7
  15526696.146    15526699.637   -13790876.048 9 -14186044.389 6
  14967676.671    14967677.372   -23717427.670 8 -15082863.866 7
 89 11 22 12 19 29.0800000  0  4G13G 6G11G 9
  15762779.697    15762781.923   -46419037.703 9  33496987.107 8
  15975110.866    15975112.640    -1158376.062 9  -4243222.046 8
  15533800.733    15533802.482   -13753543.376 8 -14156953.995 8
  14964978.726    14964980.551   -23731601.539 9 -15093908.431 7
 89 11 22 12 19 59.0800000  0  4G13G 6G11G 9
  15752400.215    15752402.014   -46473580.323 9  33454486.370 8
  15988068.950    15988070.234    -1090286.530 9  -4190165.275 8
  15540978.624    15540981.566   -13715821.180 9 -14127560.063 6
  14962391.041    14962394.017   -23745199.310 8 -15104504.098 6
 89 11 22 12 20 29.0800000  0  4G13G 6G11G 9
  15742109.127    15742112.251   -46527656.801 9  33412348.864 8
  16001121.379    16001122.096    -1021694.783 9  -4136717.167 8
  15548230.781    15548233.036   -13677711.343 8 -14097864.087 7
  14959914.819    14959913.272   -23758219.314 8 -15114649.564 8
 89 11 22 12 20 59.0800000  0  4G13G 6G11G 9
  15731909.175    15731909.626   -46581266.605 9  33370575.022 8
  16014269.034    16014269.592     -952601.795 9  -4082878.483 8
  15555556.429    15555558.249   -13639216.126 9 -14067867.814 7
  14957546.423    14957547.563   -23770659.905 7 -15124343.513 7
 89 11 22 12 21 29.0800000  0  4G13G 6G11G 9
  15721795.890    15721798.407   -46634409.260 9  33329165.197 8
  16027512.179    16027513.338     -883008.627 9  -4028650.057 8
  15562955.614    15562957.787   -13600337.306 9 -14037572.634 8
  14955290.634    14955290.662   -23782519.521 8 -15133584.769 7
 89 11 22 12 21 59.0800000  0  4G13G 6G11G 9
  15711771.307    15711774.681   -46687084.983 9  33288119.180 8
  16040849.795    16040852.229     -812916.729 9  -3974033.026 8
  15570426.236    15570428.155   -13561077.485 9 -14006980.555 8
  14953143.690    14953145.096   -23793796.800 7 -15142372.264 7
 89 11 22 12 22 29.0800000  0  4G13G 6G11G 9
  15701836.870    15701838.734   -46739293.304 9  33247437.388 8
  16054282.600    16054284.168     -742327.255 9  -3919028.267 9
  15577968.856    15577969.457   -13521438.670 8 -13976093.166 8
  14951109.592    14951109.909   -23804490.352 8 -15150704.903 7
 89 11 22 12 22 59.0800000  0  4G13G 6G11G 9
  15691990.996    15691993.364   -46791033.416 9  33207120.424 7
  16067809.639    16067811.254     -671241.150 9  -3863636.518 8
  15585583.602    15585585.344   -13481422.726 8 -13944911.922 8
  14949185.478    14949186.980   -23814598.306 8 -15158581.218 7
 89 11 22 12 23 29.0800000  0  4G13G 6G11G 9
  15682233.854    15682236.438   -46842305.494 9  33167168.174 8
  16081431.242    16081433.330     -599659.706 9  -3807858.774 8
  15593270.235    15593270.956   -13441032.240 9 -13913438.809 7
  14947374.390    14947375.744   -23824119.270 8 -15166000.160 7
 89 11 22 12 23 59.0800000  0  4G13G 6G11G 9
  15672566.245    15672567.733   -46893108.913 9  33127581.099 7
  16095147.303    16095148.248     -527584.296 9  -3751696.121 9
  15601026.311    15601027.616   -13400269.147 9 -13881675.361 8
  14945675.032    14945675.206   -23833051.930 8 -15172960.673 6
 89 11 22 12 24 29.0800000  0  4G13G 6G11G 9
  15662988.510    15662990.995   -46943443.544 9  33088359.319 7
  16108956.894    16108957.663     -455016.045 9  -3695149.438 9
  15608854.771    15608856.003   -13359135.677 9 -13849623.311 8
  14944086.646    14944086.877   -23841394.953 9 -15179461.730 6
 89 11 22 12 24 59.0800000  0  4G13G 6G11G 9
  15653499.080    15653500.999   -46993309.250 9  33049502.959 7
  16122858.952    16122860.694     -381956.144 9  -3638219.661 9
  15616751.942    15616753.999   -13317633.911 8 -13817284.252 7
  14942611.596    14942610.645   -23849146.663 9 -15185502.025 7
 89 11 22 12 25 29.0800000  0  4G13G 6G11G 9
  15644098.994    15644101.218   -47042705.939 9  33011012.034 8
  16136855.525    16136857.072     -308406.111 9  -3580907.976 7
  15624718.220    15624720.935   -13275766.473 9 -13784660.281 8
  14941248.733    14941250.170   -23856305.872 8 -15191080.633 6
 89 11 22 12 25 59.0800000  0  4G13G 6G11G 9
  15634788.020    15634790.902   -47091633.118 9  32972886.982 7
  16150944.112    16150945.517     -234367.335 9  -3523215.442 8
  15632755.923    15632757.211   -13233535.413 9 -13751752.962 8
  14939999.545    14940001.428   -23862871.332 8 -15196196.579 7
 89 11 22 12 26 29.0800000  0  4G13G 6G11G 9
  15625566.810    15625569.502   -47140091.001 9  32935127.594 8
  16165126.716    16165128.202     -159841.213 9  -3465143.153 8
  15640860.622    15640862.188   -13190943.005 8 -13718564.072 7
  14938864.068    14938864.982   -23868841.654 7 -15200848.786 7
 89 11 22 12 26 59.0800000  0  4G13G 6G11G 9
  15616434.853    15616437.336   -47188079.684 9  32897733.826 7
  16179401.211    16179402.211      -84828.840 9  -3406691.963 9
  15649034.060    15649034.522   -13147991.133 9 -13685095.070 8
  14937842.468    14937842.398   -23874215.441 9 -15205036.134 7
 89 11 22 12 27 29.0800000  0  4G13G 6G11G 9
  15607393.000    15607395.114   -47235598.456 9  32860706.228 8
  16193767.621    16193769.096       -9331.744 9  -3347863.069 8
  15657275.702    15657276.615   -13104682.241 9 -13651347.883 7
  14936933.355    14936932.277   -23878991.616 7 -15208757.826 7
 89 11 22 12 27 59.0800000  0  4G13G 6G11G 9
  15598440.036    15598442.463   -47282647.330 9  32824044.805 8
  16208226.612    16208228.370       66648.790 9  -3288657.479 9
  15665583.108    15665586.541   -13061018.495 9 -13617324.177 8
  14936136.638    14936137.731   -23883168.679 8 -15212012.688 7
 89 11 22 12 28 29.0800000  0  4G13G 6G11G 9
  15589576.175    15589577.813   -47329225.912 9  32787749.806 8
  16222776.843    16222777.185      143111.387 9  -3229076.248 9
  15673959.716    15673963.343   -13017002.009 9 -13583025.635 7
  14935456.024    14935457.452   -23886745.564 9 -15214799.866 7
 89 11 22 12 28 59.0800000  0  4G13G 6G11G 9
  15580802.001    15580804.993   -47375334.292 9  32751821.208 7
  16237418.278    16237419.289      220054.666 9  -3169120.465 8
  15682403.763    15682405.106   -12972635.017 9 -13548453.954 8
  14934889.955    14934891.403   -23889720.686 8 -15217118.159 6
 89 11 22 12 29 29.0800000  0  4G13G 6G11G 9
  15572117.449    15572119.736   -47420972.741 9  32716258.787 7
  16252150.942    16252152.174      297476.992 9  -3108791.405 9
  15690912.230    15690913.605   -12927919.906 9 -13513611.002 8
  14934439.021    14934439.272   -23892093.150 8 -15218966.839 7
 89 11 22 12 29 59.0800000  0  4G13G 6G11G 9
  15563521.034    15563523.418   -47466141.360 9  32681062.454 7
  16266975.619    16266977.097      375376.974 9  -3048090.129 9
  15699486.873    15699488.425   -12882858.666 8 -13478498.360 8
  14934102.247    14934102.638   -23893861.925 7 -15220345.100 7
 89 11 22 12 30 29.0800000  0  4G13G 6G11G 9
  15555015.811    15555018.306   -47510839.922 9  32646232.414 7
  16281890.150    16281891.724      453753.128 9  -2987017.827 8
  15708126.965    15708129.488   -12837453.951 9 -13443118.075 7
  14933880.490    14933882.031   -23895025.744 8 -15221251.977 7
 89 11 22 12 30 59.0800000  0  4G13G 6G11G 9
  15546599.841    15546601.897   -47555067.994 9  32611769.006 7
  16296894.983    16296895.923      532604.161 9  -2925575.467 9
  15716832.508    15716833.439   -12791707.323 9 -13407471.344 8
  14933774.299    14933776.012   -23895583.219 9 -15221686.369 7
 89 11 22 12 31 29.0800000  0  4G13G 6G11G 9
  15538272.255    15538274.699   -47598825.338 9  32577672.372 7
  16311988.984    16311991.060      611928.268 9  -2863764.477 8
  15725602.058    15725605.485   -12745621.438 9 -13371560.275 7
  14933784.520    14933786.031   -23895533.579 7 -15221647.690 6
 89 11 22 12 31 59.0800000  0  4G13G 6G11G 9
  15530035.426    15530037.979   -47642112.382 9  32543942.232 8
  16327174.019    16327175.965      691723.991 9  -2801586.011 9
  15734436.128    15734438.122   -12699198.433 9 -13335386.493 8
  14933909.375    14933910.194   -23894875.862 8 -15221135.185 7
 89 11 22 12 32 29.0800000  0  4G13G 6G11G 9
  15521888.529    15521889.439   -47684929.743 9  32510578.062 8
  16342448.457    16342449.214      771989.577 9  -2739041.410 8
  15743334.641    15743335.453   -12652440.826 9 -13298951.998 8
  14934151.503    14934151.211   -23893608.900 8 -15220147.951 7
 89 11 22 12 32 59.0800000  0  4G13G 6G11G 9
  15513830.049    15513830.907   -47727276.932 9  32477580.272 7
  16357811.584    16357812.871      852723.441 9  -2676131.916 9
  15752294.601    15752295.551   -12605350.920 9 -13262258.577 7
  14934508.116    14934508.667   -23891731.831 7 -15218685.297 6
 89 11 22 12 33 29.0800000  0  4G13G 6G11G 9
  15505860.727    15505862.522   -47769154.517 9  32444948.391 8
  16373263.308    16373265.155      933923.967 9  -2612858.807 9
  15761318.335    15761319.987   -12557931.036 9 -13225308.031 8
  14934981.604    14934980.895   -23889243.785 8 -15216746.573 7
 89 11 22 12 33 59.0800000  0  4G13G 6G11G 9
  15497980.943    15497982.334   -47810562.233 9  32412682.668 7
  16388803.551    16388804.655     1015589.506 9  -2549223.345 9
  15770404.168    15770407.613   -12510183.261 9 -13188101.969 8
  14935570.878    14935572.736   -23886143.522 8 -15214330.803 6
 89 11 22 12 34 29.0800000  0  4G13G 6G11G 9
  15490190.320    15490192.251   -47851500.206 9  32380782.972 8
  16404431.738    16404433.400     1097718.880 9  -2485226.448 9
  15779552.462    15779555.462   -12462109.816 9 -13150642.131 8
  14936277.540    14936278.557   -23882430.078 8 -15211437.210 6
 89 11 22 12 34 59.0800000  0  4G13G 6G11G 9
  15482489.316    15482491.182   -47891968.343 9  32349249.363 8
  16420149.108    16420150.409     1180310.188 9  -2420869.604 8
  15788762.593    15788764.730   -12413712.787 9 -13112930.156 7
  14937101.782    14937101.820   -23878102.474 8 -15208065.050 6
 89 11 22 12 35 29.0800000  0  4G13G 6G11G 9
  15474877.769    15474880.063   -47931967.226 9  32318081.413 7
  16435953.525    16435953.796     1263361.566 9  -2356154.254 8
  15798033.195    15798034.640   -12364994.488 9 -13074967.853 8
  14938041.967    14938043.600   -23873159.910 8 -15204213.713 7
 89 11 22 12 35 59.0800000  0  4G13G 6G11G 9
  15467356.050    15467358.566   -47971497.184 9  32287278.870 8
  16451845.053    16451845.441     1346871.407 9  -2291081.654 8
  15807363.704    15807366.687   -12315957.136 9 -13036756.929 9
  14939100.651    14939099.208   -23867601.609 9 -15199882.568 7
 89 11 22 12 36 29.0800000  0  4G13G 6G11G 9
  15459922.127    15459925.480   -48010557.897 9  32256841.958 8
  16467822.551    16467823.895     1430838.003 9  -2225653.159 8
  15816756.264    15816758.417   -12266603.149 9 -12998299.297 7
  14940273.766    14940275.038   -23861426.816 7 -15195071.062 7
 89 11 22 12 36 59.0800000  0  4G13G 6G11G 9
  15452578.590    15452580.583   -48049149.801 9  32226770.363 7
  16483887.796    16483889.396     1515259.692 9  -2159870.032 9
  15826207.424    15826210.187   -12216934.649 9 -12959596.567 7
  14941566.578    14941567.631   -23854634.475 8 -15189778.334 7
 89 11 22 12 37 29.0800000  0  4G13G 6G11G 9
  15445324.706    15445324.949   -48087272.833 9  32197064.124 7
  16500039.924    16500041.136     1600134.922 9  -2093733.518 8
  15835718.425    15835719.790   -12166954.071 9 -12920650.677 7
  14942978.257    14942978.364   -23847223.777 8 -15184003.763 7
 89 11 22 12 37 59.0800000  0  4G13G 6G11G 9
  15438159.437    15438161.143   -48124927.150 9  32167723.107 7
  16516276.819    16516277.002     1685461.924 9  -2027244.964 9
  15845288.454    15845291.502   -12116663.568 9 -12881463.268 8
  14944504.605    14944506.639   -23839193.889 7 -15177746.697 7
 89 11 22 12 38 29.0800000  0  4G13G 6G11G 9
  15431083.025    15431083.393   -48162113.687 9  32138746.589 7
  16532599.248    16532600.008     1771238.590 9  -1960406.038 8
  15854918.329    15854919.941   -12066065.499 9 -12842036.191 7
  14946151.745    14946152.234   -23830544.416 8 -15171006.854 6
 89 11 22 12 38 59.0800000  0  4G13G 6G11G 9
  15424095.469    15424096.921   -48198832.116 9  32110134.824 7
  16549007.365    16549009.082     1857463.314 9  -1893217.965 8
  15864604.068    15864605.948   -12015161.854 9 -12802371.020 8
  14947915.480    14947914.141   -23821274.420 8 -15163783.496 7
 89 11 22 12 39 29.0800000  0  4G13G 6G11G 9
  15417197.594    15417199.390   -48235083.264 9  32081887.185 7
  16565500.248    16565502.294     1944134.117 9  -1825682.290 9
  15874348.160    15874349.043   -11963955.040 9 -12762469.612 7
  14949798.472    14949797.708   -23811383.564 8 -15156076.341 8
 89 11 22 12 39 59.0800000  0  4G13G 6G11G 9
  15410388.017    15410390.206   -48270866.977 9  32054003.780 8
  16582078.505    16582079.109     2031249.550 9  -1757800.148 9
  15884150.416    15884151.653   -11912447.068 8 -12722333.533 9
  14951798.148    14951798.644   -23800870.603 8 -15147884.432 7
 89 11 22 12 40 29.0800000  0  4G13G 6G11G 9
  15403667.930    15403669.953   -48306183.806 9  32026484.195 7
  16598739.573    16598741.434     2118807.337 9  -1689573.312 8
  15894008.537    15894009.856   -11860640.304 9 -12681964.634 7
  14953917.642    14953916.800   -23789735.455 8 -15139207.698 7
 89 11 22 12 40 59.0800000  0  4G13G 6G11G 9
  15397035.482    15397037.463   -48341034.331 9  31999327.950 7
  16615484.898    16615485.820     2206806.001 9  -1621002.939 9
  15903923.454    15903926.644   -11808537.329 9 -12641364.906 7
  14956153.861    14956156.132   -23777977.255 8 -15130045.486 7
 89 11 22 12 41 29.0800000  0  4G13G 6G11G 9
  15390492.502    15390493.499   -48375418.802 9  31972534.877 6
  16632314.270    16632315.499     2295243.408 9  -1552090.684 9
  15913895.062    15913896.748   -11756140.497 9 -12600536.211 8
  14958510.943    14958511.830   -23765595.536 8 -15120397.403 7
 89 11 22 12 41 59.0800000  0  4G13G 6G11G 9
  15384037.697    15384039.171   -48409337.853 9  31946104.456 7
  16649226.142    16649228.216     2384117.469 9  -1482838.197 9
  15923920.923    15923922.849   -11703452.070 9 -12559480.285 8
  14960985.419    14960985.589   -23752589.736 7 -15110263.019 6
 89 11 22 12 42 29.0800000  0  4G13G 6G11G 9
  15377671.783    15377672.243   -48442791.118 9  31920036.978 6
  16666220.393    16666221.955     2473426.557 9  -1413246.721 9
  15934001.899    15934003.908   -11650473.934 9 -12518198.631 9
  14963578.710    14963581.347   -23738959.392 8 -15099641.961 7
 89 11 22 12 42 59.0800000  0  4G13G 6G11G 9
  15371393.813    15371396.801   -48475779.665 9  31894331.618 7
  16683297.625    16683299.813     2563168.750 9  -1343317.763 9
  15944137.799    15944139.200   -11597208.720 9 -12476693.262 8
  14966292.334    14966293.415   -23724703.897 8 -15088533.799 7
 89 11 22 12 43 29.0800000  0  4G13G 6G11G 9
  15365204.957    15365206.938   -48508303.839 9  31868988.107 8
  16700458.282    16700458.939     2653341.897 9  -1273053.003 9
  15954329.121    15954329.352   -11543658.486 9 -12434965.814 8
  14969124.256    14969124.394   -23709822.990 8 -15076938.289 7
 89 11 22 12 43 59.0800000  0  4G13G 6G11G 9
  15359104.184    15359106.129   -48540363.402 9  31844006.638 8
  16717698.927    16717700.671     2743944.485 9  -1202453.603 8
  15964572.676    15964573.202   -11489825.482 9 -12393018.010 7
  14972076.637    14972075.966   -23694315.678 7 -15064854.684 8
 89 11 22 12 44 29.0800000  0  4G13G 6G11G 9
  15353091.159    15353093.517   -48571959.544 9  31819386.291 8
  16735022.390    16735022.218     2834974.219 9  -1131521.359 8
  15974870.030    15974870.515   -11435711.903 9 -12350851.586 8
  14975144.454    14975145.934   -23678182.125 8 -15052283.090 7
 89 11 22 12 44 59.0800000  0  4G13G 6G11G 9
  15347166.214    15347169.078   -48603093.009 9  31795126.459 7
  16752425.384    16752425.784     2926429.238 9  -1060257.723 9
  15985220.978    15985221.576   -11381319.846 9 -12308468.165 9
  14978334.942    14978335.301   -23661421.671 8 -15039223.005 7
 89 11 22 12 45 29.0800000  0  4G13G 6G11G 9
  15341330.437    15341332.624   -48633764.076 9  31771226.943 7
  16769908.855    16769909.929     3018307.401 9   -988664.357 9
  15995623.016    15995624.544   -11326652.137 9 -12265869.943 8
  14981643.519    14981644.789   -23644034.093 8 -15025674.257 7
 89 11 22 12 45 59.0800000  0  4G13G 6G11G 9
  15335581.553    15335585.157   -48663972.946 9  31747687.571 6
  16787472.865    16787473.987     3110606.736 9   -916742.829 8
  16006077.767    16006080.145   -11271710.463 9 -12223058.262 8
  14985071.997    14985072.427   -23626018.966 8 -15011636.498 8
 89 11 22 12 46 29.0800000  0  4G13G 6G11G 9
  15329920.636    15329924.042   -48693720.588 9  31724507.592 7
  16805116.377    16805117.376     3203324.995 9   -844494.853 9
  16016586.124    16016586.703   -11216497.428 9 -12180035.114 8
  14988618.734    14988620.662   -23607376.157 8 -14997109.650 7
 89 11 22 12 46 59.0800000  0  4G13G 6G11G 9
  15324347.921    15324350.966   -48723006.978 9  31701687.052 7
  16822839.149    16822840.526     3296460.732 9   -771921.571 8
  16027143.207    16027144.076   -11161014.810 9 -12136801.885 8
  14992287.185    14992288.925   -23588105.003 8 -14982093.170 8
 89 11 22 12 47 29.0800000  0  4G13G 6G11G 9
  15318863.729    15318863.988   -48751832.982 8  31679225.236 8
  16840641.474    16840643.473     3390011.666 9   -699024.766 8
  16037751.239    16037753.434   -11105265.143 9 -12093360.608 8
  14996072.860    14996073.471   -23568205.161 8 -14966586.816 7
 89 11 22 12 47 59.0800000  0  4G13G 6G11G 9
  15313464.549    15313466.810   -48780199.157 9  31657121.752 8
  16858523.106    16858524.154     3483975.555 9   -625806.163 8
  16048411.422    16048412.378   -11049251.125 9 -12049713.337 8
  14999979.966    14999979.661   -23547676.899 8 -14950590.766 8
 89 11 22 12 48 29.0800000  0  4G13G 6G11G 9
  15308153.750    15308156.156   -48808106.635 9  31635375.678 7
  16876482.060    16876483.384     3578350.328 9   -552267.399 9
  16059120.638    16059120.983   -10992974.799 9 -12005861.630 8
  15004006.536    15004007.530   -23526520.057 7 -14934104.920 6
 89 11 22 12 48 59.0800000  0  4G13G 6G11G 9
  15302931.441    15302932.774   -48835555.859 9  31613986.676 7
  16894517.702    16894518.934     3673133.626 9   -478410.299 8
  16069878.133    16069880.236   -10936438.477 9 -11961807.359 7
  15008151.391    15008151.186   -23504734.487 8 -14917129.149 7
 89 11 22 12 49 29.0800000  0  4G13G 6G11G 9
  15297794.295    15297796.784   -48862547.324 9  31592954.375 7
  16912631.804    16912632.824     3768323.611 9   -404236.303 9
  16080686.059    16080687.697   -10879644.005 9 -11917551.935 9
  15012417.115    15012417.905   -23482319.792 8 -14899663.165 8
 89 11 22 12 49 59.0800000  0  4G13G 6G11G 9
  15292744.721    15292746.511   -48889081.891 9  31572278.109 8
  16930823.210    16930824.662     3863917.763 9   -329747.369 8
  16091542.274    16091544.324   -10822594.079 9 -11873097.439 7
  15016801.764    15016802.013   -23459276.309 8 -14881707.216 7
 89 11 22 12 50 29.0800000  0  4G13G 6G11G 9
  15287781.949    15287784.996   -48915160.515 9  31551957.093 7
  16949090.694    16949091.218     3959914.364 9   -254944.842 9
  16102447.589    16102447.820   -10765290.598 9 -11828445.371 8
  15021306.114    15021306.607   -23435603.610 8 -14863260.957 7
 89 11 22 12 50 59.0800000  0  4G13G 6G11G 9
  15282906.981    15282907.718   -48940783.054 9  31531991.511 7
  16967434.822    16967436.313     4056311.114 9   -179830.511 9
  16113399.305    16113401.399   -10707735.630 9 -11783597.344 8
  15025930.398    15025931.257   -23411301.487 9 -14844324.249 7
 89 11 22 12 51 29.0800000  0  4G13G 6G11G 9
  15278116.973    15278119.512   -48965950.455 9  31512380.568 8
  16985853.420    16985855.910     4153105.734 9   -104406.151 8
  16124399.569    16124400.074   -10649931.495 9 -11738555.158 8
  15030675.299    15030675.908   -23386370.193 9 -14824897.248 8
 89 11 22 12 51 59.0800000  0  4G13G 6G11G 9
  15273414.143    15273416.287   -48990663.382 9  31493123.769 8
  17004348.601    17004350.177     4250296.418 9    -28673.179 8
  16135445.603    16135448.400   -10591880.650 9 -11693320.736 9
  15035538.176    15035540.969   -23360809.586 9 -14804979.898 7
 89 11 22 12 52 29.0800000  0  4G13G 6G11G 9
  15268799.108    15268800.597   -49014922.517 9  31474220.558 7
  17022918.647    17022920.201     4347880.758 9     47366.542 8
  16146538.789    16146539.906   -10533585.119 9 -11647895.638 8
  15040523.270    15040523.669   -23334619.605 8 -14784572.129 7
 89 11 22 12 52 59.0800000  0  4G13G 6G11G 9
  15264267.932    15264270.605   -49038729.106 9  31455669.986 8
  17041562.021    17041563.771     4445856.506 9    123711.266 8
  16157678.198    16157679.028   -10475046.989 8 -11602281.516 9
  15045626.317    15045626.596   -23307800.298 9 -14763673.974 7
 89 11 22 12 53 29.0800000  0  4G13G 6G11G 9
  15259823.522    15259825.937   -49062083.813 9  31437471.533 6
  17060280.683    17060282.183     4544221.398 9    200359.216 8
  16168863.779    16168865.154   -10416268.772 9 -11556480.315 8
  15050850.617    15050849.967   -23280351.968 9 -14742285.664 7
 89 11 22 12 53 59.0800000  0  4G13G 6G11G 9
  15255465.681    15255467.256   -49084987.351 9  31419624.621 8
  17079073.764    17079074.190     4642973.163 9    277308.617 8
  16180093.531    16180095.484   -10357252.721 9 -11510493.772 8
  15056192.969    15056194.272   -23252274.758 8 -14720407.339 8
 89 11 22 12 54 29.0800000  0  4G13G 6G11G 9
  15251193.328    15251194.502   -49107440.195 9  31402128.915 7
  17097936.895    17097939.838     4742109.754 9    354557.881 9
  16191367.854    16191371.591   -10298001.089 9 -11464323.681 8
  15061655.253    15061656.285   -23223568.668 8 -14698038.972 7
 89 11 22 12 54 59.0800000  0  4G13G 6G11G 9
  15247005.331    15247006.752   -49129443.384 9  31384983.574 7
  17116875.301    17116877.306     4841628.451 9    432104.890 9
  16202688.730    16202690.055   -10238516.159 9 -11417971.798 8
  15067238.848    15067237.288   -23194233.977 8 -14675180.761 7
 89 11 22 12 55 29.0800000  0  4G13G 6G11G 9
  15242903.290    15242905.753   -49150997.714 9  31368187.996 6
  17135885.214    17135887.054     4941527.505 9    509948.287 9
  16214052.388    16214055.146   -10178799.386 8 -11371439.251 8
  15072938.681    15072939.182   -23164270.680 8 -14651832.739 6
 89 11 22 12 55 59.0800000  0  4G13G 6G11G 9
  15238887.437    15238890.126   -49172104.115 9  31351741.472 8
  17154967.576    17154969.213     5041804.352 9    588086.065 9
  16225459.565    16225462.778   -10118853.124 9 -11324727.882 8
  15078760.728    15078760.609   -23133679.081 8 -14627995.164 7
 89 11 22 12 56 29.0800000  0  4G13G 6G 3G 9
  15234956.695    15234957.338   -49192763.383 9  31335643.363 7
  17174121.310    17174123.575     5142456.814 9    666516.527 9
                                 -73599642.757 9 -11241631.328 8
  15084701.245    15084702.174   -23102459.372 8 -14603668.105 8
 89 11 22 12 56 59.0800000  0  4G13G 6G 3G 9
  15231109.430    15231111.993   -49212976.704 9  31319892.727 8
  17193346.117    17193347.568     5243482.430 9    745237.760 9
  18606375.278    18606377.948   -73685431.347 8  93260701.479 9
  15090762.717    15090762.220   -23070612.064 8 -14578852.031 8
 89 11 22 12 57 29.0800000  0  4G13G 6G 3G 9
  15227347.961    15227348.439   -49232744.794 9  31304489.030 7
  17212641.163    17212642.846     5344878.958 9    824248.015 8
  18590095.277    18590097.920   -73770983.335 9  93194037.623 9
  15096942.460    15096941.811   -23038137.250 8 -14553546.993 8
 89 11 22 12 57 59.0800000  0  4G13G 6G 3G 9
  15223670.958    15223670.846   -49252068.514 9  31289431.613 7
  17232005.944    17232007.147     5446643.675 9    903545.172 8
  18573859.726    18573862.987   -73856295.785 8  93127560.419 8
  15103240.461    15103241.815   -23005035.893 9 -14527753.734 7
 89 11 22 12 58 29.0800000  0  4G13G 6G 3G 9
  15220078.195    15220080.701   -49270948.686 9  31274719.814 8
  17251441.035    17251442.439     5548774.523 9    983127.632 8
  18557673.401    18557674.138   -73941367.987 8  93061270.398 8
  15109658.711    15109659.943   -22971307.846 9 -14501472.142 7
 89 11 22 12 58 59.0800000  0  4G13G 6G 3G 9
  15216569.547    15216569.846   -49289386.198 9  31260352.935 7
  17270945.214    17270946.378     5651269.192 9   1062993.599 8
  18541531.069    18541531.343   -74026198.634 9  92995168.620 8
  15116195.801    15116198.352   -22936953.337 8 -14474702.396 8
 89 11 22 12 59 29.0800000  0  4G13G 6G 3G 9
  15213144.373    15213145.722   -49307382.093 9  31246330.177 7
  17290518.911    17290519.860     5754125.512 9   1143141.374 9
  18525434.683    18525434.207   -74110786.910 9  92929255.688 7
  15122852.749    15122853.601   -22901972.779 9 -14447444.830 7
 89 11 22 12 59 59.0800000  0  4G13G 6G 3G 9
  15209804.118    15209806.546   -49324937.455 9  31232650.690 7
  17310160.080    17310160.638     5857340.910 9   1223568.935 9
  18509383.705    18509384.734   -74195132.499 9  92863531.849 7
  15129628.887    15129630.049   -22866366.790 9 -14419699.929 8
 89 11 22 13  0 29.0800000  0  4G13G 6G 3G 9
  15206547.507    15206548.522   -49342053.475 9  31219313.538 8
  17329868.904    17329869.662     5960912.968 9   1304274.412 9
  18493379.432    18493380.764   -74279234.153 9  92797998.099 8
  15136523.442    15136523.283   -22830135.871 9 -14391468.053 9
 89 11 22 13  0 59.0800000  0  4G13G 6G 3G 9
  15203373.881    15203375.758   -49358730.646 9  31206318.361 7
  17349645.046    17349646.415     6064839.300 9   1385255.942 9
  18477421.805    18477422.790   -74363091.372 9  92732654.782 7
  15143536.880    15143537.811   -22793280.402 8 -14362749.519 8
 89 11 22 13  1 29.0800000  0  4G13G 6G 3G 9
  15200283.893    15200285.220   -49374970.252 9  31193664.137 7
  17369488.007    17369489.524     6169117.554 8   1466511.694 9
  18461510.916    18461512.036   -74446703.184 9  92667502.713 8
  15150669.291    15150669.042   -22755800.981 9 -14333544.768 8
 89 11 22 13  1 59.0800000  0  4G13G 6G 3G 9
  15197276.806    15197278.034   -49390773.370 9  31181350.040 7
  17389398.281    17389400.147     6273745.244 9   1548039.731 9
  18445647.280    18445647.586   -74530068.893 9  92602542.437 8
  15157919.467    15157920.037   -22717698.058 8 -14303854.191 8
 89 11 22 13  2 29.0800000  0  4G13G 6G 3G 9
  15194351.936    15194352.682   -49406140.829 9  31169375.403 7
  17409375.305    17409375.557     6378720.181 9   1629838.356 9
  18429829.304    18429831.999   -74613187.531 9  92537774.671 8
  15165289.539    15165289.775   -22678972.220 8 -14273678.225 7
 89 11 22 13  2 59.0800000  0  4G13G 6G 3G 9
  15191510.036    15191512.236   -49421073.683 9  31157739.424 8
  17429416.170    17429417.620     6484039.593 9   1711905.414 9
  18414060.337    18414061.834   -74696058.683 9  92473199.778 8
  15172775.718    15172777.848   -22639624.287 8 -14243017.518 7
 89 11 22 13  3 29.0800000  0  4G13G 6G 3G 9
  15188749.952    15188753.581   -49435573.133 9  31146441.167 8
  17449522.508    17449524.836     6589701.085 9   1794239.011 9
  18398337.887    18398338.759   -74778681.576 9  92408818.306 7
  15180381.125    15180383.100   -22599654.816 9 -14211872.482 8
 89 11 22 13  3 59.0800000  0  4G13G 6G 3G 9
  15186074.491    15186075.405   -49449640.447 9  31135479.630 8
  17469693.709    17469696.662     6695702.200 9   1876837.254 9
  18382662.383    18382663.759   -74861055.274 9  92344631.013 8
  15188106.266    15188107.137   -22559064.212 8 -14180243.450 8
 89 11 22 13  4 29.0800000  0  4G13G 6G 3G 9
  15183479.500    15183480.434   -49463276.561 9  31124854.109 8
  17489929.493    17489931.400     6802040.475 9   1959698.232 9
  18367035.165    18367036.011   -74943179.304 9  92280638.264 8
  15195949.184    15195949.329   -22517853.511 7 -14148131.230 9
 89 11 22 13  4 59.0800000  0  4G13G 6G 3G 9
  15180965.474    15180968.133   -49476482.715 9  31114563.596 7
  17510229.266    17510231.059     6908713.613 9   2042820.143 8
  18351455.175    18351455.253   -75025052.780 9  92216840.754 9
  15203908.455    15203910.948   -22476023.332 8 -14115536.299 7
 89 11 22 13  5 29.0800000  0  4G13G 6G 3G 9
  15178535.615    15178536.431   -49489260.085 9  31104607.219 8
  17530591.325    17530592.568     7015718.684 9   2126200.685 8
  18335922.950    18335923.237   -75106675.282 9  92153238.810 8
  15211985.726    15211987.108   -22433574.493 8 -14082459.299 8
 89 11 22 13  5 59.0800000  0  4G13G 6G 3G 9
  15176184.837    15176186.904   -49501609.194 8  31094984.574 7
  17551016.835    17551018.071     7123053.482 9   2209838.165 9
  18320438.453    18320440.266   -75188046.028 9  92089833.021 8
  15220180.987    15220183.081   -22390507.484 8 -14048900.592 7
 89 11 22 13  6 29.0800000  0  4G13G 6G 3G 9
  15173916.061    15173917.331   -49513531.426 9  31085694.522 7
  17571504.555    17571504.840     7230715.374 9   2293730.523 8
  18305001.092    18305004.032   -75269164.238 8  92026624.032 7
  15228494.494    15228495.126   -22346823.483 8 -14014861.143 8
 89 11 22 13  6 59.0800000  0  4G13G 6G 3G 9
  15171726.828    15171730.937   -49525028.379 9  31076735.884 7
  17592052.810    17592054.550     7338701.818 9   2377875.775 8
  18289613.547    18289614.971   -75350029.418 9  91963612.226 8
  15236923.782    15236925.260   -22302523.239 8 -13980341.488 8
 89 11 22 13  7 29.0800000  0  4G13G 6G 3G 9
  15169620.697    15169622.559   -49536100.812 9  31068108.028 7
  17612663.131    17612664.627     7447010.413 8   2462272.050 9
  18274273.703    18274275.096   -75430640.911 8  91900798.094 8
  15245471.521    15245472.025   -22257607.486 9 -13945342.203 7
 89 11 22 13  7 59.0800000  0  4G13G 6G 3G 9
  15167594.126    15167596.543   -49546749.869 9  31059810.082 8
  17633334.224    17633336.584     7555638.346 9   2546917.158 8
  18258982.101    18258983.407   -75510997.937 8  91838182.241 7
  15254137.027    15254135.913   -22212077.223 8 -13909864.093 7
 89 11 22 13  8 29.0800000  0  4G13G 6G 3G 9
  15165647.605    15165651.235   -49556977.062 9  31051840.838 8
  17654066.427    17654068.689     7664583.301 8   2631809.294 8
  18243739.299    18243740.210   -75591100.034 9  91775765.020 8
  15262917.497    15262918.364   -22165933.324 8 -13873907.802 9
 89 11 22 13  8 59.0800000  0  4G13G 6G 3G 9
  15163782.864    15163785.712   -49566783.420 9  31044199.526 7
  17674857.565    17674860.012     7773842.490 9   2716946.294 9
  18228545.302    18228547.505   -75670946.550 9  91713546.959 8
  15271812.932    15271815.629   -22119176.759 8 -13837474.144 8
 89 11 22 13  9 29.0800000  0  4G13G 6G 3G 9
  15161994.799    15161997.919   -49576169.703 8  31036885.561 7
  17695708.671    17695708.996     7883413.530 9   2802326.303 9
  18213399.705    18213400.672   -75750536.688 9  91651528.680 8
  15280828.138    15280829.781   -22071808.561 9 -13800563.856 8
 89 11 22 13  9 59.0800000  0  4G13G 6G 3G 9
  15160289.295    15160291.666   -49585137.837 9  31029897.421 7
  17716618.365    17716619.996     7993293.501 9   2887947.028 9
  18198302.913    18198304.973   -75829870.304 9  91589710.271 9
  15289959.023    15289959.453   -22023829.898 8 -13763177.901 7
 89 11 22 13 10 29.0800000  0  4G13G 6G 3G 9
  15158661.517    15158663.648   -49593689.457 8  31023233.834 7
  17737585.448    17737587.499     8103479.942 9   2973806.566 9
  18183254.773    18183257.641   -75908946.682 9  91528092.322 8
  15299203.579    15299205.100   -21975241.514 8 -13725316.830 8
 89 11 22 13 10 59.0800000  0  4G13G 6G 3G 9
  15157114.014    15157115.131   -49601825.173 9  31016894.317 8
  17758612.019    17758613.009     8213970.717 9   3059903.235 9
  18168254.877    18168257.163   -75987765.158 9  91466675.342 8
  15308567.114    15308566.821   -21926044.277 9 -13686981.339 8
 89 11 22 13 11 29.0800000  0  4G13G 6G 3G 9
  15155645.067    15155647.198   -49609546.276 9  31010877.881 8
  17779693.966    17779696.303     8324762.761 8   3146234.668 9
  18153306.804    18153307.890   -76066325.087 8  91405459.850 8
  15318043.329    15318043.885   -21876239.538 8 -13648172.451 7
 89 11 22 13 11 59.0800000  0  4G13G 6G 3G 9
  15154254.733    15154255.575   -49616853.990 9  31005183.565 8
  17800834.311    17800836.992     8435853.511 9   3232798.853 9
  18138407.289    18138408.240   -76144626.013 9  91344446.156 7
  15327636.593    15327637.641   -21825828.344 8 -13608891.024 7
 89 11 22 13 12 29.0800000  0  4G13G 6G 3G 9
  15152941.560    15152943.816   -49623749.294 8  30999810.624 8
  17822031.153    17822032.689     8547240.646 8   3319594.004 8
  18123556.033    18123557.704   -76222666.917 9  91283635.041 8
  15337344.807    15337345.010   -21774811.558 8 -13569137.710 7
 89 11 22 13 12 59.0800000  0  4G13G 6G 3G 9
  15151707.957    15151709.776   -49630234.328 9  30994757.359 8
  17843282.614    17843284.717     8658921.048 9   3406617.664 8
  18108755.066    18108756.256   -76300448.334 9  91223026.120 7
  15347166.789    15347169.479   -21723190.975 9 -13528913.903 9
 89 11 22 13 13 29.0800000  0  4G13G 6G 3G 9
  15150552.412    15150554.215   -49636309.704 9  30990023.320 8
  17864590.455    17864592.606     8770892.574 9   3493868.165 9
  18094004.070    18094004.457   -76377968.723 9  91162620.618 7
  15357105.534    15357106.405   -21670967.225 8 -13488220.076 7
 89 11 22 13 13 59.0800000  0  4G13G 6G 3G 9
  15149471.783    15149475.336   -49641976.869 8  30985607.358 7
  17885952.768    17885953.656     8883152.262 9   3581343.214 8
  18079300.835    18079302.291   -76455227.938 9  91102418.624 8
  15367158.337    15367159.508   -21618141.628 8 -13447057.294 8
 89 11 22 13 14 29.0800000  0  4G13G 6G 3G 9
  15148472.251    15148473.729   -49647237.092 9  30981508.496 7
  17907368.665    17907369.610     8995697.442 9   3669040.722 8
  18064649.156    18064649.966   -76532225.571 9  91042420.466 7
  15377325.141    15377325.242   -21564715.525 9 -13405426.573 7
 89 11 22 13 14 59.0800000  0  4G13G 6G 3G 9
  15147548.864    15147550.940   -49652091.971 8  30977725.480 8
  17928839.385    17928840.454     9108525.537 9   3756958.681 9
  18050046.269    18050047.280   -76608961.273 8  90982626.422 9
  15387605.450    15387606.526   -21510690.159 8 -13363328.893 8
 89 11 22 13 15 29.0800000  0  4G13G 6G 3G 9
  15146701.430    15146701.354   -49656543.321 8  30974256.910 8
  17950363.587    17950365.401     9221633.816 9   3845094.961 8
  18035494.099    18035495.892   -76685434.352 9  90923037.038 8
  15397999.604    15398001.583   -21456066.809 8 -13320765.251 7
 89 11 22 13 15 59.0800000  0  4G13G 6G 3G 9
  15145930.460    15145931.741   -49660592.106 9  30971102.018 8
  17971940.289    17971942.249     9335019.631 9   3933447.505 9
  18020991.888    18020993.169   -76761644.395 9  90863652.607 8
  15408507.627    15408509.060   -21400846.832 9 -13277736.726 8
 89 11 22 13 16 29.0800000  0  4G13G 6G 3G 9
  15145236.223    15145238.289   -49664239.246 9  30968260.097 7
  17993569.522    17993571.009     9448680.341 9   4022014.253 9
  18006540.725    18006540.225   -76837590.902 9  90804473.508 8
  15419129.900    15419131.463   -21345031.390 8 -13234244.179 9
 89 11 22 13 16 59.0800000  0  4G13G 6G 3G 9
  15144618.483    15144620.967   -49667486.791 9  30965729.556 7
  18015250.319    18015251.605     9562613.116 9   4110792.991 9
  17992138.039    17992139.281   -76913273.277 9  90745500.227 8
  15429863.628    15429865.092   -21288622.056 9 -13190288.861 8
 89 11 22 13 17 29.0800000  0  4G13G 6G 3G 9
  15144076.154    15144078.073   -49670335.763 9  30963509.595 7
  18036982.466    18036983.790     9676815.581 8   4199781.900 8
  17977787.000    17977788.143   -76988691.164 9  90686733.012 8
  15440712.872    15440711.772   -21231619.837 8 -13145871.557 8
 89 11 22 13 17 59.0800000  0  4G13G 6G 3G 9
  15143610.271    15143611.771   -49672787.958 9  30961598.786 7
  18058764.649    18058766.856     9791284.595 9   4288978.491 7
  17963485.853    17963486.691   -77063844.551 9  90628171.923 8
  15451670.574    15451671.594   -21174026.740 9 -13100993.829 7
 89 11 22 13 18 29.0800000  0  4G13G 6G 3G 9
  15143218.919    15143220.603   -49674844.190 9  30959996.529 6
  18080598.316    18080599.785     9906017.725 8   4378380.910 8
  17949234.347    17949234.882   -77138732.718 7  90569817.513 8
  15462741.664    15462743.380   -21115843.754 9 -13055656.456 8
 89 11 22 13 18 59.0800000  0  4G13G 6G 3G 9
  15142902.375    15142903.392   -49676506.257 9  30958701.432 7
  18102480.271    18102481.301    10021012.055 9   4467986.850 8
  17935034.871    17935035.647   -77213355.260 9  90511670.084 7
  15473925.987    15473926.691   -21057072.643 8 -13009860.795 7
 89 11 22 13 19 29.0800000  0  4G13G 6G 3G 9
  15142660.738    15142662.881   -49677775.802 9  30957712.180 8
  18124412.553    18124413.907    10136265.005 9   4557794.313 8
  17920885.268    17920886.125   -77287711.784 9  90453729.964 8
  15485220.699    15485222.695   -20997714.667 9 -12963607.837 7
 89 11 22 13 19 59.0800000  0  4G13G 6G 3G 9
  15142493.642    15142495.460   -49678653.965 9  30957027.879 8
  18146393.049    18146394.861    10251773.769 9   4647801.095 8
  17906785.798    17906787.137   -77361801.908 9  90395997.424 8
  15496628.997    15496630.113   -20937771.340 9 -12916898.762 7
 89 11 22 13 20 29.0800000  0  4G13G 6G 3G 9
  15142400.340    15142402.862   -49679141.938 8  30956647.662 7
  18168422.925    18168423.745    10367535.823 9   4738005.264 8
  17892737.717    17892739.717   -77435625.285 9  90338472.707 9
  15508145.703    15508147.415   -20877244.264 9 -12869734.822 8
 89 11 22 13 20 59.0800000  0  4G13G 6G 3G 9
  15142382.503    15142383.225   -49679241.293 9  30956570.228 7
  18190497.568    18190500.244    10483548.740 9   4828404.891 8
  17878741.665    17878741.901   -77509180.813 9  90281156.698 8
  15519776.125    15519777.085   -20816134.538 9 -12822116.861 8
 89 11 22 13 21 29.0800000  0  4G13G 6G 3G 9
  15142436.390    15142438.048   -49678953.565 9  30956794.453 7
  18212621.704    18212624.204    10599809.100 9   4918997.325 9
  17864794.769    17864794.761   -77582469.223 9  90224048.843 8
  15531515.015    15531516.377   -20754444.404 9 -12774046.649 7
 89 11 22 13 21 59.0800000  0  4G13G 6G 3G 9
  15142564.980    15142566.932   -49678280.143 9  30957319.207 7
  18234791.878    18234794.391    10716314.475 8   5009780.686 8
  17850899.298    17850900.077   -77655489.744 8  90167149.724 9
  15543363.892    15543364.422   -20692175.231 8 -12725525.213 7
 89 11 22 13 22 29.0800000  0  4G13G 6G 3G 9
  15142766.289    15142767.774   -49677222.646 7  30958143.239 7
  18257007.549    18257010.319    10833062.136 8   5100752.825 9
  17837054.164    17837056.097   -77728241.900 9  90110459.735 9
  15555323.627    15555323.342   -20629328.401 9 -12676553.687 8
 89 11 22 13 22 59.0800000  0  4G13G 6G 3G 9
  15143039.316    15143041.636   -49675782.795 9  30959265.206 7
  18279269.498    18279273.328    10950049.008 8   5191911.361 8
  17823260.907    17823263.040   -77800725.770 9  90053978.804 7
  15567391.342    15567392.721   -20565905.989 9 -12627133.641 7
 89 11 22 13 23 29.0800000  0  4G13G 6G 3G 9
  15143386.497    15143387.937   -49673961.944 9  30960684.060 7
  18301577.008    18301579.143    11067272.688 9   5283254.435 8
  17809519.679    17809520.013   -77872940.897 9  89997707.290 8
  15579570.105    15579571.604   -20501909.535 9 -12577266.295 8
 89 11 22 13 23 59.0800000  0  4G13G 6G 3G 9
  15143806.050    15143808.461   -49671761.549 9  30962398.667 7
  18323929.053    18323930.942    11184730.528 9   5374779.974 7
  17795829.320    17795829.739   -77944886.542 9  89941645.735 7
  15591857.689    15591858.196   -20437340.432 9 -12526952.717 7
 89 11 22 13 24 29.0800000  0  4G13G 6G 3G 9
  15144294.989    15144297.679   -49669183.154 8  30964407.803 7
  18346324.820    18346326.940    11302419.398 9   5466485.556 9
  17782189.052    17782191.925   -78016562.817 9  89885794.080 8
  15604253.946    15604254.192   -20372200.530 9 -12476194.356 8
 89 11 22 13 24 59.0800000  0  4G13G 6G 3G 9
  15144858.655    15144859.802   -49666228.062 9  30966710.472 7
  18368763.532    18368764.691    11420336.712 9   5558369.135 8
  17768601.411    17768602.480   -78087969.346 9  89830152.633 8
  15616757.767    15616756.913   -20306491.862 9 -12424992.800 7
 89 11 22 13 25 29.0800000  0  4G13G 6G 3G 9
  15145491.991    15145493.728   -49662898.037 8  30969305.298 7
  18391244.445    18391246.752    11538479.553 9   5650428.444 8
  17755063.168    17755064.477   -78159106.011 9  89774721.470 9
  15629368.661    15629370.475   -20240215.920 9 -12373349.234 8
 89 11 22 13 25 59.0800000  0  4G13G 6G 3G 9
  15146197.400    15146198.055   -49659194.709 9  30972191.023 8
  18413768.633    18413772.196    11656845.006 9   5742661.244 8
  17741577.805    17741580.059   -78229972.517 9  89719500.840 8
  15642088.589    15642090.136   -20173374.931 8 -12321265.357 7
 89 11 22 13 26 29.0800000  0  4G13G 6G 3G 9
  15146972.325    15146973.185   -49655119.059 8  30975366.866 7
  18436334.571    18436337.601    11775430.708 9   5835065.637 8
  17728144.157    17728145.575   -78300568.142 9  89664491.254 8
  15654915.371    15654916.147   -20105970.018 8 -12268742.083 7
 89 11 22 13 26 59.0800000  0  4G13G 6G 3G 9
  15147817.850    15147819.069   -49650673.054 9  30978831.278 8
  18458945.632    18458945.334    11894233.718 8   5927639.369 8
  17714762.525    17714763.433   -78370893.013 9  89609692.642 8
  15667848.742    15667849.713   -20038003.165 8 -12215780.917 8
 89 11 22 13 27 29.0800000  0  4G13G 6G 3G 9
  15148734.299    15148735.737   -49645858.386 8  30982582.979 7
  18481591.151    18481593.740    12013251.123 9   6020380.131 9
  17701431.460    17701433.041   -78440947.082 9  89555105.042 9
  15680888.930    15680889.888   -19969476.646 8 -12162383.652 8
 89 11 22 13 27 59.0800000  0  4G13G 6G 3G 9
  15149720.288    15149722.129   -49640676.791 9  30986620.605 8
  18504277.797    18504284.075    12132480.107 8   6113285.773 9
  17688151.483    17688153.025   -78510729.722 9  89500728.942 9
  15694035.574    15694036.473   -19900391.957 9 -12108551.430 7
 89 11 22 13 28 29.0800000  0  4G13G 6G 3G 9
  15150776.347    15150777.799   -49635129.266 8  30990943.358 7
  18527009.905    18527012.273    12251917.885 8   6206354.102 9
  17674923.964    17674925.096   -78580240.974 9  89446564.336 8
  15707288.592    15707289.531   -19830751.205 8 -12054285.921 7
 89 11 22 13 28 59.0800000  0  4G13G 6G 3G 9
  15151900.893    15151902.155   -49629217.313 9  30995550.091 8
  18549776.166    18549777.258    12371561.837 9   6299583.087 9
  17661748.386    17661750.085   -78649480.326 9  89392611.627 8
  15720645.158    15720646.492   -19760556.075 8 -11999588.433 8
 89 11 22 13 29 29.0800000  0  4G13G 6G 3G 9
  15153095.087    15153096.938   -49622943.528 9  31000438.755 7
  18572583.401    18572584.173    12491408.799 9   6392970.257 8
  17648625.428    17648625.482   -78718448.377 8  89338870.302 9
  15734107.175    15734108.145   -19689808.923 9 -11944460.794 7
 89 11 22 13 29 59.0800000  0  4G13G 6G 3G 9
  15154357.859    15154359.347   -49616309.020 9  31005608.504 6
  18595425.059    18595430.403    12611456.187 9   6486513.611 9
  17635552.542    17635553.051   -78787144.091 9  89285341.175 7
  15747674.608    15747676.418   -19618511.431 9 -11888904.323 7
 89 11 22 13 30 29.0800000  0  4G13G 6G 3G 9
  15155688.456    15155689.954   -49609315.332 9  31011058.129 8
  18618308.342    18618311.801    12731701.139 9   6580210.922 8
  17622532.265    17622532.810   -78855567.552 9  89232024.184 8
  15761347.437    15761348.226   -19546665.655 8 -11832920.612 8
 89 11 22 13 30 59.0800000  0  4G13G 6G 3G 9
  15157086.671    15157088.792   -49601963.789 8  31016786.600 7
  18641231.072    18641231.572    12852140.836 9   6674059.973 8
  17609563.405    17609564.334   -78923718.686 9  89178919.391 8
  15775122.655    15775124.590   -19474273.533 9 -11776511.177 7
 89 11 22 13 31 29.0800000  0  4G13G 6G 3G 9
  15158553.368    15158556.340   -49594255.733 9  31022792.881 7
  18664187.462    18664184.746    12972772.501 9   6768058.632 8
  17596646.346    17596647.085   -78991597.433 9  89126026.840 8
  15789003.548    15789003.962   -19401337.153 9 -11719677.653 8
 89 11 22 13 31 59.0800000  0  4G13G 6G 3G 9
  15160088.930    15160090.225   -49586193.006 9  31029075.537 7
  18687176.328    18687177.421    13093593.218 9   6862204.572 8
  17583780.944    17583781.985   -79059203.520 9  89073346.789 8
  15802985.470    15802986.581   -19327858.585 8 -11662421.644 9
 89 11 22 13 32 29.0800000  0  4G13G 6G 3G 9
  15161689.482    15161691.321   -49577777.787 8  31035632.861 8
  18710201.176    18710203.964    13214600.134 8   6956495.625 9
  17570968.007    17570970.290   -79126536.977 9  89020879.169 9
  15817070.702    15817071.140   -19253839.960 9 -11604744.807 7
 89 11 22 13 32 59.0800000  0  4G13G 6G 3G 9
  15163357.441    15163358.946   -49569011.126 8  31042464.038 7
  18733265.306    18733263.465    13335790.471 8   7050929.589 8
  17558207.400    17558208.184   -79193597.425 9  88968624.281 8
  15831258.433    15831258.230   -19179283.320 9 -11546648.744 8
 89 11 22 13 33 29.0800000  0  4G13G 6G 3G 9
  15165093.246    15165094.693   -49559895.355 8  31049567.235 8
  18756358.393    18756366.759    13457161.248 9   7145504.106 8
  17545497.931    17545499.025   -79260384.936 9  88916582.081 8
  15845547.640    15845548.009   -19104190.764 8 -11488135.084 7
 89 11 22 13 33 59.0800000  0  4G13G 6G 3G 9
  15166892.247    15166896.351   -49550431.139 8  31056941.954 7
  18779493.248    18779493.687    13578709.821 9   7240217.259 9
  17532840.553    17532841.838   -79326899.283 9  88864752.708 8
  15859938.646    15859940.013   -19028564.388 9 -11429205.471 8
 89 11 22 13 34 29.0800000  0  4G13G 6G 3G 9
  15168760.493    15168762.216   -49540620.817 9  31064586.372 7
  18802653.671    18802654.626    13700433.121 9   7335066.478 8
  17520234.817    17520235.763   -79393140.658 9  88813136.040 7
  15874431.521    15874432.321   -18952406.633 9 -11369861.764 8
 89 11 22 13 34 59.0800000  0  4G13G 6G 3G 9
  15170692.953    15170694.744   -49530466.248 9  31072499.026 7
  18825851.624    18825849.062    13822328.347 8   7430049.713 8
  17507682.220    17507683.339   -79459108.953 8  88761732.175 8
  15889024.783    15889024.248   -18875719.521 9 -11310105.593 8
 89 11 22 13 35 29.0800000  0  4G13G 6G 3G 9
  15172690.581    15172692.265   -49519968.679 8  31080678.952 8
  18849071.144    18849080.034    13944392.832 8   7525164.805 8
  17495179.804    17495182.236   -79524803.683 9  88710541.471 9
  15903718.276    15903718.919   -18798504.892 9 -11249938.360 7
 89 11 22 13 35 59.0800000  0  4G13G 6G 3G 9
  15174751.770    15174754.608   -49509130.229 9  31089124.498 8
  18872337.429    18872338.699    14066623.533 8   7620409.432 9
  17482731.609    17482732.033   -79590225.020 9  88659563.817 8
  15918512.301    15918512.068   -18720765.323 9 -11189362.083 8
 89 11 22 13 36 29.0800000  0  4G13G12G 3G 9
  15176879.846    15176882.475   -49497951.616 9  31097835.112 8
                                 -87989498.994 9   7742296.065 9
  17470333.517    17470336.625   -79655372.847 9  88608799.275 8
  15933403.704    15933404.227   -18642502.865 9 -11128378.377 7
 89 11 22 13 36 59.0800000  0  4G13G12G 3G 9
  15179071.974    15179073.525   -49486435.533 9  31106808.686 8
  15289774.304    15289775.443   -88015909.997 9 111532638.092 8
  17457988.719    17457989.968   -79720247.129 9  88558247.889 8
  15948395.751    15948397.215   -18563719.893 8 -11066989.067 8
 89 11 22 13 37 29.0800000  0  4G13G12G 3G 9
  15181326.702    15181329.334   -49474583.097 9  31116044.350 7
  15284858.458    15284860.589   -88041740.024 9 111512510.806 8
  17445695.654    17445696.484   -79784847.814 9  88507909.696 8
  15963486.670    15963487.614   -18484418.502 8 -11005195.792 7
 89 11 22 13 37 59.0800000  0  4G13G12G 3G 9
  15183645.931    15183647.444   -49462395.795 9  31125540.961 8
  15280053.755    15280057.061   -88066982.915 9 111492841.016 8
  17433453.828    17433455.477   -79849174.885 9  88457784.707 9
  15978674.658    15978676.959   -18404600.784 9 -10943000.181 8
 89 11 22 13 38 29.0800000  0  4G13G12G 3G 9
  15186028.552    15186029.781   -49449875.271 8  31135297.225 7
  15275363.455    15275365.307   -88091637.491 9 111473629.641 7
  17421265.046    17421266.937   -79913228.344 9  88407872.916 8
  15993962.201    15993962.696   -18324269.513 9 -10880404.382 8
 89 11 22 13 38 59.0800000  0  4G13G12G 3G 9
  15188474.160    15188474.712   -49437023.721 8  31145311.423 7
  15270784.080    15270786.094   -88115702.097 9 111454878.000 8
  17409128.993    17409129.669   -79977008.161 9  88358174.357 8
  16009346.347    16009346.977   -18243426.849 9 -10817410.112 8
 89 11 22 13 39 29.0800000  0  4G13G12G 3G 9
  15190982.613    15190984.428   -49423842.183 9  31155582.769 7
  15266316.609    15266320.159   -88139175.538 8 111436587.006 8
  17397043.505    17397044.313   -80040514.331 9  88308689.022 8
  16024826.574    16024827.810   -18162075.020 9 -10754019.097 8
 89 11 22 13 39 59.0800000  0  4G13G12G 3G 9
  15193553.990    15193554.801   -49410333.008 9  31166109.402 8
  15261963.457    15261964.488   -88162056.066 9 111418758.026 8
  17385011.140    17385013.295   -80103746.865 9  88259416.912 8
  16040403.495    16040404.050   -18080216.527 9 -10690233.280 8
 89 11 22 13 40 29.0800000  0  4G13G12G 3G 9
  15196185.495    15196188.198   -49396497.111 8  31176890.610 8
  15257722.089    15257723.990   -88184342.021 9 111401392.342 8
  17373030.257    17373032.522   -80166705.665 9  88210358.110 8
  16056077.049    16056077.409   -17997853.489 9 -10626054.326 7
 89 11 22 13 40 59.0800000  0  4G13G12G 3G 9
  15198880.133    15198882.738   -49382336.684 8  31187924.701 7
  15253594.305    15253596.051   -88206032.120 9 111384490.962 7
  17361102.000    17361102.696   -80229391.088 9  88161512.334 8
  16071845.183    16071847.260   -17914988.659 9 -10561484.349 8
 89 11 22 13 41 29.0800000  0  4G13G12G 3G 9
  15201637.171    15201638.191   -49367853.256 9  31199210.506 6
  15249581.040    15249582.955   -88227124.854 9 111368055.069 8
  17349225.111    17349226.286   -80291802.890 9  88112879.768 9
  16087708.892    16087709.940   -17831624.313 9 -10496525.146 8
 89 11 22 13 41 59.0800000  0  4G13G12G 3G 9
  15204454.032    15204456.747   -49353048.903 9  31210746.365 7
  15245680.713    15245682.003   -88247618.602 8 111352085.897 7
  17337400.024    17337402.333   -80353941.306 9  88064460.220 8
  16103668.402    16103668.745   -17747762.898 9 -10431178.604 7
 89 11 22 13 42 29.0800000  0  4G13G12G 3G 9
  15207331.941    15207333.715   -49337924.982 9  31222531.254 7
  15241895.820    15241897.851   -88267511.997 9 111336584.544 8
  17325628.596    17325629.168   -80415806.102 9  88016253.871 8
  16119720.494    16119721.099   -17663406.528 9 -10365446.372 8
 89 11 22 13 42 59.0800000  0  4G13G12G 3G 9
  15210270.469    15210272.711   -49322483.322 8  31234563.725 8
  15238224.751    15238226.677   -88286803.598 8 111321552.120 8
  17313908.201    17313909.063   -80477397.457 9  87968260.612 9
  16135866.604    16135868.912   -17578557.956 9 -10299330.624 8
 89 11 22 13 43 29.0800000  0  4G13G12G 3G 9
  15213268.998    15213271.729   -49306725.289 9  31246842.714 8
  15234668.193    15234669.275   -88305492.352 9 111306989.446 8
  17302239.908    17302240.721   -80538715.660 9  87920480.196 8
  16152105.481    16152105.769   -17493219.396 8 -10232833.054 9
 89 11 22 13 43 59.0800000  0  4G13G12G 3G 9
  15216327.349    15216329.817   -49290652.658 9  31259366.838 7
  15231226.631    15231228.877   -88323576.694 9 111292897.748 8
  17290624.241    17290624.479   -80599760.432 9  87872912.860 8
  16168436.928    16168438.112   -17407393.497 9 -10165955.748 8
 89 11 22 13 44 29.0800000  0  4G13G12G 3G 9
  15219445.074    15219447.318   -49274267.385 9  31272134.582 7
  15227900.353    15227903.452   -88341055.635 9 111279277.796 8
  17279058.176    17279059.681   -80660531.947 9  87825558.431 9
  16184861.688    16184863.509   -17321083.099 9 -10098700.939 9
 89 11 22 13 44 59.0800000  0  4G13G12G 3G 9
  15222622.956    15222623.811   -49257571.442 9  31285144.424 7
  15224690.696    15224691.693   -88357927.756 9 111266130.682 9
  17267545.300    17267547.106   -80721030.632 9  87778416.607 8
  16201377.965    16201377.905   -17234290.395 9 -10031070.279 8
 89 11 22 13 45 29.0800000  0  4G13G12G 3G 9
  15225858.929    15225860.159   -49240566.628 9  31298394.933 7
  15221594.847    15221597.811   -88374191.881 9 111253457.330 7
  17256086.569    17256086.711   -80781256.356 9  87731487.467 9
  16217985.724    16217985.665   -17147018.063 9  -9963065.885 8
 89 11 22 13 45 59.0800000  0  4G13G12G 3G 9
  15229152.808    15229155.076   -49223254.202 9  31311885.139 7
  15218615.727    15218618.017   -88389846.908 9 111241258.588 9
  17244676.731    17244678.161   -80841209.317 9  87684770.872 9
  16234684.349    16234684.733   -17059268.607 9  -9894689.711 8
 89 11 22 13 46 29.0800000  0  4G13G12G 3G 9
  15232505.997    15232508.239   -49205636.000 9  31325613.600 7
  15215752.764    15215754.372   -88404891.443 8 111229535.580 8
  17233320.352    17233321.964   -80900889.615 9  87638266.747 9
  16251472.258    16251473.235   -16971044.641 9  -9825943.774 8
 89 11 22 13 46 59.0800000  0  4G13G12G 3G 9
  15235916.830    15235919.109   -49187713.575 9  31339579.132 7
  15213006.898    15213008.054   -88419324.681 9 111218288.893 9
  17222014.146    17222015.592   -80960297.615 9  87591974.800 9
  16268351.169    16268351.454   -16882348.832 9  -9756830.172 8
 89 11 22 13 47 29.0800000  0  4G13G12G 3G 9
  15239384.133    15239385.974   -49169488.357 9  31353780.599 7
  15210375.395    15210378.198   -88433145.147 9 111207519.691 8
  17210761.956    17210763.447   -81019433.054 9  87545895.247 9
  16285317.257    16285318.715   -16793183.657 9  -9687350.842 8
 89 11 22 13 47 59.0800000  0  4G13G12G 3G 9
  15242909.831    15242910.902   -49150962.872 9  31368216.049 8
  15207863.491    15207864.375   -88446351.711 9 111197228.857 8
  17199560.732    17199563.043   -81078296.396 9  87500027.708 8
  16302373.715    16302375.768   -16703551.763 9  -9617507.822 8
 89 11 22 13 48 29.0800000  0  4G13G12G 3G 9
  15246491.403    15246492.771   -49132138.590 9  31382884.329 7
  15205467.169    15205470.056   -88458943.476 9 111187417.083 8
  17188411.629    17188411.998   -81136887.849 9  87454372.038 8
  16319519.386    16319519.336   -16613455.870 9  -9547303.256 8
 89 11 22 13 48 59.0800000  0  4G13G12G 3G 9
  15250130.262    15250132.074   -49113017.325 9  31397784.007 8
  15203188.807    15203190.535   -88470919.579 9 111178085.049 7
  17177312.887    17177314.549   -81195207.341 9  87408928.275 8
  16336751.662    16336753.499   -16522898.490 9  -9476739.090 7
 89 11 22 13 49 29.0800000  0  4G13G12G 3G 9
  15253825.792    15253827.613   -49093600.641 9  31412913.882 7
  15201026.254    15201028.309   -88482278.346 9 111169234.043 8
  17166266.962    17166268.371   -81253254.941 9  87363696.376 8
  16354071.106    16354072.177   -16431882.270 9  -9405817.380 8
 89 11 22 13 49 59.0800000  0  4G13G12G 3G 9
  15257576.517    15257578.415   -49073890.153 9  31428272.708 7
  15198983.523    15198983.931   -88493018.924 9 111160864.769 8
  17155272.975    17155274.377   -81311031.161 9  87318675.936 8
  16371478.495    16371479.262   -16340409.840 9  -9334540.191 8
 89 11 22 13 50 29.0800000  0  4G13G12G 3G 9
  15261382.108    15261384.548   -49053887.465 9  31443859.219 8
  15197056.168    15197058.983   -88503140.410 9 111152977.883 9
  17144329.338    17144331.326   -81368536.145 9  87273866.853 8
  16388971.220    16388973.166   -16248483.971 9  -9262909.680 8
 89 11 22 13 50 59.0800000  0  4G13G12G 3G 9
  15265244.044    15265245.888   -49033594.212 9  31459672.141 6
  15195248.846    15195250.442   -88512641.884 9 111145574.138 8
  17133438.676    17133440.985   -81425769.962 9  87229269.078 8
  16406549.299    16406551.382   -16156107.539 9  -9190928.074 9
 89 11 22 13 51 29.0800000  0  4G13G12G 3G 9
  15269159.978    15269161.915   -49013012.354 8  31475709.955 7
  15193559.651    15193560.154   -88521522.568 9 111138654.099 8
  17122599.659    17122598.930   -81482733.032 9  87184882.270 8
  16424212.502    16424214.845   -16063283.195 9  -9118597.457 8
 89 11 22 13 51 59.0800000  0  4G13G12G 3G 9
  15273131.821    15273133.520   -48992143.783 9  31491971.179 6
  15191987.151    15191989.280   -88529781.458 8 111132218.582 7
  17111810.960    17111812.124   -81539425.122 9  87140706.620 8
  16441961.815    16441963.149   -15970013.453 9  -9045919.759 9
 89 11 22 13 52 29.0800000  0  4G13G12G 3G 9
  15277157.641    15277160.118   -48970990.196 9  31508454.505 7
  15190534.409    15190536.502   -88537417.890 9 111126268.108 7
  17101074.483    17101076.724   -81595846.858 9  87096741.615 9
  16459794.751    16459794.867   -15876301.195 9  -8972897.251 7
 89 11 22 13 52 59.0800000  0  4G13G12G 3G 9
  15281236.317    15281236.879   -48949553.093 9  31525158.744 7
  15189199.322    15189200.876   -88544430.758 9 111120803.528 8
  17090388.782    17090390.312   -81651998.567 9  87052987.024 8
  16477711.435    16477712.066   -15782149.253 9  -8899532.124 8
 89 11 22 13 53 29.0800000  0  4G13G12G 3G 9
  15285369.552    15285371.810   -48927834.328 9  31542082.471 7
  15187983.848    15187986.226   -88550819.221 9 111115825.489 8
  17079754.464    17079755.860   -81707880.319 9  87009442.812 8
  16495712.210    16495712.560   -15687560.383 9  -8825826.537 8
 89 11 22 13 53 59.0800000  0  4G13G12G 3G 9
  15289555.987    15289558.288   -48905835.503 9  31559224.411 7
  15186887.193    15186890.019   -88556582.652 9 111111334.489 8
  17069172.632    17069173.130   -81763492.291 9  86966108.804 8
  16513794.029    16513795.010   -15592537.319 9  -8751782.626 8
 89 11 22 13 54 29.0800000  0  4G13G12G 3G 9
  15293795.251    15293796.391   -48883558.999 9  31576582.727 8
  15185909.594    15185912.424   -88561719.906 8 111107331.438 8
  17058640.910    17058642.808   -81818834.770 9  86922984.789 9
  16531958.342    16531959.213   -15497082.912 9  -8677402.600 9
 89 11 22 13 54 59.0800000  0  4G13G12G 3G 9
  15298087.319    15298087.688   -48861005.867 8  31594156.605 7
  15185051.733    15185053.107   -88566230.461 9 111103816.702 8
  17048160.883    17048161.889   -81873908.030 9  86880070.567 7
  16550202.890    16550205.226   -15401199.778 9  -8602688.506 8
 89 11 22 13 55 29.0800000  0  4G13G12G 3G 9
  15302431.187    15302433.422   -48838177.740 9  31611944.748 8
  15184312.838    15184314.544   -88570113.797 9 111100790.720 8
  17037731.357    17037733.255   -81928712.624 9  86837365.694 8
  16568531.006    16568532.999   -15304891.002 9  -8527642.744 9
 89 11 22 13 55 59.0800000  0  4G13G12G 3G 9
  15306826.638    15306828.382   -48815076.374 9  31629945.812 7
  15183692.591    15183694.752   -88573368.931 9 111098254.241 7
  17027354.594    17027355.655   -81983248.463 9  86794870.217 7
  16586938.067    16586939.258   -15208159.099 8  -8452267.283 8
 89 11 22 13 56 29.0800000  0  4G13G12G 3G 9
  15311273.815    15311277.287   -48791703.884 9  31648158.129 8
  15183193.172    15183194.741   -88575995.725 9 111096207.389 8
  17017027.517    17017028.336   -82037516.196 9  86752583.663 9
  16605425.909    16605426.092   -15111007.230 9  -8376564.563 8
 89 11 22 13 56 59.0800000  0  4G13G12G 3G 9
  15315773.644    15315774.358   -48768061.591 9  31666580.684 8
  15182813.020    15182816.182   -88577993.081 9 111094651.013 8
  17006750.869    17006753.146   -82091515.856 9  86710506.019 9
  16623993.084    16623993.036   -15013438.163 9  -8300536.748 7
 89 11 22 13 57 29.0800000  0  4G13G12G 3G 9
  15320323.791    15320325.979   -48744151.215 9  31685212.151 8
  15182553.416    15182554.511   -88579360.636 9 111093585.386 8
  16996526.445    16996527.996   -82145247.747 9  86668637.002 9
  16642638.775    16642638.741   -14915454.627 9  -8224185.966 7
 89 11 22 13 57 59.0800000  0  4G13G12G 3G 9
  15324924.495    15324925.953   -48719974.775 9  31704050.923 7
  15182413.196    15182414.586   -88580097.466 9 111093011.212 8
  16986353.058    16986355.274   -82198712.205 9  86626976.387 8
  16661361.960    16661362.980   -14817059.586 9  -8147514.539 8
 89 11 22 13 58 29.0800000  0  4G13G12G 3G 9
  15329575.370    15329577.200   -48695533.965 9  31723095.716 7
  15182393.749    15182393.821   -88580202.879 9 111092929.058 8
  16976229.742    16976229.838   -82251909.417 9  86585524.013 8
  16680163.653    16680165.474   -14718255.760 9  -8070524.581 8
 89 11 22 13 58 59.0800000  0  4G13G12G 3G 9
  15334275.074    15334277.428   -48670830.813 9  31742344.911 8
  15182492.757    15182495.035   -88579676.891 9 111093338.913 7
  16966157.718    16966157.494   -82304840.273 9  86544279.191 8
  16699043.275    16699045.020   -14619046.336 9  -7993218.577 8
 89 11 22 13 59 29.0800000  0  4G13G12G 3G 9
  15339026.802    15339026.314   -48645866.289 9  31761797.780 7
  15182713.085    15182714.541   -88578518.755 9 111094241.342 9
  16956134.788    16956137.058   -82357504.831 9  86503241.868 8
  16717998.293    16718000.558   -14519434.348 9  -7915598.899 8
 89 11 22 13 59 59.0800000  0  4G13G12G 3G 9
  15343826.115    15343827.031   -48620642.355 9  31781452.788 7
  15183053.386    15183056.333   -88576728.354 9 111095636.468 9
  16946164.731    16946165.790   -82409903.390 9  86462411.823 9
  16737029.659    16737031.351   -14419422.608 9  -7837667.724 8
 89 11 22 14  0 29.0800000  0  4G13G12G 3G 9
  15348676.689    15348678.190   -48595160.551 9  31801308.738 7
  15183515.698    15183517.220   -88574304.904 9 111097524.853 8
  16936243.220    16936245.260   -82462036.033 9  86421788.973 9
  16756137.889    16756139.123   -14319013.614 9  -7759427.001 8
 89 11 22 14  0 59.0800000  0  4G13G12G 3G 9
  15353573.586    15353574.314   -48569422.843 9  31821364.088 7
  15184097.038    15184099.016   -88571248.017 9 111099906.835 9
  16926374.482    16926374.952   -82513903.350 9  86381372.884 8
  16775320.311    16775322.046   -14218210.736 9  -7680879.337 8
 89 11 22 14  1 29.0800000  0  4G13G12G 3G 9
  15358518.864    15358521.033   -48543430.933 9  31841617.528 8
  15184799.132    15184801.278   -88567557.471 9 111102782.573 8
  16916554.145    16916554.330   -82565505.815 9  86341163.156 8
  16794576.152    16794577.267   -14117016.898 9  -7602027.044 8
 89 11 22 14  1 59.0800000  0  4G13G12G 3G 9
  15363514.190    15363514.583   -48517186.303 9  31862067.881 6
  15185622.137    15185624.145   -88563232.956 9 111106152.317 8
  16906785.691    16906786.261   -82616843.512 9  86301159.752 8
  16813906.467    16813907.856   -14015434.973 9  -7522872.320 8
 89 11 22 14  2 29.0800000  0  4G13G12G 3G 9
  15368554.923    15368557.589   -48490690.716 9  31882713.771 7
  15186565.713    15186568.643   -88558274.092 9 111110016.349 8
  16897065.949    16897067.931   -82667917.074 9  86261362.143 7
  16833310.985    16833311.422   -13913467.669 9  -7443417.322 7
 89 11 22 14  2 59.0800000  0  4G13G12G 3G 9
  15373645.981    15373645.589   -48463946.053 9  31903553.764 8
  15187630.804    15187631.858   -88552680.111 9 111114375.288 9
  16887398.053    16887399.046   -82718726.883 9  86221770.069 9
  16852787.319    16852788.257   -13811118.023 9  -7363664.395 8
 89 11 22 14  3 29.0800000  0  4G13G12G 3G 9
  15378781.978    15378782.850   -48436953.445 9  31924586.951 8
  15188815.822    15188817.688   -88546450.936 9 111119229.174 7
  16877778.821    16877780.058   -82769272.979 9  86182383.489 9
  16872335.165    16872336.774   -13708389.179 9  -7283615.985 9
 89 11 22 14  3 59.0800000  0  4G13G12G 3G 9
  15383965.487    15383967.721   -48409714.834 9  31945811.832 6
  15190121.271    15190124.400   -88539586.592 9 111124578.001 8
  16868210.023    16868211.741   -82819556.087 9  86143201.830 9
  16891955.947    16891957.595   -13605284.119 9  -7203274.425 8
 89 11 22 14  4 29.0800000  0  4G13G12G 3G 9
  15389194.453    15389194.928   -48382232.501 9  31967226.626 8
  15191549.511    15191551.085   -88532086.871 9 111130421.937 8
  16858691.366    16858692.924   -82869576.703 9  86104224.722 8
  16911647.180    16911648.527   -13501806.008 9  -7122642.182 8
 89 11 22 14  4 59.0800000  0  4G13G12G 3G 9
  15394470.338    15394472.250   -48354508.093 9  31988830.035 8
  15193097.465    15193098.390   -88523951.451 8 111136761.196 8
  16849222.165    16849223.664   -82919335.250 9  86065451.819 8
  16931408.843    16931410.695   -13397957.876 9  -7041721.630 8
 89 11 22 14  5 29.0800000  0  4G13G12G 3G 9
  15399791.823    15399794.663   -48326543.033 9  32010620.984 7
  15194766.009    15194768.095   -88515180.355 8 111143595.810 9
  16839803.351    16839806.152   -82968832.076 9  86026882.852 9
  16951240.351    16951241.885   -13293742.639 9  -6960515.004 8
 89 11 22 14  5 59.0800000  0  4G13G12G 3G 9
  15405159.146    15405161.430   -48298338.792 9  32032598.301 7
  15196556.880    15196558.298   -88505773.354 9 111150925.920 7
  16830434.039    16830436.398   -83018067.442 9  85988517.617 8
  16971141.598    16971142.416   -13189163.293 9  -6879024.664 8
 89 11 22 14  6 29.0800000  0  4G13G12G 3G 9
  15410571.884    15410572.682   -48269897.019 9  32054760.731 7
  15198466.755    15198469.734   -88495730.482 9 111158751.524 8
  16821115.802    16821116.566   -83067041.900 9  85950355.700 8
  16991111.183    16991113.545   -13084222.880 9  -6797252.969 7
 89 11 22 14  6 59.0800000  0  4G13G12G 3G 9
  15416028.673    15416029.597   -48241219.143 9  32077107.099 7
  15200499.665    15200501.527   -88485051.637 9 111167072.685 8
  16811845.877    16811845.999   -83115755.885 9  85912396.746 8
  17011148.894    17011150.291   -12978924.566 9  -6715202.388 8
 89 11 22 14  7 29.0800000  0  4G13G12G 3G 9
  15421530.476    15421532.384   -48212307.418 9  32099635.708 7
  15202653.723    15202655.482   -88473736.803 8 111175889.431 8
  16802624.743    16802625.627   -83164209.960 9  85874640.320 8
  17031254.033    17031255.629   -12873271.100 9  -6632875.068 8
 89 11 22 14  7 59.0800000  0  4G13G12G 3G 9
  15427075.885    15427079.055   -48183162.645 9  32122345.902 7
  15204927.076    15204928.945   -88461785.597 9 111185202.036 8
  16793454.337    16793455.185   -83212404.144 9  85837086.389 9
  17051424.981    17051427.383   -12767265.635 8  -6550273.478 8
 89 11 22 14  8 29.0800000  0  4G13G12G 3G 9
  15432666.834    15432668.814   -48153786.779 9  32145236.180 7
  15207321.827    15207323.866   -88449198.185 9 111195010.390 8
  16784331.982    16784332.456   -83260339.296 9  85799734.322 9
  17071664.341    17071666.614   -12660911.129 9  -6467399.898 9
 89 11 22 14  8 59.0800000  0  4G13G12G 3G 9
  15438300.675    15438301.011   -48124181.643 9  32168305.123 8
  15209838.597    15209839.696   -88435974.901 8 111205314.236 8
  16775259.856    16775260.114   -83308015.542 8  85762584.000 7
  17091968.480    17091969.599   -12554210.748 9  -6384256.812 8
 89 11 22 14  9 29.0800000  0  4G13G12G 3G 9
  15443977.335    15443977.645   -48094349.322 9  32191551.090 9
  15212476.161    15212476.744   -88422116.033 9 111216113.332 8
  16766236.389    16766237.140   -83355433.823 9  85725634.677 7
  17112338.667    17112340.946   -12447167.828 9  -6300846.810 8
 89 11 22 14  9 59.0800000  0  4G13G12G 3G 9
  15449697.207    15449698.757   -48064291.504 9  32214972.749 8
  15215233.426    15215236.081   -88407621.911 9 111227407.436 8
  16757262.146    16757262.488   -83402594.826 9  85688885.828 8
  17132773.238    17132773.914   -12339785.572 9  -6217172.380 8
 89 11 22 14 10 29.0800000  0  4G13G12G 3G 9
  15455459.313    15455459.865   -48034009.441 9  32238569.141 7
  15218112.738    15218114.546   -88392492.195 9 111239196.810 7
  16748336.229    16748337.331   -83449498.598 9  85652337.415 8
  17153271.049    17153272.937   -12232066.874 9  -6133235.808 9
 89 11 22 14 10 59.0800000  0  4G13G12G 3G 9
  15461264.487    15461267.015   -48003504.689 9  32262339.048 8
  15221113.498    15221114.179   -88376726.905 9 111251481.433 7
  16739459.854    16739460.367   -83496145.658 9  85615989.041 9
  17173833.110    17173834.237   -12124014.870 9  -6049039.508 8
 89 11 22 14 11 29.0800000  0  4G13G12G 3G 9
  15467111.535    15467112.648   -47972779.326 9  32286280.882 7
  15224233.904    15224235.857   -88360326.755 9 111264260.734 8
  16730631.427    16730633.679   -83542536.595 9  85579840.255 8
  17194458.101    17194459.440   -12015632.719 9  -5964585.949 8
 89 11 22 14 11 59.0800000  0  4G13G12G 3G 9
  15473000.014    15473001.635   -47941834.696 9  32310393.570 7
  15227476.063    15227477.613   -88343291.689 9 111277534.793 7
  16721852.516    16721853.039   -83588672.009 9  85543890.559 9
  17215145.169    17215144.957   -11906923.545 9  -5879877.566 8
 89 11 22 14 12 29.0800000  0  4G13G12G 3G 9
  15478930.431    15478930.254   -47910671.963 9  32334676.218 7
  15230838.399    15230839.801   -88325621.925 9 111291303.412 8
  16713120.876    16713123.939   -83634552.030 9  85508139.881 8
  17235892.328    17235894.643   -11797890.352 9  -5794916.718 8
 89 11 22 14 12 59.0800000  0  4G13G12G 3G 9
  15484901.276    15484902.703   -47879293.105 9  32359127.264 7
  15234321.394    15234323.569   -88307318.001 9 111305566.197 8
  16704439.483    16704441.228   -83680177.333 9  85472587.682 8
  17256702.477    17256704.240   -11688536.201 9  -5709705.776 8
 89 11 22 14 13 29.0800000  0  4G13G12G 3G 9
  15490913.415    15490914.447   -47847699.531 9  32383745.623 8
  15237925.840    15237926.149   -88288380.182 8 111320322.918 8
  16695805.559    16695806.594   -83725548.638 9  85437233.413 8
  17277572.119    17277572.953   -11578864.259 9  -5624247.180 7
 89 11 22 14 13 59.0800000  0  4G13G12G 3G 9
  15496965.684    15496967.870   -47815893.068 9  32408529.853 7
  15241648.688    15241651.469   -88268808.270 9 111335573.733 8
  16687220.135    16687221.401   -83770666.173 9  85402076.864 8
  17298501.309    17298504.038   -11468877.510 9  -5538543.293 9
 89 11 22 14 14 29.0800000  0  4G13G12G 3G 9
  15503058.788    15503060.530   -47783875.450 9  32433478.634 8
  15245494.160    15245496.296   -88248602.891 9 111351318.157 8
  16678681.879    16678684.583   -83815530.425 9  85367117.687 8
  17319490.993    17319492.359   -11358579.282 9  -5452596.689 9
 89 11 22 14 14 59.0800000  0  4G13G12G 3G 9
  15509191.495    15509192.576   -47751648.399 9  32458590.599 7
  15249459.832    15249462.148   -88227764.795 8 111367555.607 8
  16670192.341    16670194.006   -83860142.388 9  85332355.123 8
  17340539.795    17340539.611   -11247972.803 9  -5366409.905 8
 89 11 22 14 15 29.0800000  0  4G13G12G 3G 9
  15515364.327    15515365.781   -47719212.928 9  32483864.978 8
  15253544.846    15253548.042   -88206294.311 9 111384285.814 8
  16661751.669    16661754.007   -83904501.879 9  85297789.270 8
  17361645.194    17361646.465   -11137060.991 9  -5279985.196 8
 89 11 22 14 15 59.0800000  0  4G13G12G 3G 9
  15521575.192    15521576.700   -47686570.456 9  32509300.664 7
  15257751.189    15257752.987   -88184192.026 9 111401508.355 8
  16653357.953    16653359.762   -83948610.001 9  85263419.288 9
  17382807.475    17382809.215   -11025847.123 9  -5193325.117 9
 89 11 22 14 16 29.0800000  0  4G13G12G 3G 9
  15527824.658    15527827.786   -47653723.245 9  32534895.853 7
  15262076.942    15262080.090   -88161457.716 9 111419223.373 8
  16645013.103    16645014.555   -83992467.048 9  85229244.958 9
  17404027.285    17404029.827   -10914334.383 8  -5106432.174 8
 89 11 22 14 16 59.0800000  0  4G13G12G 3G 9
  15534114.936    15534117.437   -47620673.008 9  32560649.269 8
  15266523.368    15266525.991   -88138092.384 8 111437430.103 7
  16636715.432    16636716.299   -84036073.731 9  85195265.699 8
  17425304.086    17425306.240   -10802525.842 8  -5019308.740 9
 89 11 22 14 17 29.0800000  0  4G13G12G 3G 9
  15540442.277    15540444.592   -47587420.815 9  32586560.043 7
  15271090.373    15271091.539   -88114096.132 9 111456128.449 8
  16628465.050    16628466.002   -84079430.311 9  85161481.325 9
  17446636.559    17446637.821   -10690424.678 9  -4931957.271 9
 89 11 22 14 17 59.0800000  0  4G13G12G 3G 9
  15546808.618    15546810.404   -47553968.209 9  32612626.982 8
  15275775.450    15275778.525   -88089469.961 9 111475317.645 7
  16620261.285    16620262.453   -84122537.815 9  85127891.068 9
  17468024.134    17468026.741   -10578033.982 8  -4844380.196 8
 89 11 22 14 18 29.0800000  0  4G13G12G 3G 9
  15553212.946    15553213.703   -47520317.082 9  32638848.617 7
  15280582.728    15280585.160   -88064214.419 9 111494997.259 7
  16612105.272    16612106.532   -84165396.386 9  85094494.738 8
  17489465.636    17489467.665   -10465357.204 9  -4756580.193 9
 89 11 22 14 18 59.0800000  0  4G13G12G 3G 9
  15559653.063    15559654.876   -47486468.702 9  32665223.953 7
  15285508.545    15285510.025   -88038330.568 8 111515166.466 7
  16603997.603    16603999.150   -84208006.886 9  85061291.739 8
  17510961.766    17510962.662   -10352397.359 9  -4668559.630 8
 89 11 22 14 19 29.0800000  0  4G13G12G 3G 9
  15566131.247    15566133.420   -47452424.775 9  32691751.673 8
  15290552.540    15290556.360   -88011818.800 8 111535824.954 8
  16595935.531    16595936.180   -84250369.847 9  85028281.619 8
  17532510.072    17532512.847   -10239157.724 9  -4580321.034 9
 89 11 22 14 19 59.0800000  0  4G13G12G 3G 9
  15572645.828    15572648.535   -47418186.491 9  32718430.810 7
  15295716.762    15295719.105   -87984679.989 9 111556972.045 8
  16587920.837    16587921.979   -84292485.774 9  84995463.978 8
  17554112.058    17554114.270   -10125641.494 9  -4491866.920 8
 89 11 22 14 20 29.0800000  0  4G13G12G 3G 9
  15579198.278    15579200.448   -47383756.016 9  32745259.736 8
  15301000.886    15301002.913   -87956914.922 9 111578607.123 8
  16579954.019    16579955.010   -84334355.547 9  84962838.150 8
  17575765.515    17575767.405   -10011852.054 9  -4403199.904 9
 89 11 22 14 20 59.0800000  0  4G13G12G 3G 9
  15585786.209    15585788.754   -47349134.742 9  32772237.315 8
  15306402.717    15306406.629   -87928524.102 9 111600729.811 7
  16572032.330    16572035.258   -84375979.595 9  84930403.802 8
  17597469.704    17597471.573    -9897792.559 9  -4314322.474 8
 89 11 22 14 21 29.0800000  0  4G13G12G 3G 9
  15592411.528    15592413.465   -47314323.696 9  32799362.786 8
  15311925.088    15311927.541   -87899508.375 9 111623339.426 8
  16564159.295    16564160.091   -84417358.177 9  84898160.735 8
  17619225.280    17619227.363    -9783465.717 8  -4225236.713 8
 89 11 22 14 21 59.0800000  0  4G13G12G 3G 9
  15599071.971    15599072.976   -47279325.162 9  32826634.345 7
  15317564.672    15317567.130   -87869868.919 9 111646435.069 7
  16556330.841    16556331.717   -84458492.337 9  84866108.112 8
  17641031.904    17641033.972    -9668875.193 9  -4135945.510 8
 89 11 22 14 22 29.0800000  0  4G13G12G 3G 9
  15605767.479    15605769.350   -47244140.237 9  32854051.137 7
  15323324.657    15323326.067   -87839606.232 9 111670016.360 8
  16548550.839    16548552.390   -84499382.466 9  84834245.660 8
  17662887.379    17662889.728    -9554023.915 9  -4046451.116 9
 89 11 22 14 22 59.0800000  0  4G13G12G 3G 9
  15612497.638    15612498.781   -47208769.791 9  32881612.493 8
  15329202.307    15329203.171   -87808721.065 9 111694082.687 9
  16540814.972    16540817.440   -84540029.106 9  84802572.931 9
  17684791.403    17684794.672    -9438915.371 8  -3956756.264 8
 89 11 22 14 23 29.0800000  0  4G13G12G 3G 9
  15619263.241    15619264.836   -47173215.750 9  32909316.900 8
  15335198.134    15335198.629   -87777214.283 9 111718633.381 8
  16533127.160    16533128.615   -84580433.232 9  84771089.180 9
  17706744.964    17706746.527    -9323552.602 9  -3866863.312 9
 89 11 22 14 23 59.0800000  0  4G13G12G 3G 9
  15626064.021    15626065.625   -47137479.945 9  32937162.941 7
  15341311.375    15341313.043   -87745086.550 9 111743667.943 8
  16525483.919    16525485.647   -84620594.793 9  84739794.432 8
  17728744.997    17728747.738    -9207938.725 9  -3776774.680 8
 89 11 22 14 24 29.0800000  0  4G13G12G 3G 9
  15632898.818    15632898.822   -47101563.288 9  32965149.916 7
  15347542.440    15347544.271   -87712339.094 9 111769185.403 8
  16517887.346    16517889.518   -84660514.828 9  84708687.893 8
  17750793.229    17750796.366    -9092076.967 9  -3686492.909 9
 89 11 22 14 24 59.0800000  0  4G13G12G 3G 9
  15639768.118    15639770.347   -47065467.522 9  32993276.461 8
  15353891.276    15353894.452   -87678972.883 8 111795185.009 8
  16510337.206    16510339.455   -84700193.650 9  84677769.316 8
  17772887.981    17772890.131    -8975970.599 8  -3596020.520 8
 89 11 22 14 25 29.0800000  0  4G13G12G 3G 9
  15646670.529    15646673.076   -47029194.233 9  33021541.330 8
  15360359.711    15360360.871   -87644988.894 9 111821666.003 8
  16502831.214    16502833.735   -84739631.932 9  84647038.165 8
  17795028.227    17795029.510    -8859622.818 9  -3505360.036 8
 89 11 22 14 25 59.0800000  0  4G13G12G 3G 9
  15653605.482    15653608.456   -46992744.604 9  33049943.610 8
  15366943.740    15366945.114   -87610388.507 9 111848627.303 9
  16495372.299    16495374.002   -84778830.584 9  84616493.741 8
  17817214.435    17817216.467    -8743036.798 9  -3414513.894 8
 89 11 22 14 26 29.0800000  0  4G13G12G 3G 9
  15660575.747    15660577.775   -46956120.271 9  33078482.000 7
  15373644.563    15373646.269   -87575172.459 9 111876068.339 9
  16487958.778    16487960.778   -84817790.089 9  84586135.672 8
  17839443.489    17839445.616    -8626215.816 9  -3323484.661 8
 89 11 22 14 26 59.0800000  0  4G13G12G 3G 9
  15667576.922    15667580.462   -46919322.936 9  33107155.206 8
  15380462.760    15380465.347   -87539341.732 9 111903988.347 8
  16480590.683    16480591.617   -84856510.958 9  84555963.563 8
  17861718.600    17861720.778    -8509163.036 9  -3232274.813 8
 89 11 22 14 27 29.0800000  0  4G13G12G 3G 9
  15674613.239    15674614.022   -46882353.559 9  33135962.479 8
  15387398.448    15387400.898   -87502898.277 9 111932385.789 9
  16473267.241    16473269.593   -84894994.081 9  84525976.704 7
  17884035.856    17884038.469    -8391881.889 9  -3140887.035 8
 89 11 22 14 27 59.0800000  0  4G13G12G 3G 9
  15681680.284    15681682.457   -46845214.062 9  33164902.290 8
  15394449.575    15394451.254   -87465842.663 9 111961260.250 9
  16465989.572    16465991.013   -84933240.051 9  84496174.647 8
  17906397.321    17906399.240    -8274375.605 9  -3049323.827 8
 89 11 22 14 28 29.0800000  0  4G13G12G 3G 9
  15688780.017    15688781.814   -46807905.490 9  33193973.876 8
  15401617.397    15401619.765   -87428176.049 9 111990610.813 8
  16458756.841    16458758.587   -84971249.526 9  84466556.855 7
  17928799.958    17928802.749    -8156647.377 9  -2957587.670 8
 89 11 22 14 28 59.0800000  0  4G13G12G 3G 9
  15695911.525    15695913.795   -46770428.986 9  33223176.307 8
  15408901.193    15408903.455   -87389899.734 9 112020436.473 8
  16451569.009    16451570.690   -85009023.058 9  84437122.924 7
  17951244.858    17951246.750    -8038700.249 9  -2865680.949 8
 89 11 22 14 29 29.0800000  0  4G13G12G 3G 9
  15703074.297    15703076.943   -46732786.586 9  33252507.991 8
  15416300.002    15416303.058   -87351015.114 9 112050736.133 8
  16444425.298    16444426.488   -85046561.569 8  84407872.124 8
  17973730.439    17973731.611    -7920537.850 9  -2773606.486 8
 89 11 22 14 29 59.0800000  0  4G13G12G 3G 9
  15710269.181    15710272.028   -46694980.004 9  33281967.619 8
  15423815.724    15423817.884   -87311523.360 9 112081508.899 8
  16437326.952    16437328.308   -85083865.767 8  84378803.917 9
  17996255.561    17996259.583    -7802163.418 9  -2681366.808 8
 89 11 22 14 30 29.0800000  0  4G13G12G 3G 9
  15717495.203    15717496.261   -46657010.033 9  33311554.576 8
  15431446.578    15431448.226   -87271425.395 9 112112754.015 8
  16430272.025    16430273.062   -85120936.050 9  84349917.969 8
  18018822.637    18018824.411    -7683579.792 9  -2588964.113 8
 89 11 22 14 30 59.0800000  0  4G13G12G 3G 9
  15724750.905    15724753.254   -46618878.228 9  33341267.623 8
  15439191.837    15439193.752   -87230722.627 9 112144470.399 8
  16423262.417    16423263.695   -85157772.976 9  84321213.859 8
  18041427.951    18041429.686    -7564790.370 9  -2496401.057 8
 89 11 22 14 31 29.0800000  0  4G13G12G 3G 9
  15732037.684    15732038.997   -46580586.006 9  33371105.668 8
  15447051.913    15447054.233   -87189416.465 9 112176656.970 8
  16416296.719    16416298.438   -85194377.237 9  84292691.031 7
  18064070.444    18064074.251    -7445798.397 9  -2403680.183 8
 89 11 22 14 31 59.0800000  0  4G13G12G 3G 9
  15739355.514    15739357.445   -46542134.515 9  33401067.828 8
  15455027.776    15455029.795   -87147508.593 9 112209312.409 8
  16409374.847    16409376.685   -85230749.631 9  84264348.904 7
  18086752.399    18086754.811    -7326607.094 9  -2310803.971 8
 89 11 22 14 32 29.0800000  0  4G13G12G 3G 9
  15746702.668    15746703.497   -46503524.847 9  33431153.224 8
  15463115.332    15463117.854   -87105000.308 9 112242435.688 9
  16402498.443    16402499.916   -85266890.509 9  84236187.157 8
  18109471.598    18109473.649    -7207219.590 9  -2217774.890 8
 89 11 22 14 32 59.0800000  0  4G13G12G 3G 9
  15754078.910    15754080.351   -46464758.789 9  33461360.499 7
  15471318.201    15471320.511   -87061893.260 9 112276025.548 9
  16395664.404    16395666.322   -85302800.937 9  84208204.981 8
  18132226.689    18132228.882    -7087639.244 9  -2124595.546 8
 89 11 22 14 33 29.0800000  0  4G13G12G 3G 9
  15761485.401    15761487.455   -46425837.764 9  33491688.523 7
  15479635.652    15479637.682   -87018188.342 9 112310081.260 9
  16388875.112    16388875.540   -85338481.407 9  84180402.023 8
  18155019.182    18155020.038    -6967869.302 8  -2031268.477 8
 89 11 22 14 33 59.0800000  0  4G13G12G 3G 9
  15768920.669    15768923.004   -46386762.723 9  33522136.535 8
  15488065.874    15488068.441   -86973887.408 9 112344601.413 8
  16382129.241    16382131.560   -85373932.767 9  84152777.569 7
  18177845.573    18177846.743    -6847913.156 8  -1937796.293 8
 89 11 22 14 34 29.0800000  0  4G13G12G 3G 9
  15776385.708    15776387.569   -46347535.464 9  33552703.171 8
  15496609.249    15496611.260   -86928991.970 9 112379584.816 9
  16375426.024    16375427.377   -85409155.372 9  84125331.360 8
  18200706.054    18200710.450    -6727773.765 9  -1844181.334 9
 89 11 22 14 34 59.0800000  0  4G13G12G 3G 9
  15783879.537    15783881.869   -46308157.225 9  33583387.467 8
  15505265.285    15505267.544   -86883503.370 9 112415030.410 9
  16368767.582    16368768.436   -85444150.361 9  84098062.529 7
  18223602.352    18223605.081    -6607454.406 8  -1750426.161 8
 89 11 22 14 35 29.0800000  0  4G13G12G 3G 9
  15791401.095    15791402.463   -46268628.924 9  33614188.682 8
  15514033.842    15514036.138   -86837423.061 9 112450937.087 9
  16362150.976    16362152.677   -85478917.824 9  84070970.966 7
  18246533.433    18246535.663    -6486958.154 8  -1656533.132 8
 89 11 22 14 35 59.0800000  0  4G13G12G 3G 9
  15798952.336    15798952.447   -46228952.332 9  33645105.460 8
  15522915.455    15522918.416   -86790752.832 9 112487303.425 8
  16355578.447    16355579.385   -85513458.733 9  84044055.964 7
  18269494.829    18269498.846    -6366288.489 9  -1562505.003 9
 89 11 22 14 36 29.0800000  0  4G13G12G 3G 9
  15806530.015    15806531.099   -46189128.458 9  33676136.996 8
  15531908.238    15531911.517   -86743494.430 9 112524128.087 8
  16349047.697    16349048.661   -85547773.571 9  84017317.101 8
  18292490.295    18292494.357    -6245448.569 8  -1468344.181 8
 89 11 22 14 36 59.0800000  0  4G13G12G 3G 9
  15814136.283    15814137.397   -46149158.453 9  33707282.391 8
  15541012.710    15541016.470   -86695649.304 9 112561409.941 9
  16342561.191    16342563.723   -85581863.102 9  83990753.809 7
  18315518.199    18315520.852    -6124441.493 9  -1374053.118 9
 89 11 22 14 37 29.0800000  0  4G13G12G 3G 9
  15821769.530    15821771.787   -46109043.706 9  33738540.573 6
  15550228.893    15550231.404   -86647219.242 9 112599147.598 9
  16336116.435    16336118.772   -85615728.246 9  83964365.333 8
  18338576.272    18338578.727    -6003270.759 9  -1279634.544 8
 89 11 22 14 37 59.0800000  0  4G13G12G 3G 9
  15829430.167    15829432.966   -46068785.250 9  33769910.729 8
  15559556.567    15559558.784   -86598206.064 9 112637339.622 8
  16329715.834    16329715.859   -85649369.502 8  83938151.367 7
  18361665.207    18361668.456    -5881939.566 9  -1185090.917 8
 89 11 22 14 38 29.0800000  0  4G13G12G 3G 9
  15837117.849    15837120.843   -46028385.295 9  33801391.150 7
  15568994.093    15568996.174   -86548611.278 9 112675984.853 8
  16323356.110    16323357.800   -85682787.752 9  83912111.149 8
  18384782.764    18384786.855    -5760451.179 9  -1090424.810 7
 89 11 22 14 38 59.0800000  0  4G13G12G 3G 9
  15844834.041    15844834.425   -45987844.479 9  33832981.344 7
  15578541.636    15578544.247   -86498436.034 9 112715082.390 9
  16317039.872    16317038.873   -85715983.530 9  83886244.320 7
  18407931.879    18407933.501    -5638808.400 9   -995638.390 7
 89 11 22 14 39 29.0800000  0  4G13G12G 3G 9
  15852574.416    15852575.772   -45947163.855 9  33864680.462 8
  15588200.288    15588203.721   -86447682.616 9 112754630.440 8
  16310764.576    16310765.808   -85748957.497 9  83860550.282 8
  18431108.509    18431112.231    -5517014.894 9   -900734.532 8
 89 11 22 14 39 59.0800000  0  4G13G12G 3G 9
  15860342.685    15860344.100   -45906344.618 9  33896487.591 7
  15597967.477    15597970.335   -86396353.094 9 112794627.410 7
  16304531.178    16304533.068   -85781710.222 9  83835028.663 8
  18454313.313    18454316.666    -5395073.635 9   -805715.534 7
 89 11 22 14 40 29.0800000  0  4G13G12G 3G 9
  15868136.691    15868138.560   -45865388.059 9  33928401.742 8
  15607845.191    15607846.864   -86344448.761 9 112835072.266 9
  16298340.907    16298342.064   -85814242.506 9  83809678.802 8
  18477545.560    18477548.249    -5272987.762 9   -710583.852 9
 89 11 22 14 40 59.0800000  0  4G13G12G 3G 9
  15875955.318    15875957.715   -45824295.391 9  33960421.944 7
  15617831.706    15617833.666   -86291971.411 9 112875963.644 9
  16292191.280    16292193.815   -85846554.904 9  83784500.266 8
  18500804.056    18500808.465    -5150760.467 9   -615341.981 8
 89 11 22 14 41 29.0800000  0  4G13G12G 3G 9
  15883800.801    15883803.490   -45783067.743 9  33992547.319 8
  15627925.767    15627928.194   -86238922.960 9 112917300.026 8
  16286085.048    16286085.772   -85878648.115 9  83759492.557 8
  18524090.257    18524093.370    -5028395.006 8   -519992.464 9
 89 11 22 14 41 59.0800000  0  4G13G12G 3G 9
  15891671.728    15891674.303   -45741706.693 9  34024776.658 8
  15638129.662    15638130.828   -86185305.520 9 112959079.803 8
  16280018.899    16280020.768   -85910523.029 9  83734654.931 8
  18547401.319    18547404.944    -4905894.826 8   -424537.979 9
 89 11 22 14 42 29.0800000  0  4G13G12G 3G 9
  15899568.065    15899568.860   -45700213.499 8  34057108.966 7
  15648440.484    15648442.462   -86131120.977 9 113001301.461 9
  16273995.563    16273997.847   -85942180.361 9  83709986.863 8
  18570737.411    18570741.342    -4783263.202 8   -328981.084 8
 89 11 22 14 42 59.0800000  0  4G13G12G 3G 9
  15907488.695    15907491.055   -45658589.030 9  34089543.547 7
  15658858.476    15658861.297   -86076371.144 9 113043963.607 9
  16268012.537    16268014.047   -85973620.528 9  83685487.999 8
  18594099.075    18594101.720    -4660503.138 8   -233324.116 8
 89 11 22 14 43 29.0800000  0  4G13G12G 3G 9
  15915435.175    15915436.241   -45616834.795 9  34122079.257 8
  15669384.117    15669386.764   -86021057.938 9 113087064.731 8
  16262070.609    16262073.110   -86004844.260 9  83661157.798 7
  18617481.469    18617485.350    -4537617.616 8   -137569.376 8
 89 11 22 14 43 59.0800000  0  4G13G12G 3G 9
  15923404.775    15923406.957   -45574951.644 9  34154715.396 8
  15680016.674    15680019.690   -85965183.930 9 113130602.842 8
  16256170.143    16256171.379   -86035852.557 9  83636995.444 7
  18640890.396    18640894.316    -4414610.220 9    -41719.674 8
 89 11 22 14 44 29.0800000  0  4G13G12G 3G 9
  15931399.698    15931401.777   -45532940.482 9  34187451.306 8
  15690755.428    15690758.579   -85908750.379 9 113174576.971 8
  16250310.714    16250312.019   -86066645.925 9  83613000.595 7
  18664320.441    18664324.059    -4291484.044 9     54222.582 8
 89 11 22 14 44 59.0800000  0  4G13G12G 3G 9
  15939418.223    15939419.711   -45490802.855 9  34220285.751 8
  15701600.394    15701603.290   -85851759.437 9 113218985.440 9
  16244490.992    16244492.313   -86097224.688 9  83589172.965 8
  18687772.813    18687776.009    -4168242.100 9    150255.054 7
 89 11 22 14 45 29.0800000  0  4G13G12G 3G 9
  15947460.857    15947463.015   -45448539.791 9  34253217.945 7
  15712551.799    15712554.538   -85794213.615 9 113263826.270 8
  16238712.143    16238713.934   -86127590.270 9  83565511.426 8
  18711246.416    18711249.505    -4044888.087 9    246374.861 7
 89 11 22 14 45 59.0800000  0  4G13G12G 3G 9
  15955526.783    15955527.969   -45406152.887 9  34286246.625 8
  15723606.931    15723610.177   -85736114.806 9 113309098.008 8
  16232975.714    16232977.071   -86157742.891 9  83542015.864 8
  18734741.397    18734745.400    -3921424.826 9    342579.784 8
 89 11 22 14 46 29.0800000  0  4G13G12G 3G 9
  15963615.482    15963617.649   -45363642.344 9  34319371.646 7
  15734767.907    15734771.550   -85677465.133 9 113354798.965 8
  16227278.104    16227279.295   -86187683.442 9  83518685.534 8
  18758255.998    18758261.012    -3797855.589 9    438867.295 7
 89 11 22 14 46 59.0800000  0  4G13G12G 3G 9
  15971728.623    15971731.040   -45321009.763 9  34352591.774 8
  15746033.254    15746035.885   -85618266.675 9 113400927.565 7
  16221621.231    16221622.310   -86217412.742 7  83495519.845 8
  18781790.334    18781793.323    -3674183.567 9    535234.901 7
 89 11 22 14 47 29.0800000  0  4G13G12G 3G 9
  15979864.264    15979866.707   -45278256.307 9  34385906.084 8
  15757402.552    15757405.545   -85558521.153 9 113447482.447 9
  16216002.959    16216004.821   -86246931.234 9  83472518.380 8
  18805343.267    18805346.842    -3550411.834 9    631680.166 7
 89 11 22 14 47 59.0800000  0  4G13G12G 3G 9
  15988023.311    15988025.646   -45235383.170 9  34419313.647 8
  15768875.905    15768878.708   -85498230.948 9 113494461.738 8
  16210425.982    16210427.816   -86276239.539 9  83449680.716 7
  18828914.262    18828917.762    -3426543.608 9    728200.624 8
 89 11 22 14 48 29.0800000  0  4G13G12G 3G 9
  15996204.485    15996206.599   -45192391.411 9  34452813.651 7
  15780452.664    15780453.793   -85437398.237 9 113541863.785 9
  16204888.403    16204889.657   -86305338.629 9  83427006.080 8
  18852504.500    18852507.350    -3302582.191 8    824793.693 8
 89 11 22 14 48 59.0800000  0  4G13G12G 3G 9
  16004407.715    16004410.933   -45149282.144 9  34486405.206 7
  15792131.069    15792133.204   -85376025.128 9 113589686.913 9
  16199390.958    16199392.878   -86334228.676 9  83404494.318 8
  18876108.997    18876114.022    -3178530.597 7    921457.024 7
 89 11 22 14 49 29.0800000  0  4G13G12G 3G 9
  16012632.780    16012636.028   -45106056.444 9  34520087.496 7
  15803911.250    15803914.578   -85314114.389 9 113637928.975 8
  16193932.890    16193934.444   -86362911.064 9  83382144.366 8
  18899732.922    18899737.082    -3054392.173 9   1018188.005 8
 89 11 22 14 49 59.0800000  0  4G13G12G 3G 9
  16020880.428    16020883.612   -45062715.078 9  34553859.896 8
  15815795.901    15815796.519   -85251667.891 9 113686588.512 7
  16188514.566    16188516.360   -86391386.287 9  83359955.849 8
  18923371.712    18923375.978    -2930170.016 8   1114984.242 8
 89 11 22 14 50 29.0800000  0  4G13G12G 3G 9
  16029149.251    16029152.940   -45019259.036 9  34587721.671 8
  15827779.847    15827783.365   -85188687.614 9 113735663.970 9
  16183134.686    16183136.143   -86419654.743 9  83337928.456 8
  18947024.979    18947030.436    -2805867.260 9   1211843.293 8
 89 11 22 14 50 59.0800000  0  4G13G12G 3G 9
  16037441.800    16037444.056   -44975689.294 9  34621672.022 8
  15839865.574    15839867.903   -85125176.262 9 113785153.270 8
  16177794.707    16177795.678   -86447717.467 9  83316061.360 9
  18970694.587    18970700.018    -2681487.159 9   1308762.595 8
 89 11 22 14 51 29.0800000  0  4G13G12G 3G 9
  16045753.345    16045757.146   -44932007.443 9  34655709.730 7
  15852053.730    15852054.909   -85061136.155 9 113835054.582 8
  16172493.236    16172494.867   -86475574.950 9  83294354.187 7
  18994377.252    18994383.261    -2557032.870 9   1405739.709 8
 89 11 22 14 51 59.0800000  0  4G13G12G 3G 9
  16054087.447    16054090.390   -44888213.953 9  34689834.440 8
  15864339.817    15864342.015   -84996569.220 9 113885366.404 9
  16167231.534    16167233.257   -86503227.594 9  83272806.649 8
  19018073.713    19018079.393    -2432507.300 8   1502772.358 8
 89 11 22 14 52 29.0800000  0  4G13G12G 3G 9
  16062441.954    16062443.108   -44844310.021 9  34724045.215 8
  15876725.588    15876728.828   -84931478.077 9 113936086.698 8
  16162008.053    16162010.544   -86530676.659 9  83251417.711 8
  19041783.106    19041788.553    -2307913.744 9   1599857.986 7
 89 11 22 14 52 59.0800000  0  4G13G12G 3G 9
  16070817.296    16070819.909   -44800296.763 9  34758341.163 8
  15889210.620    15889214.000   -84865865.195 9 113987213.532 9
  16156823.331    16156826.138   -86557922.710 9  83230186.982 7
  19065505.431    19065511.354    -2183255.511 9   1696994.000 9
 89 11 22 14 53 29.0800000  0  4G13G12G 3G 9
  16079213.586    16079217.189   -44756175.346 9  34792721.400 7
  15901796.183    15901798.846   -84799733.017 9 114038745.006 9
  16151677.306    16151679.022   -86584966.265 8  83209114.050 8
  19089238.789    19089244.140    -2058535.754 8   1794177.964 9
 89 11 22 14 53 59.0800000  0  4G13G12G 3G 9
  16087630.185    16087632.341   -44711946.633 9  34827185.227 7
  15914478.459    15914481.682   -84733083.912 9 114090679.289 7
  16146569.787    16146570.918   -86611808.189 9  83188198.210 8
  19112984.056    19112989.575    -1933757.636 8   1891407.383 7
 89 11 22 14 54 29.0800000  0  4G13G12G 3G 9
  16096066.660    16096070.531   -44667611.653 9  34861731.879 8
  15927260.497    15927262.197   -84665920.301 9 114143014.496 8
  16141500.449    16141502.188   -86638448.973 9  83167439.104 8
  19136738.737    19136744.935    -1808924.015 7   1988680.045 8
 89 11 22 14 54 59.0800000  0  4G13G12G 3G 9
  16104524.077    16104527.278   -44623170.954 9  34896360.902 9
  15940138.666    15940140.492   -84598244.561 9 114195748.772 9
  16136469.404    16136470.561   -86664889.515 9  83146836.039 8
  19160503.560    19160510.338    -1684038.157 8   2085993.404 7
 89 11 22 14 55 29.0800000  0  4G13G12G 3G 9
  16113000.174    16113004.520   -44578625.672 9  34931071.415 7
  15953113.678    15953116.537   -84530058.939 9 114248880.342 8
  16131476.385    16131477.618   -86691129.972 9  83126388.873 7
  19184279.517    19184284.636    -1559103.070 8   2183345.121 8
 89 11 22 14 55 59.0800000  0  4G13G12G 3G 9
  16121497.161    16121500.434   -44533976.717 9  34965862.719 8
  15966184.878    15966188.023   -84461365.705 9 114302407.451 9
  16126519.585    16126522.483   -86717171.410 9  83106096.788 8
  19208063.955    19208067.929    -1434121.905 8   2280732.743 8
 89 11 22 14 56 29.0800000  0  4G13G12G 3G 9
  16130014.016    16130016.562   -44489225.243 9  35000733.904 8
  15979353.870    15979356.099   -84392167.674 9 114356327.883 8
  16121601.994    16121605.123   -86743014.195 9  83085959.500 8
  19231854.629    19231859.334    -1309097.810 8   2378153.811 8
 89 11 22 14 56 59.0800000  0  4G13G12G 3G 9
  16138548.846    16138550.675   -44444371.707 9  35035684.618 8
  15992616.639    15992619.938   -84322467.363 9 114410639.710 9
  16116722.043    16116723.496   -86768659.189 9  83065976.324 7
  19255652.318    19255660.074    -1184033.784 8   2475606.001 8
 89 11 22 14 57 29.0800000  0  4G13G12G 3G 9
  16147103.329    16147105.709   -44399417.335 9  35070713.900 8
  16005975.853    16005979.037   -84252267.239 9 114465341.011 8
  16111880.051    16111881.279   -86794107.173 9  83046146.678 8
  19279459.163    19279465.167    -1058933.155 8   2573086.686 8
 89 11 22 14 57 59.0800000  0  4G13G12G 3G 9
  16155676.963    16155679.876   -44354363.235 9  35105820.901 8
  16019429.154    16019432.625   -84181570.072 9 114520429.627 8
  16107075.282    16107077.031   -86819358.937 9  83026469.928 8
  19303272.566    19303276.280     -933799.017 9   2670593.496 9
 89 11 22 14 58 29.0800000  0  4G13G12G 3G 9
  16164269.307    16164272.554   -44309210.015 9  35141005.128 8
  16032977.508    16032978.856   -84110378.253 9 114575903.700 8
  16102306.011    16102308.695   -86844414.819 9  83006945.809 8
  19327090.163    19327094.473     -808634.328 8   2768124.072 7
 89 11 22 14 58 59.0800000  0  4G13G12G 3G 9
  16172880.914    16172883.223   -44263958.537 9  35176265.936 7
  16046618.164    16046621.986   -84038694.464 9 114631761.107 9
  16097576.449    16097577.791   -86869275.628 9  82987573.696 8
  19350913.194    19350919.923     -683442.115 8   2865676.135 7
 89 11 22 14 59 29.0800000  0  4G13G12G 3G 9
  16181510.035    16181512.591   -44218609.950 9  35211602.409 9
  16060351.495    16060354.316   -83966521.365 9 114687999.794 8
  16092881.824    16092884.757   -86893942.014 9  82968353.090 8
  19374740.164    19374746.263     -558225.528 8   2963247.138 6
 89 11 22 14 59 59.0800000  0  4G13G12G 3G 9
  16190157.553    16190160.910   -44173164.857 9  35247014.085 7
  16074178.626    16074180.574   -83893861.881 9 114744617.485 8
  16088225.288    16088227.545   -86918414.618 9  82949283.466 8
  19398573.185    19398581.478     -432987.777 8   3060834.661 7
 89 11 22 15  0 29.0800000  0  4G13G12G 3G 9
  16198824.197    16198826.162   -44127624.071 9  35282500.326 8
  16088096.744    16088100.686   -83820718.496 9 114801612.220 9
  16083604.760    16083606.903   -86942694.237 9  82930364.227 7
  19422409.280    19422416.994     -307731.977 8   3158436.238 8
 89 11 22 15  0 59.0800000  0  4G13G12G 3G 9
  16207507.993    16207510.707   -44081988.574 9  35318060.364 8
  16102107.053    16102111.619   -83747093.731 9 114858982.055 9
  16079020.627    16079023.295   -86966781.545 9  82911594.851 7
  19446247.877    19446253.764     -182461.183 8   3256049.485 7
 89 11 22 15  1 29.0800000  0  4G13G12G 3G 9
  16216210.269    16216213.556   -44036259.198 9  35353693.552 8
  16116209.198    16116212.447   -83672989.928 9 114916725.180 9
  16074474.145    16074476.967   -86990677.003 9  82892974.955 8
  19470088.110    19470096.337      -57178.281 9   3353672.168 8
 89 11 22 15  1 59.0800000  0  4G13G12G 3G 9
  16224930.138    16224932.084   -43990437.040 9  35389399.047 7
  16130402.149    16130403.891   -83598409.765 9 114974839.517 8
  16069962.801    16069963.994   -87014381.451 9  82874503.904 7
  19493932.305    19493937.468       68113.427 9   3451301.715 7
 89 11 22 15  2 29.0800000  0  4G13G12G 3G 9
  16233667.806    16233670.323   -43944522.535 9  35425176.489 8
  16144684.451    16144686.937   -83523355.876 9 115033322.966 8
  16065489.293    16065491.800   -87037895.286 9  82856181.370 8
  19517777.248    19517780.723      193411.217 9   3548935.983 7
 89 11 22 15  2 59.0800000  0  4G13G12G 3G 9
  16242422.728    16242426.411   -43898516.171 9  35461025.519 6
  16159055.643    16159058.054   -83447831.238 9 115092173.242 8
  16061050.899    16061052.444   -87061219.154 9  82838006.877 7
  19541618.922    19541625.924      318712.011 9   3646572.569 7
 89 11 22 15  3 29.0800000  0  4G13G12G 3G 9
  16251194.746    16251196.903   -43852419.323 9  35496945.057 8
  16173516.440    16173518.926   -83371838.799 9 115151388.034 8
  16056648.406    16056649.889   -87084353.791 9  82819979.843 8
  19565464.172    19565471.121      444012.491 9   3744208.933 8
 89 11 22 15  3 59.0800000  0  4G13G12G 3G 9
  16259982.297    16259986.424   -43806232.480 9  35532934.720 7
  16188065.431    16188069.053   -83295381.298 9 115210965.202 8
  16052282.143    16052283.256   -87107299.719 9  82802099.833 8
  19589305.915    19589314.364      569309.953 9   3841842.908 9
 89 11 22 15  4 29.0800000  0  4G13G12G 3G 9
  16268789.325    16268791.884   -43759956.632 9  35568993.721 8
  16202702.807    16202706.210   -83218461.514 9 115270902.586 9
  16047950.793    16047952.388   -87130057.932 9  82784366.103 8
  19613149.818    19613156.153      694601.280 9   3939472.094 8
 89 11 22 15  4 59.0800000  0  4G13G12G 3G 9
  16277611.642    16277615.874   -43713592.514 9  35605121.511 7
  16217428.566    16217431.434   -83141082.785 9 115331197.585 9
  16043656.744    16043657.648   -87152629.047 9  82766778.169 7
  19636992.116    19636997.026      819882.985 8   4037093.791 8
 89 11 22 15  5 29.0800000  0  4G13G12G 3G 9
  16286451.046    16286454.990   -43667141.027 9  35641317.380 8
  16232240.011    16232243.543   -83063247.332 9 115391848.474 8
  16039397.429    16039397.918   -87175013.167 9  82749335.921 8
  19660830.377    19660835.315      945152.528 7   4134706.015 8
 89 11 22 15  5 59.0800000  0  4G13G12G 3G 9
  16295307.820    16295309.941   -43620602.719 9  35677580.910 6
  16247138.410    16247140.928   -82984958.390 9 115452852.745 9
  16035172.980    16035174.021   -87197211.464 9  82732038.501 8
  19684665.396    19684671.464     1070406.793 8   4232306.273 8
 89 11 22 15  6 29.0800000  0  4G13G12G 3G 9
  16304180.058    16304183.214   -43573978.488 9  35713911.389 8
  16262121.910    16262125.031   -82906218.713 9 115514208.226 9
  16030984.211    16030985.386   -87219224.287 9  82714885.588 8
  19708495.569    19708502.822     1195642.609 5   4329892.130 8
 89 11 22 15  6 59.0800000  0  4G13G12G 3G 9
  16313068.309    16313071.773   -43527268.856 9  35750308.406 8
  16277191.161    16277194.320   -82827030.507 9 115575913.212 8
  16026830.378    16026831.123   -87241052.378 9  82697876.616 8
  19732326.159    19732330.601     1320857.218 7   4427461.446 8
 89 11 22 15  7 29.0800000  0  4G13G12G 3G 9
  16321974.082    16321975.992   -43480474.534 9  35786771.412 8
  16292344.137    16292347.216   -82747396.475 9 115637965.580 8
  16022711.073    16022712.211   -87262696.201 9  82681011.239 8
  19756144.724    19756155.907     1446047.762 7   4525012.028 6
 89 11 22 15  7 59.0800000  0  4G13G12G 3G 9
  16330894.329    16330897.898   -43433596.082 9  35823299.977 7
  16307582.785    16307586.604   -82667319.855 9 115700362.845 9
  16018627.842    16018629.774   -87284156.310 9  82664289.017 8
  19779964.541    19779972.855     1571211.062 8   4622541.419 7
 89 11 22 15  8 29.0800000  0  4G13G12G 3G 9
  16339830.968    16339833.870   -43386634.607 9  35859893.208 8
  16322904.848    16322907.973   -82586803.902 9 115763102.444 8
  16014578.305    16014581.355   -87305433.360 9  82647709.442 7
  19803778.211    19803784.875     1696344.081 8   4720047.220 7
 89 11 22 15  8 59.0800000  0  4G13G12G 3G 9
  16348783.046    16348786.333   -43339589.993 9  35896551.240 8
  16338309.827    16338312.695   -82505851.341 9 115826182.244 8
  16010564.492    16010566.113   -87326528.005 9  82631272.002 7
  19827584.485    19827589.636     1821443.808 8   4817527.081 5
 89 11 22 15  9 29.0800000  0  4G13G12G 3G 9
  16357750.655    16357754.815   -43292463.393 9  35933273.149 8
  16353797.461    16353799.813   -82424464.784 9 115889600.230 8
  16006584.977    16006586.367   -87347440.677 9  82614976.353 8
  19851382.047    19851390.520     1946507.571 9   4914978.857 5
 89 11 22 15  9 59.0800000  0  4G13G12G 3G 9
  16366734.751    16366738.237   -43245255.808 9  35970058.167 7
  16369366.287    16369369.322   -82342647.411 9 115953353.901 9
  16002639.863    16002642.372   -87368172.305 9  82598821.778 7
  19875173.672    19875184.018     2071532.160 9   5012400.181 6
 89 11 22 15 10 29.0800000  0  4G13G12G 3G 9
  16375732.818    16375735.563   -43197967.863 8  36006905.796 7
  16385016.926    16385020.974   -82260402.410 9 116017440.791 9
  15998728.802    15998731.891   -87388723.359 9  82582807.908 8
  19898958.806    19898965.737     2196514.597 9   5109788.618 5
 89 11 22 15 10 59.0800000  0  4G13G12G 3G 9
  16384747.151    16384750.203   -43150600.091 9  36043815.627 8
  16400747.997    16400752.520   -82177732.471 9 116081858.791 9
  15994853.058    15994854.914   -87409094.368 9  82566934.353 8
  19922733.218    19922743.771     2321452.089 9   5207142.052 6
 89 11 22 15 11 29.0800000  0  4G13G12G 3G 9
  16393776.502    16393778.516   -43103153.033 9  36080787.247 7
  16416559.563    16416564.304   -82094640.568 9 116146605.577 9
  15991010.659    15991011.459   -87429285.933 9  82551200.616 7
  19946499.341    19946507.901     2446341.392 9   5304457.917 6
 89 11 22 15 11 59.0800000  0  4G13G12G 3G 9
  16402819.629    16402823.934   -43055627.351 9  36117820.113 7
  16432452.688    16432456.349   -82011129.538 9 116211678.989 8
  15987202.182    15987204.458   -87449298.671 9  82535606.224 8
  19970256.543    19970265.791     2571179.968 9   5401734.264 7
 89 11 22 15 12 29.0800000  0  4G13G12G 3G 9
  16411878.761    16411881.808   -43008023.619 9  36154913.804 7
  16448423.393    16448426.727   -81927202.737 9 116277076.389 8
  15983428.567    15983429.850   -87469133.067 9  82520150.815 8
  19994002.190    19994010.556     2695964.475 8   5498968.441 7
 89 11 22 15 12 59.0800000  0  4G13G12G 3G 9
  16420952.374    16420955.581   -42960342.190 9  36192068.045 8
  16464473.332    16464475.883   -81842862.912 9 116342795.618 8
  15979687.508    15979688.589   -87488789.941 9  82504833.720 8
  20017738.319    20017746.094     2820692.255 9   5596158.432 8
 89 11 22 15 13 29.0800000  0  4G13G12G 3G 9
  16430040.356    16430042.926   -42912583.866 9  36229282.183 8
  16480599.668    16480603.487   -81758113.079 9 116408834.332 8
  15975980.936    15975982.376   -87508269.261 9  82489654.975 7
  20041460.422    20041470.004     2945360.533 7   5693302.030 8
 89 11 22 15 13 59.0800000  0  4G13G12G 3G 9
  16439142.916    16439146.323   -42864749.293 9  36266555.742 7
  16496803.820    16496808.081   -81672956.398 9 116475190.045 8
  15972307.114    15972309.707   -87527572.244 9  82474613.644 8
  20065173.663    20065182.201     3069966.190 7   5790396.872 7
 89 11 22 15 14 29.0800000  0  4G13G12G 3G 9
  16448259.436    16448262.812   -42816839.134 9  36303888.222 7
  16513085.836    16513090.808   -81587396.012 8 116541860.325 9
  15968667.427    15968668.647   -87546699.277 9  82459709.412 8
  20088869.872    20088882.087     3194506.406 3   5887440.624 8
 89 11 22 15 14 59.0800000  0  4G13G12G 3G 9
  16457392.371    16457396.345   -42768854.123 8  36341278.993 7
  16529444.162    16529449.184   -81501434.756 9 116608842.971 9
  15965061.055    15965062.828   -87565650.755 9  82444941.980 8
  20112559.702    20112569.512     3318978.114 5   5984430.960 9
 89 11 22 15 15 29.0800000  0  4G13G12G 3G 9
  16466537.760    16466540.057   -42720794.588 9  36378727.864 8
  16545878.272    16545882.783   -81415075.774 9 116676135.528 8
  15961487.865    15961490.579   -87584427.388 9  82430310.781 8
  20136232.029    20136242.369     3443378.556 6   6081365.845 8
 89 11 22 15 15 59.0800000  0  4G13G12G 3G 9
  16475696.362    16475700.780   -42672661.236 9  36416234.242 8
  16562386.920    16562391.503   -81328322.285 9 116743735.515 9
  15957948.893    15957950.970   -87603029.849 9  82415815.304 7
  20159891.698    20159901.054     3567704.723 6   6178242.822 8
 89 11 22 15 16 29.0800000  0  4G13G12G 3G 9
  16484870.969    16484874.831   -42624454.564 9  36453797.761 8
  16578970.850    16578974.333   -81241177.372 9 116811640.515 8
  15954441.357    15954443.789   -87621458.808 9  82401455.025 9
  20183536.571    20183545.027     3691953.612 8   6275059.606 8
 89 11 22 15 16 59.0800000  0  4G13G12G 3G 9
  16494058.110    16494062.386   -42576174.754 8  36491418.262 7
  16595627.661    16595631.786   -81153644.240 9 116879848.006 8
  15950968.257    15950970.541   -87639714.107 9  82387230.046 8
  20207165.919    20207173.966     3816122.579 9   6371814.145 7
 89 11 22 15 17 29.0800000  0  4G13G12G 3G 9
  16503258.725    16503262.676   -42527822.618 9  36529095.125 7
  16612358.036    16612361.640   -81065725.862 9 116948355.706 8
  15947525.925    15947530.116   -87657796.811 9  82373139.574 8
  20230778.415    20230787.860     3940208.910 9   6468504.263 9
 89 11 22 15 17 59.0800000  0  4G13G12G 3G 9
  16512474.305    16512478.165   -42479398.587 9  36566828.005 8
  16629160.453    16629165.355   -80977425.107 9 117017161.342 8
  15944118.533    15944121.344   -87675707.562 9  82359183.079 8
  20254375.866    20254385.199     4064209.369 9   6565127.444 8
 89 11 22 15 18 29.0800000  0  4G13G12G 3G 9
  16521702.111    16521705.852   -42430903.402 9  36604616.336 8
  16646036.010    16646041.145   -80888745.151 9 117086262.463 8
  15940742.442    15940745.714   -87693446.521 9  82345360.462 8
  20277955.240    20277964.458     4188121.471 9   6661681.795 7
 89 11 22 15 18 59.0800000  0  4G13G12G 3G 9
  16530943.449    16530948.855   -42382337.627 9  36642459.675 8
  16662983.505    16662987.334   -80799689.546 9 117155656.280 8
  15937400.498    15937401.782   -87711014.515 9  82331671.053 8
  20301518.033    20301527.807     4311942.198 9   6758164.908 6
 89 11 22 15 19 29.0800000  0  4G13G12G 3G 9
  16540198.701    16540204.441   -42333701.731 9  36680357.649 9
  16680001.110    16680005.349   -80710260.983 9 117225340.728 9
  15934089.523    15934091.631   -87728411.761 9  82318114.693 8
  20325062.507    20325073.310     4435668.618 9   6854574.527 6
 89 11 22 15 19 59.0800000  0  4G13G12G 3G 9
  16549466.456    16549472.261   -42284995.874 9  36718310.152 7
  16697089.002    16697094.648   -80620463.091 9 117295312.969 9
  15930810.758    15930813.617   -87745639.020 9  82304690.793 8
  20348588.301    20348599.753     4559297.937 9   6950908.468 6
 89 11 22 15 20 29.0800000  0  4G13G12G 3G 9
  16558748.458    16558752.378   -42236220.570 8  36756316.760 7
  16714247.517    16714251.120   -80530298.551 9 117365570.894 9
  15927565.564    15927567.565   -87762696.592 9  82291399.098 8
  20372096.247    20372105.987     4682827.474 9   7047164.696 6
 89 11 22 15 20 59.0800000  0  4G13G12G 3G 9
  16568044.916    16568047.649   -42187376.249 9  36794377.143 7
  16731473.817    16731478.669   -80439770.693 9 117436111.934 9
  15924352.674    15924354.092   -87779584.755 9  82278239.410 8
  20395584.068    20395595.875     4806254.654 9   7143341.096 6
 89 11 22 15 21 29.0800000  0  4G13G12G 3G 9
  16577352.861    16577356.981   -42138463.360 9  36832490.968 8
  16748770.141    16748773.792   -80348882.848 9 117506933.480 9
  15921170.475    15921172.311   -87796304.266 9  82265211.152 7
  20419051.508    20419062.636     4929576.532 8   7239435.453 3
 89 11 22 15 21 59.0800000  0  4G13G12G 3G 9
  16586672.155    16586676.929   -42089482.271 9  36870657.921 8
  16766132.289    16766137.920   -80257638.117 9 117578033.115 9
  15918021.203    15918022.886   -87812855.589 9  82252313.957 8
  20442498.572    20442511.928     5052790.318 7   7335445.540 1
